Wetterdaten: Donnerstag, 26.01.2017
Datum Zeit Temp. A. Feuchte A. Luftdruck Regen Wind Richtung Richtung Sonnenschein ET UV Solar Taupunkt Windchill Windben Empfang
26.01.2017 00:00 -2,4 C 86 % 1029,9 hPa 0,0 l/m 14,0 km/h (3 Bft) O-NO 62 0 min 0,000 mm 0,0 UV-I 0 W/m -4,4 C -9,2 C 19,3 km/h (3 Bft) 100,00 %
26.01.2017 00:02 -2,4 C 87 % 1030,0 hPa 0,0 l/m 18,8 km/h (3 Bft) O-NO 59 0 min 0,000 mm 0,0 UV-I 0 W/m -4,3 C -12,1 C 25,7 km/h (4 Bft) 97,62 %
26.01.2017 00:04 -2,4 C 86 % 1029,9 hPa 0,0 l/m 18,6 km/h (3 Bft) O-NO 76 0 min 0,000 mm 0,0 UV-I 0 W/m -4,4 C -12,0 C 25,7 km/h (4 Bft) 100,00 %
26.01.2017 00:06 -2,4 C 86 % 1029,9 hPa 0,0 l/m 16,6 km/h (3 Bft) O-NO 58 0 min 0,000 mm 0,0 UV-I 0 W/m -4,4 C -10,9 C 22,5 km/h (4 Bft) 98,11 %
26.01.2017 00:08 -2,4 C 87 % 1029,9 hPa 0,0 l/m 18,9 km/h (3 Bft) O-NO 63 0 min 0,000 mm 0,0 UV-I 0 W/m -4,3 C -12,2 C 24,1 km/h (4 Bft) 100,00 %
26.01.2017 00:10 -2,4 C 87 % 1029,9 hPa 0,0 l/m 17,6 km/h (3 Bft) O-NO 57 0 min 0,000 mm 0,0 UV-I 0 W/m -4,3 C -11,5 C 22,5 km/h (4 Bft) 100,00 %
26.01.2017 00:12 -2,4 C 87 % 1029,9 hPa 0,0 l/m 17,9 km/h (3 Bft) O-NO 61 0 min 0,000 mm 0,0 UV-I 0 W/m -4,3 C -11,6 C 24,1 km/h (4 Bft) 100,00 %
26.01.2017 00:14 -2,4 C 87 % 1030,0 hPa 0,0 l/m 18,6 km/h (3 Bft) O-NO 59 0 min 0,000 mm 0,0 UV-I 0 W/m -4,3 C -12,0 C 22,5 km/h (4 Bft) 100,00 %
26.01.2017 00:16 -2,4 C 87 % 1030,0 hPa 0,0 l/m 18,4 km/h (3 Bft) NO 48 0 min 0,000 mm 0,0 UV-I 0 W/m -4,3 C -11,9 C 25,7 km/h (4 Bft) 100,00 %
26.01.2017 00:18 -2,4 C 87 % 1030,0 hPa 0,0 l/m 18,3 km/h (3 Bft) O-NO 57 0 min 0,000 mm 0,0 UV-I 0 W/m -4,3 C -11,8 C 24,1 km/h (4 Bft) 100,00 %
26.01.2017 00:20 -2,4 C 87 % 1029,9 hPa 0,0 l/m 18,2 km/h (3 Bft) NO 46 0 min 0,000 mm 0,0 UV-I 0 W/m -4,3 C -11,8 C 27,4 km/h (4 Bft) 100,00 %
26.01.2017 00:22 -2,4 C 87 % 1029,9 hPa 0,0 l/m 18,3 km/h (3 Bft) O-NO 59 0 min 0,000 mm 0,0 UV-I 0 W/m -4,3 C -11,8 C 25,7 km/h (4 Bft) 100,00 %
26.01.2017 00:24 -2,4 C 87 % 1029,9 hPa 0,0 l/m 19,4 km/h (3 Bft) NO 42 0 min 0,000 mm 0,0 UV-I 0 W/m -4,3 C -12,4 C 24,1 km/h (4 Bft) 100,00 %
26.01.2017 00:26 -2,4 C 87 % 1029,9 hPa 0,0 l/m 17,8 km/h (3 Bft) NO 53 0 min 0,000 mm 0,0 UV-I 0 W/m -4,3 C -11,6 C 22,5 km/h (4 Bft) 100,00 %
26.01.2017 00:28 -2,4 C 87 % 1029,9 hPa 0,0 l/m 18,6 km/h (3 Bft) O-NO 69 0 min 0,000 mm 0,0 UV-I 0 W/m -4,3 C -12,0 C 24,1 km/h (4 Bft) 97,44 %
26.01.2017 00:30 -2,3 C 86 % 1029,9 hPa 0,0 l/m 17,8 km/h (3 Bft) O-NO 69 0 min 0,000 mm 0,0 UV-I 0 W/m -4,3 C -11,4 C 25,7 km/h (4 Bft) 100,00 %
26.01.2017 00:32 -2,3 C 86 % 1029,8 hPa 0,0 l/m 22,2 km/h (4 Bft) O-NO 58 0 min 0,000 mm 0,0 UV-I 0 W/m -4,3 C -13,6 C 29,0 km/h (5 Bft) 100,00 %
26.01.2017 00:34 -2,3 C 86 % 1029,8 hPa 0,0 l/m 19,5 km/h (3 Bft) O-NO 57 0 min 0,000 mm 0,0 UV-I 0 W/m -4,3 C -12,4 C 25,7 km/h (4 Bft) 100,00 %
26.01.2017 00:36 -2,3 C 86 % 1029,8 hPa 0,0 l/m 18,3 km/h (3 Bft) O-NO 57 0 min 0,000 mm 0,0 UV-I 0 W/m -4,3 C -11,7 C 24,1 km/h (4 Bft) 97,56 %
26.01.2017 00:38 -2,3 C 86 % 1029,8 hPa 0,0 l/m 21,1 km/h (4 Bft) O-NO 67 0 min 0,000 mm 0,0 UV-I 0 W/m -4,3 C -13,1 C 30,6 km/h (5 Bft) 98,21 %
26.01.2017 00:40 -2,3 C 86 % 1029,8 hPa 0,0 l/m 17,7 km/h (3 Bft) O 86 0 min 0,000 mm 0,0 UV-I 0 W/m -4,3 C -11,4 C 25,7 km/h (4 Bft) 97,56 %
26.01.2017 00:42 -2,3 C 86 % 1029,8 hPa 0,0 l/m 19,7 km/h (3 Bft) O-NO 61 0 min 0,000 mm 0,0 UV-I 0 W/m -4,3 C -12,5 C 27,4 km/h (4 Bft) 98,11 %
26.01.2017 00:44 -2,3 C 86 % 1029,7 hPa 0,0 l/m 18,3 km/h (3 Bft) NO 48 0 min 0,000 mm 0,0 UV-I 0 W/m -4,3 C -11,7 C 24,1 km/h (4 Bft) 97,56 %
26.01.2017 00:46 -2,3 C 86 % 1029,7 hPa 0,0 l/m 22,9 km/h (4 Bft) O-NO 70 0 min 0,000 mm 0,0 UV-I 0 W/m -4,3 C -14,0 C 29,0 km/h (5 Bft) 97,92 %
26.01.2017 00:48 -2,3 C 86 % 1029,7 hPa 0,0 l/m 21,7 km/h (4 Bft) O-NO 61 0 min 0,000 mm 0,0 UV-I 0 W/m -4,3 C -13,4 C 29,0 km/h (5 Bft) 96,15 %
26.01.2017 00:50 -2,3 C 86 % 1029,8 hPa 0,0 l/m 19,9 km/h (4 Bft) O-NO 71 0 min 0,000 mm 0,0 UV-I 0 W/m -4,3 C -12,6 C 25,7 km/h (4 Bft) 97,44 %
26.01.2017 00:52 -2,3 C 86 % 1029,7 hPa 0,0 l/m 21,4 km/h (4 Bft) O-NO 61 0 min 0,000 mm 0,0 UV-I 0 W/m -4,3 C -13,3 C 29,0 km/h (5 Bft) 100,00 %
26.01.2017 00:54 -2,3 C 86 % 1029,7 hPa 0,0 l/m 21,0 km/h (4 Bft) NO 49 0 min 0,000 mm 0,0 UV-I 0 W/m -4,3 C -13,1 C 30,6 km/h (5 Bft) 95,59 %
26.01.2017 00:56 -2,3 C 86 % 1029,8 hPa 0,0 l/m 24,5 km/h (4 Bft) NO 46 0 min 0,000 mm 0,0 UV-I 0 W/m -4,3 C -14,6 C 33,8 km/h (5 Bft) 97,56 %
26.01.2017 00:58 -2,3 C 86 % 1029,8 hPa 0,0 l/m 24,3 km/h (4 Bft) O-NO 61 0 min 0,000 mm 0,0 UV-I 0 W/m -4,3 C -14,6 C 33,8 km/h (5 Bft) 98,11 %
26.01.2017 01:00 -2,2 C 85 % 1029,8 hPa 0,0 l/m 22,8 km/h (4 Bft) NO 47 0 min 0,025 mm 0,0 UV-I 0 W/m -4,4 C -13,8 C 29,0 km/h (5 Bft) 94,74 %
26.01.2017 01:02 -2,2 C 85 % 1029,8 hPa 0,0 l/m 30,4 km/h (5 Bft) NO 50 0 min 0,000 mm 0,0 UV-I 0 W/m -4,4 C -16,6 C 41,8 km/h (6 Bft) 98,11 %
26.01.2017 01:04 -2,2 C 85 % 1029,8 hPa 0,0 l/m 25,8 km/h (4 Bft) O-NO 68 0 min 0,000 mm 0,0 UV-I 0 W/m -4,4 C -15,0 C 33,8 km/h (5 Bft) 97,56 %
26.01.2017 01:06 -2,2 C 85 % 1029,9 hPa 0,0 l/m 27,4 km/h (4 Bft) O-NO 67 0 min 0,000 mm 0,0 UV-I 0 W/m -4,4 C -15,6 C 37,0 km/h (5 Bft) 94,34 %
26.01.2017 01:08 -2,2 C 84 % 1029,8 hPa 0,0 l/m 26,1 km/h (4 Bft) O-NO 62 0 min 0,000 mm 0,0 UV-I 0 W/m -4,5 C -15,1 C 35,4 km/h (5 Bft) 97,73 %
26.01.2017 01:10 -2,2 C 84 % 1029,8 hPa 0,0 l/m 24,0 km/h (4 Bft) O-NO 61 0 min 0,000 mm 0,0 UV-I 0 W/m -4,5 C -14,3 C 35,4 km/h (5 Bft) 96,23 %
26.01.2017 01:12 -2,2 C 84 % 1029,8 hPa 0,0 l/m 25,9 km/h (4 Bft) O-NO 71 0 min 0,000 mm 0,0 UV-I 0 W/m -4,5 C -15,1 C 30,6 km/h (5 Bft) 100,00 %
26.01.2017 01:14 -2,2 C 84 % 1029,8 hPa 0,0 l/m 25,6 km/h (4 Bft) O-NO 59 0 min 0,000 mm 0,0 UV-I 0 W/m -4,5 C -14,9 C 33,8 km/h (5 Bft) 100,00 %
26.01.2017 01:16 -2,2 C 84 % 1029,8 hPa 0,0 l/m 25,7 km/h (4 Bft) O-NO 75 0 min 0,000 mm 0,0 UV-I 0 W/m -4,5 C -15,0 C 33,8 km/h (5 Bft) 97,56 %
26.01.2017 01:18 -2,2 C 84 % 1029,8 hPa 0,0 l/m 20,1 km/h (4 Bft) O-NO 62 0 min 0,000 mm 0,0 UV-I 0 W/m -4,5 C -12,5 C 27,4 km/h (4 Bft) 100,00 %
26.01.2017 01:20 -2,2 C 84 % 1029,9 hPa 0,0 l/m 22,7 km/h (4 Bft) O-NO 66 0 min 0,000 mm 0,0 UV-I 0 W/m -4,5 C -13,7 C 29,0 km/h (5 Bft) 100,00 %
26.01.2017 01:22 -2,2 C 85 % 1029,9 hPa 0,0 l/m 22,5 km/h (4 Bft) O-NO 74 0 min 0,000 mm 0,0 UV-I 0 W/m -4,4 C -13,6 C 27,4 km/h (4 Bft) 98,00 %
26.01.2017 01:24 -2,2 C 85 % 1029,9 hPa 0,0 l/m 22,0 km/h (4 Bft) O-NO 76 0 min 0,000 mm 0,0 UV-I 0 W/m -4,4 C -13,4 C 30,6 km/h (5 Bft) 100,00 %
26.01.2017 01:26 -2,2 C 84 % 1029,9 hPa 0,0 l/m 24,1 km/h (4 Bft) NO 49 0 min 0,000 mm 0,0 UV-I 0 W/m -4,5 C -14,3 C 30,6 km/h (5 Bft) 100,00 %
26.01.2017 01:28 -2,2 C 84 % 1029,9 hPa 0,0 l/m 21,9 km/h (4 Bft) NO 52 0 min 0,000 mm 0,0 UV-I 0 W/m -4,5 C -13,4 C 30,6 km/h (5 Bft) 100,00 %
26.01.2017 01:30 -2,2 C 85 % 1029,8 hPa 0,0 l/m 21,7 km/h (4 Bft) NO 40 0 min 0,000 mm 0,0 UV-I 0 W/m -4,4 C -13,3 C 25,7 km/h (4 Bft) 98,00 %
26.01.2017 01:32 -2,2 C 84 % 1029,8 hPa 0,0 l/m 22,4 km/h (4 Bft) NO 41 0 min 0,000 mm 0,0 UV-I 0 W/m -4,5 C -13,6 C 29,0 km/h (5 Bft) 100,00 %
26.01.2017 01:34 -2,2 C 84 % 1029,8 hPa 0,0 l/m 21,8 km/h (4 Bft) O-NO 67 0 min 0,000 mm 0,0 UV-I 0 W/m -4,5 C -13,3 C 29,0 km/h (5 Bft) 100,00 %
26.01.2017 01:36 -2,3 C 84 % 1029,8 hPa 0,0 l/m 21,7 km/h (4 Bft) O-NO 67 0 min 0,000 mm 0,0 UV-I 0 W/m -4,6 C -13,4 C 30,6 km/h (5 Bft) 96,00 %
26.01.2017 01:38 -2,3 C 84 % 1029,8 hPa 0,0 l/m 23,2 km/h (4 Bft) O-NO 58 0 min 0,000 mm 0,0 UV-I 0 W/m -4,6 C -14,1 C 30,6 km/h (5 Bft) 100,00 %
26.01.2017 01:40 -2,3 C 84 % 1029,8 hPa 0,0 l/m 21,0 km/h (4 Bft) O-NO 59 0 min 0,000 mm 0,0 UV-I 0 W/m -4,6 C -13,1 C 25,7 km/h (4 Bft) 100,00 %
26.01.2017 01:42 -2,3 C 84 % 1029,8 hPa 0,0 l/m 17,6 km/h (3 Bft) O-NO 63 0 min 0,000 mm 0,0 UV-I 0 W/m -4,6 C -11,3 C 25,7 km/h (4 Bft) 100,00 %
26.01.2017 01:44 -2,3 C 84 % 1029,9 hPa 0,0 l/m 18,9 km/h (3 Bft) O-NO 71 0 min 0,000 mm 0,0 UV-I 0 W/m -4,6 C -12,0 C 25,7 km/h (4 Bft) 100,00 %
26.01.2017 01:46 -2,3 C 84 % 1029,9 hPa 0,0 l/m 18,3 km/h (3 Bft) O-NO 71 0 min 0,000 mm 0,0 UV-I 0 W/m -4,6 C -11,7 C 24,1 km/h (4 Bft) 98,31 %
26.01.2017 01:48 -2,3 C 84 % 1029,8 hPa 0,0 l/m 18,5 km/h (3 Bft) O-NO 64 0 min 0,000 mm 0,0 UV-I 0 W/m -4,6 C -11,8 C 27,4 km/h (4 Bft) 100,00 %
26.01.2017 01:50 -2,3 C 84 % 1029,9 hPa 0,0 l/m 18,4 km/h (3 Bft) O-NO 68 0 min 0,000 mm 0,0 UV-I 0 W/m -4,6 C -11,8 C 27,4 km/h (4 Bft) 100,00 %
26.01.2017 01:52 -2,3 C 84 % 1029,9 hPa 0,0 l/m 23,0 km/h (4 Bft) O-NO 66 0 min 0,000 mm 0,0 UV-I 0 W/m -4,6 C -14,0 C 35,4 km/h (5 Bft) 100,00 %
26.01.2017 01:54 -2,3 C 84 % 1029,9 hPa 0,0 l/m 25,5 km/h (4 Bft) O 86 0 min 0,000 mm 0,0 UV-I 0 W/m -4,6 C -15,0 C 32,2 km/h (5 Bft) 100,00 %
26.01.2017 01:56 -2,3 C 83 % 1029,9 hPa 0,0 l/m 25,2 km/h (4 Bft) O 82 0 min 0,000 mm 0,0 UV-I 0 W/m -4,8 C -14,9 C 32,2 km/h (5 Bft) 100,00 %
26.01.2017 01:58 -2,2 C 83 % 1029,8 hPa 0,0 l/m 21,4 km/h (4 Bft) O-NO 70 0 min 0,000 mm 0,0 UV-I 0 W/m -4,7 C -13,1 C 29,0 km/h (5 Bft) 97,14 %
26.01.2017 02:00 -2,3 C 83 % 1029,9 hPa 0,0 l/m 26,9 km/h (4 Bft) O-NO 71 0 min 0,026 mm 0,0 UV-I 0 W/m -4,8 C -15,6 C 38,6 km/h (5 Bft) 97,87 %
26.01.2017 02:02 -2,2 C 83 % 1029,9 hPa 0,0 l/m 28,6 km/h (4 Bft) O-NO 64 0 min 0,000 mm 0,0 UV-I 0 W/m -4,7 C -16,0 C 38,6 km/h (5 Bft) 98,21 %
26.01.2017 02:04 -2,2 C 83 % 1029,8 hPa 0,0 l/m 26,8 km/h (4 Bft) O-NO 65 0 min 0,000 mm 0,0 UV-I 0 W/m -4,7 C -15,4 C 37,0 km/h (5 Bft) 100,00 %
26.01.2017 02:06 -2,2 C 82 % 1029,8 hPa 0,0 l/m 32,3 km/h (5 Bft) O 84 0 min 0,000 mm 0,0 UV-I 0 W/m -4,8 C -17,2 C 41,8 km/h (6 Bft) 100,00 %
26.01.2017 02:08 -2,2 C 82 % 1029,8 hPa 0,0 l/m 31,2 km/h (5 Bft) O-NO 69 0 min 0,000 mm 0,0 UV-I 0 W/m -4,8 C -16,9 C 46,7 km/h (6 Bft) 98,28 %
26.01.2017 02:10 -2,2 C 82 % 1029,8 hPa 0,0 l/m 28,2 km/h (4 Bft) O-NO 60 0 min 0,000 mm 0,0 UV-I 0 W/m -4,8 C -15,9 C 38,6 km/h (5 Bft) 100,00 %
26.01.2017 02:12 -2,2 C 82 % 1029,8 hPa 0,0 l/m 25,5 km/h (4 Bft) O-NO 69 0 min 0,000 mm 0,0 UV-I 0 W/m -4,8 C -14,9 C 35,4 km/h (5 Bft) 100,00 %
26.01.2017 02:14 -2,2 C 82 % 1029,8 hPa 0,0 l/m 23,6 km/h (4 Bft) O-NO 63 0 min 0,000 mm 0,0 UV-I 0 W/m -4,8 C -14,1 C 32,2 km/h (5 Bft) 98,00 %
26.01.2017 02:16 -2,2 C 82 % 1029,8 hPa 0,0 l/m 26,9 km/h (4 Bft) O 88 0 min 0,000 mm 0,0 UV-I 0 W/m -4,8 C -15,4 C 48,3 km/h (6 Bft) 100,00 %
26.01.2017 02:18 -2,2 C 82 % 1029,8 hPa 0,0 l/m 28,9 km/h (5 Bft) O-NO 77 0 min 0,000 mm 0,0 UV-I 0 W/m -4,8 C -16,1 C 43,5 km/h (6 Bft) 100,00 %
26.01.2017 02:20 -2,2 C 82 % 1029,8 hPa 0,0 l/m 24,7 km/h (4 Bft) NO 49 0 min 0,000 mm 0,0 UV-I 0 W/m -4,8 C -14,6 C 32,2 km/h (5 Bft) 100,00 %
26.01.2017 02:22 -2,3 C 82 % 1029,7 hPa 0,0 l/m 24,6 km/h (4 Bft) O 84 0 min 0,000 mm 0,0 UV-I 0 W/m -4,9 C -14,7 C 32,2 km/h (5 Bft) 100,00 %
26.01.2017 02:24 -2,3 C 82 % 1029,7 hPa 0,0 l/m 25,0 km/h (4 Bft) O-NO 63 0 min 0,000 mm 0,0 UV-I 0 W/m -4,9 C -14,8 C 33,8 km/h (5 Bft) 100,00 %
26.01.2017 02:26 -2,3 C 82 % 1029,6 hPa 0,0 l/m 25,3 km/h (4 Bft) NO 46 0 min 0,000 mm 0,0 UV-I 0 W/m -4,9 C -15,0 C 35,4 km/h (5 Bft) 98,00 %
26.01.2017 02:28 -2,3 C 82 % 1029,7 hPa 0,0 l/m 21,5 km/h (4 Bft) O-NO 75 0 min 0,000 mm 0,0 UV-I 0 W/m -4,9 C -13,3 C 30,6 km/h (5 Bft) 97,14 %
26.01.2017 02:30 -2,3 C 82 % 1029,7 hPa 0,0 l/m 26,2 km/h (4 Bft) O-NO 72 0 min 0,000 mm 0,0 UV-I 0 W/m -4,9 C -15,3 C 33,8 km/h (5 Bft) 100,00 %
26.01.2017 02:32 -2,3 C 82 % 1029,7 hPa 0,0 l/m 26,7 km/h (4 Bft) O-NO 70 0 min 0,000 mm 0,0 UV-I 0 W/m -4,9 C -15,5 C 33,8 km/h (5 Bft) 97,56 %
26.01.2017 02:34 -2,3 C 82 % 1029,7 hPa 0,0 l/m 24,2 km/h (4 Bft) O-NO 59 0 min 0,000 mm 0,0 UV-I 0 W/m -4,9 C -14,5 C 30,6 km/h (5 Bft) 98,11 %
26.01.2017 02:36 -2,3 C 82 % 1029,6 hPa 0,0 l/m 23,7 km/h (4 Bft) O 79 0 min 0,000 mm 0,0 UV-I 0 W/m -4,9 C -14,3 C 32,2 km/h (5 Bft) 98,00 %
26.01.2017 02:38 -2,3 C 82 % 1029,7 hPa 0,0 l/m 21,0 km/h (4 Bft) NO 54 0 min 0,000 mm 0,0 UV-I 0 W/m -4,9 C -13,1 C 29,0 km/h (5 Bft) 100,00 %
26.01.2017 02:40 -2,3 C 82 % 1029,7 hPa 0,0 l/m 24,1 km/h (4 Bft) NO 53 0 min 0,000 mm 0,0 UV-I 0 W/m -4,9 C -14,5 C 32,2 km/h (5 Bft) 97,56 %
26.01.2017 02:42 -2,3 C 82 % 1029,6 hPa 0,0 l/m 18,9 km/h (3 Bft) O-NO 61 0 min 0,000 mm 0,0 UV-I 0 W/m -4,9 C -12,0 C 27,4 km/h (4 Bft) 96,43 %
26.01.2017 02:44 -2,3 C 82 % 1029,7 hPa 0,0 l/m 20,6 km/h (4 Bft) NO 54 0 min 0,000 mm 0,0 UV-I 0 W/m -4,9 C -12,9 C 27,4 km/h (4 Bft) 97,44 %
26.01.2017 02:46 -2,3 C 82 % 1029,6 hPa 0,0 l/m 22,5 km/h (4 Bft) O-NO 77 0 min 0,000 mm 0,0 UV-I 0 W/m -4,9 C -13,8 C 32,2 km/h (5 Bft) 98,08 %
26.01.2017 02:48 -2,3 C 82 % 1029,7 hPa 0,0 l/m 21,9 km/h (4 Bft) NO 53 0 min 0,000 mm 0,0 UV-I 0 W/m -4,9 C -13,5 C 29,0 km/h (5 Bft) 92,45 %
26.01.2017 02:50 -2,3 C 82 % 1029,7 hPa 0,0 l/m 22,5 km/h (4 Bft) O-NO 68 0 min 0,000 mm 0,0 UV-I 0 W/m -4,9 C -13,8 C 29,0 km/h (5 Bft) 97,44 %
26.01.2017 02:52 -2,3 C 82 % 1029,6 hPa 0,0 l/m 20,6 km/h (4 Bft) N-NO 28 0 min 0,000 mm 0,0 UV-I 0 W/m -4,9 C -12,9 C 27,4 km/h (4 Bft) 95,12 %
26.01.2017 02:54 -2,3 C 82 % 1029,7 hPa 0,0 l/m 19,0 km/h (3 Bft) O-NO 63 0 min 0,000 mm 0,0 UV-I 0 W/m -4,9 C -12,1 C 27,4 km/h (4 Bft) 98,31 %
26.01.2017 02:56 -2,3 C 82 % 1029,7 hPa 0,0 l/m 18,5 km/h (3 Bft) O-NO 58 0 min 0,000 mm 0,0 UV-I 0 W/m -4,9 C -11,8 C 25,7 km/h (4 Bft) 94,74 %
26.01.2017 02:58 -2,3 C 82 % 1029,7 hPa 0,0 l/m 19,2 km/h (3 Bft) O-NO 57 0 min 0,000 mm 0,0 UV-I 0 W/m -4,9 C -12,2 C 27,4 km/h (4 Bft) 96,23 %
26.01.2017 03:00 -2,3 C 82 % 1029,6 hPa 0,0 l/m 22,0 km/h (4 Bft) NO 55 0 min 0,025 mm 0,0 UV-I 0 W/m -4,9 C -13,6 C 29,0 km/h (5 Bft) 98,00 %
26.01.2017 03:02 -2,3 C 82 % 1029,7 hPa 0,0 l/m 21,0 km/h (4 Bft) O 84 0 min 0,000 mm 0,0 UV-I 0 W/m -4,9 C -13,1 C 32,2 km/h (5 Bft) 97,56 %
26.01.2017 03:04 -2,3 C 82 % 1029,6 hPa 0,0 l/m 21,2 km/h (4 Bft) O-NO 71 0 min 0,000 mm 0,0 UV-I 0 W/m -4,9 C -13,2 C 32,2 km/h (5 Bft) 98,00 %
26.01.2017 03:06 -2,4 C 82 % 1029,6 hPa 0,0 l/m 25,9 km/h (4 Bft) NO 35 0 min 0,000 mm 0,0 UV-I 0 W/m -5,0 C -15,3 C 33,8 km/h (5 Bft) 95,45 %
26.01.2017 03:08 -2,4 C 82 % 1029,6 hPa 0,0 l/m 23,0 km/h (4 Bft) O-NO 74 0 min 0,000 mm 0,0 UV-I 0 W/m -5,0 C -14,1 C 32,2 km/h (5 Bft) 98,11 %
26.01.2017 03:10 -2,4 C 82 % 1029,5 hPa 0,0 l/m 19,7 km/h (3 Bft) O-NO 59 0 min 0,000 mm 0,0 UV-I 0 W/m -5,0 C -12,6 C 30,6 km/h (5 Bft) 97,56 %
26.01.2017 03:12 -2,4 C 82 % 1029,5 hPa 0,0 l/m 23,9 km/h (4 Bft) O-NO 66 0 min 0,000 mm 0,0 UV-I 0 W/m -5,0 C -14,5 C 32,2 km/h (5 Bft) 95,74 %
26.01.2017 03:14 -2,4 C 82 % 1029,5 hPa 0,0 l/m 25,9 km/h (4 Bft) O-NO 61 0 min 0,000 mm 0,0 UV-I 0 W/m -5,0 C -15,3 C 35,4 km/h (5 Bft) 97,56 %
26.01.2017 03:16 -2,4 C 82 % 1029,5 hPa 0,0 l/m 23,2 km/h (4 Bft) NO 53 0 min 0,000 mm 0,0 UV-I 0 W/m -5,0 C -14,2 C 27,4 km/h (4 Bft) 98,11 %
26.01.2017 03:18 -2,4 C 82 % 1029,5 hPa 0,0 l/m 21,1 km/h (4 Bft) O-NO 57 0 min 0,000 mm 0,0 UV-I 0 W/m -5,0 C -13,3 C 29,0 km/h (5 Bft) 100,00 %
26.01.2017 03:20 -2,4 C 82 % 1029,4 hPa 0,0 l/m 24,2 km/h (4 Bft) O-NO 74 0 min 0,000 mm 0,0 UV-I 0 W/m -5,0 C -14,6 C 33,8 km/h (5 Bft) 97,62 %
26.01.2017 03:22 -2,4 C 83 % 1029,4 hPa 0,0 l/m 22,8 km/h (4 Bft) O-NO 66 0 min 0,000 mm 0,0 UV-I 0 W/m -4,9 C -14,0 C 30,6 km/h (5 Bft) 98,36 %
26.01.2017 03:24 -2,5 C 83 % 1029,4 hPa 0,0 l/m 17,8 km/h (3 Bft) O-NO 66 0 min 0,000 mm 0,0 UV-I 0 W/m -5,0 C -11,7 C 24,1 km/h (4 Bft) 100,00 %
26.01.2017 03:26 -2,5 C 83 % 1029,4 hPa 0,0 l/m 20,6 km/h (4 Bft) O-NO 71 0 min 0,000 mm 0,0 UV-I 0 W/m -5,0 C -13,2 C 29,0 km/h (5 Bft) 98,08 %
26.01.2017 03:28 -2,5 C 83 % 1029,4 hPa 0,0 l/m 20,1 km/h (4 Bft) NO 46 0 min 0,000 mm 0,0 UV-I 0 W/m -5,0 C -12,9 C 25,7 km/h (4 Bft) 100,00 %
26.01.2017 03:30 -2,6 C 83 % 1029,3 hPa 0,0 l/m 19,5 km/h (3 Bft) O-NO 57 0 min 0,000 mm 0,0 UV-I 0 W/m -5,1 C -12,7 C 25,7 km/h (4 Bft) 100,00 %
26.01.2017 03:32 -2,6 C 83 % 1029,3 hPa 0,0 l/m 20,8 km/h (4 Bft) O-NO 60 0 min 0,000 mm 0,0 UV-I 0 W/m -5,1 C -13,4 C 29,0 km/h (5 Bft) 100,00 %
26.01.2017 03:34 -2,6 C 83 % 1029,3 hPa 0,0 l/m 21,5 km/h (4 Bft) O-NO 61 0 min 0,000 mm 0,0 UV-I 0 W/m -5,1 C -13,7 C 29,0 km/h (5 Bft) 100,00 %
26.01.2017 03:36 -2,6 C 83 % 1029,3 hPa 0,0 l/m 19,2 km/h (3 Bft) O-NO 63 0 min 0,000 mm 0,0 UV-I 0 W/m -5,1 C -12,6 C 27,4 km/h (4 Bft) 100,00 %
26.01.2017 03:38 -2,7 C 83 % 1029,3 hPa 0,0 l/m 18,6 km/h (3 Bft) O-NO 68 0 min 0,000 mm 0,0 UV-I 0 W/m -5,2 C -12,4 C 24,1 km/h (4 Bft) 97,87 %
26.01.2017 03:40 -2,7 C 83 % 1029,3 hPa 0,0 l/m 19,2 km/h (3 Bft) NO 42 0 min 0,000 mm 0,0 UV-I 0 W/m -5,2 C -12,7 C 25,7 km/h (4 Bft) 100,00 %
26.01.2017 03:42 -2,7 C 83 % 1029,2 hPa 0,0 l/m 20,4 km/h (4 Bft) NO 51 0 min 0,000 mm 0,0 UV-I 0 W/m -5,2 C -13,3 C 24,1 km/h (4 Bft) 97,56 %
26.01.2017 03:44 -2,7 C 83 % 1029,2 hPa 0,0 l/m 23,8 km/h (4 Bft) NO 51 0 min 0,000 mm 0,0 UV-I 0 W/m -5,2 C -14,9 C 30,6 km/h (5 Bft) 98,11 %
26.01.2017 03:46 -2,7 C 83 % 1029,2 hPa 0,0 l/m 18,8 km/h (3 Bft) NO 38 0 min 0,000 mm 0,0 UV-I 0 W/m -5,2 C -12,5 C 25,7 km/h (4 Bft) 100,00 %
26.01.2017 03:48 -2,8 C 83 % 1029,1 hPa 0,0 l/m 18,3 km/h (3 Bft) O-NO 57 0 min 0,000 mm 0,0 UV-I 0 W/m -5,3 C -12,4 C 24,1 km/h (4 Bft) 100,00 %
26.01.2017 03:50 -2,8 C 83 % 1029,1 hPa 0,0 l/m 19,2 km/h (3 Bft) O-NO 72 0 min 0,000 mm 0,0 UV-I 0 W/m -5,3 C -12,8 C 27,4 km/h (4 Bft) 100,00 %
26.01.2017 03:52 -2,8 C 83 % 1029,1 hPa 0,0 l/m 18,0 km/h (3 Bft) O-NO 61 0 min 0,000 mm 0,0 UV-I 0 W/m -5,3 C -12,2 C 27,4 km/h (4 Bft) 100,00 %
26.01.2017 03:54 -2,8 C 83 % 1029,1 hPa 0,0 l/m 21,5 km/h (4 Bft) O-NO 63 0 min 0,000 mm 0,0 UV-I 0 W/m -5,3 C -14,0 C 27,4 km/h (4 Bft) 100,00 %
26.01.2017 03:56 -2,8 C 83 % 1029,1 hPa 0,0 l/m 18,7 km/h (3 Bft) NO 44 0 min 0,000 mm 0,0 UV-I 0 W/m -5,3 C -12,6 C 25,7 km/h (4 Bft) 100,00 %
26.01.2017 03:58 -2,8 C 83 % 1029,1 hPa 0,0 l/m 21,3 km/h (4 Bft) O-NO 60 0 min 0,000 mm 0,0 UV-I 0 W/m -5,3 C -13,9 C 27,4 km/h (4 Bft) 100,00 %
26.01.2017 04:00 -2,8 C 83 % 1029,2 hPa 0,0 l/m 19,1 km/h (3 Bft) O 84 0 min 0,026 mm 0,0 UV-I 0 W/m -5,3 C -12,8 C 27,4 km/h (4 Bft) 97,87 %
26.01.2017 04:02 -2,8 C 83 % 1029,1 hPa 0,0 l/m 18,7 km/h (3 Bft) O-NO 66 0 min 0,000 mm 0,0 UV-I 0 W/m -5,3 C -12,6 C 29,0 km/h (5 Bft) 100,00 %
26.01.2017 04:04 -2,8 C 83 % 1029,1 hPa 0,0 l/m 20,9 km/h (4 Bft) O 101 0 min 0,000 mm 0,0 UV-I 0 W/m -5,3 C -13,7 C 29,0 km/h (5 Bft) 100,00 %
26.01.2017 04:06 -2,8 C 83 % 1029,2 hPa 0,0 l/m 18,7 km/h (3 Bft) O-NO 76 0 min 0,000 mm 0,0 UV-I 0 W/m -5,3 C -12,6 C 25,7 km/h (4 Bft) 100,00 %
26.01.2017 04:08 -2,9 C 83 % 1029,2 hPa 0,0 l/m 20,1 km/h (4 Bft) O-NO 57 0 min 0,000 mm 0,0 UV-I 0 W/m -5,4 C -13,4 C 25,7 km/h (4 Bft) 100,00 %
26.01.2017 04:10 -2,8 C 83 % 1029,2 hPa 0,0 l/m 19,1 km/h (3 Bft) O-NO 71 0 min 0,000 mm 0,0 UV-I 0 W/m -5,3 C -12,8 C 27,4 km/h (4 Bft) 100,00 %
26.01.2017 04:12 -2,8 C 83 % 1029,2 hPa 0,0 l/m 16,8 km/h (3 Bft) O-NO 76 0 min 0,000 mm 0,0 UV-I 0 W/m -5,3 C -11,5 C 24,1 km/h (4 Bft) 100,00 %
26.01.2017 04:14 -2,9 C 83 % 1029,2 hPa 0,0 l/m 19,1 km/h (3 Bft) NO 46 0 min 0,000 mm 0,0 UV-I 0 W/m -5,4 C -12,9 C 27,4 km/h (4 Bft) 100,00 %
26.01.2017 04:16 -2,9 C 82 % 1029,1 hPa 0,0 l/m 21,2 km/h (4 Bft) NO 55 0 min 0,000 mm 0,0 UV-I 0 W/m -5,5 C -14,0 C 27,4 km/h (4 Bft) 100,00 %
26.01.2017 04:18 -3,0 C 82 % 1029,1 hPa 0,0 l/m 16,0 km/h (3 Bft) O-NO 65 0 min 0,000 mm 0,0 UV-I 0 W/m -5,6 C -11,3 C 22,5 km/h (4 Bft) 100,00 %
26.01.2017 04:20 -3,1 C 83 % 1029,1 hPa 0,0 l/m 16,5 km/h (3 Bft) O-NO 60 0 min 0,000 mm 0,0 UV-I 0 W/m -5,6 C -11,7 C 22,5 km/h (4 Bft) 100,00 %
26.01.2017 04:22 -3,1 C 83 % 1029,1 hPa 0,0 l/m 17,1 km/h (3 Bft) O-NO 72 0 min 0,000 mm 0,0 UV-I 0 W/m -5,6 C -12,0 C 20,9 km/h (4 Bft) 100,00 %
26.01.2017 04:24 -3,1 C 83 % 1029,1 hPa 0,0 l/m 17,9 km/h (3 Bft) NO 56 0 min 0,000 mm 0,0 UV-I 0 W/m -5,6 C -12,5 C 25,7 km/h (4 Bft) 100,00 %
26.01.2017 04:26 -3,1 C 83 % 1029,1 hPa 0,0 l/m 18,1 km/h (3 Bft) NO 51 0 min 0,000 mm 0,0 UV-I 0 W/m -5,6 C -12,6 C 22,5 km/h (4 Bft) 98,00 %
26.01.2017 04:28 -3,2 C 83 % 1029,1 hPa 0,0 l/m 16,1 km/h (3 Bft) O-NO 59 0 min 0,000 mm 0,0 UV-I 0 W/m -5,7 C -11,6 C 20,9 km/h (4 Bft) 100,00 %
26.01.2017 04:30 -3,2 C 83 % 1029,1 hPa 0,0 l/m 15,1 km/h (3 Bft) O-NO 57 0 min 0,000 mm 0,0 UV-I 0 W/m -5,7 C -10,9 C 19,3 km/h (3 Bft) 97,37 %
26.01.2017 04:32 -3,2 C 83 % 1029,0 hPa 0,0 l/m 15,0 km/h (3 Bft) O 89 0 min 0,000 mm 0,0 UV-I 0 W/m -5,7 C -10,9 C 20,9 km/h (4 Bft) 100,00 %
26.01.2017 04:34 -3,2 C 84 % 1029,0 hPa 0,0 l/m 14,7 km/h (3 Bft) O-NO 76 0 min 0,000 mm 0,0 UV-I 0 W/m -5,5 C -10,7 C 17,7 km/h (3 Bft) 100,00 %
26.01.2017 04:36 -3,3 C 84 % 1029,0 hPa 0,0 l/m 21,5 km/h (4 Bft) O-NO 75 0 min 0,000 mm 0,0 UV-I 0 W/m -5,6 C -14,6 C 25,7 km/h (4 Bft) 100,00 %
26.01.2017 04:38 -3,2 C 84 % 1029,0 hPa 0,0 l/m 17,9 km/h (3 Bft) O-NO 76 0 min 0,000 mm 0,0 UV-I 0 W/m -5,5 C -12,6 C 24,1 km/h (4 Bft) 98,00 %
26.01.2017 04:40 -3,2 C 84 % 1029,0 hPa 0,0 l/m 21,3 km/h (4 Bft) NO 55 0 min 0,000 mm 0,0 UV-I 0 W/m -5,5 C -14,4 C 29,0 km/h (5 Bft) 100,00 %
26.01.2017 04:42 -3,2 C 84 % 1029,0 hPa 0,0 l/m 21,5 km/h (4 Bft) NO 49 0 min 0,000 mm 0,0 UV-I 0 W/m -5,5 C -14,5 C 27,4 km/h (4 Bft) 100,00 %
26.01.2017 04:44 -3,2 C 84 % 1029,0 hPa 0,0 l/m 20,5 km/h (4 Bft) O-NO 67 0 min 0,000 mm 0,0 UV-I 0 W/m -5,5 C -14,0 C 29,0 km/h (5 Bft) 100,00 %
26.01.2017 04:46 -3,2 C 83 % 1029,0 hPa 0,0 l/m 16,7 km/h (3 Bft) O-NO 57 0 min 0,000 mm 0,0 UV-I 0 W/m -5,7 C -11,9 C 20,9 km/h (4 Bft) 100,00 %
26.01.2017 04:48 -3,2 C 83 % 1029,0 hPa 0,0 l/m 21,5 km/h (4 Bft) NO 50 0 min 0,000 mm 0,0 UV-I 0 W/m -5,7 C -14,5 C 27,4 km/h (4 Bft) 97,56 %
26.01.2017 04:50 -3,1 C 83 % 1029,1 hPa 0,0 l/m 20,8 km/h (4 Bft) O-NO 62 0 min 0,000 mm 0,0 UV-I 0 W/m -5,6 C -14,0 C 32,2 km/h (5 Bft) 96,23 %
26.01.2017 04:52 -3,1 C 83 % 1029,1 hPa 0,0 l/m 19,2 km/h (3 Bft) O 82 0 min 0,000 mm 0,0 UV-I 0 W/m -5,6 C -13,2 C 30,6 km/h (5 Bft) 98,11 %
26.01.2017 04:54 -3,1 C 83 % 1029,1 hPa 0,0 l/m 21,6 km/h (4 Bft) NO 49 0 min 0,000 mm 0,0 UV-I 0 W/m -5,6 C -14,4 C 30,6 km/h (5 Bft) 97,14 %
26.01.2017 04:56 -3,1 C 83 % 1029,1 hPa 0,0 l/m 18,4 km/h (3 Bft) O-NO 72 0 min 0,000 mm 0,0 UV-I 0 W/m -5,6 C -12,8 C 24,1 km/h (4 Bft) 98,00 %
26.01.2017 04:58 -3,1 C 83 % 1029,1 hPa 0,0 l/m 20,8 km/h (4 Bft) O-NO 65 0 min 0,000 mm 0,0 UV-I 0 W/m -5,6 C -14,0 C 29,0 km/h (5 Bft) 98,00 %
26.01.2017 05:00 -3,1 C 82 % 1029,1 hPa 0,0 l/m 23,4 km/h (4 Bft) NO 45 0 min 0,000 mm 0,0 UV-I 0 W/m -5,7 C -15,2 C 30,6 km/h (5 Bft) 98,00 %
26.01.2017 05:02 -3,1 C 82 % 1029,0 hPa 0,0 l/m 21,1 km/h (4 Bft) O-NO 59 0 min 0,025 mm 0,0 UV-I 0 W/m -5,7 C -14,2 C 25,7 km/h (4 Bft) 97,56 %
26.01.2017 05:04 -3,1 C 82 % 1029,1 hPa 0,0 l/m 20,7 km/h (4 Bft) O-NO 74 0 min 0,000 mm 0,0 UV-I 0 W/m -5,7 C -14,0 C 30,6 km/h (5 Bft) 98,11 %
26.01.2017 05:06 -3,0 C 82 % 1029,0 hPa 0,0 l/m 22,0 km/h (4 Bft) O 80 0 min 0,000 mm 0,0 UV-I 0 W/m -5,6 C -14,5 C 30,6 km/h (5 Bft) 97,56 %
26.01.2017 05:08 -3,0 C 82 % 1029,0 hPa 0,0 l/m 24,0 km/h (4 Bft) O-NO 61 0 min 0,000 mm 0,0 UV-I 0 W/m -5,6 C -15,4 C 30,6 km/h (5 Bft) 96,23 %
26.01.2017 05:10 -3,0 C 82 % 1028,9 hPa 0,0 l/m 25,9 km/h (4 Bft) NO 44 0 min 0,000 mm 0,0 UV-I 0 W/m -5,6 C -16,1 C 33,8 km/h (5 Bft) 94,74 %
26.01.2017 05:12 -2,9 C 82 % 1028,8 hPa 0,0 l/m 23,6 km/h (4 Bft) O-NO 65 0 min 0,000 mm 0,0 UV-I 0 W/m -5,5 C -15,1 C 32,2 km/h (5 Bft) 96,00 %
26.01.2017 05:14 -3,0 C 82 % 1028,8 hPa 0,0 l/m 24,9 km/h (4 Bft) O-NO 61 0 min 0,000 mm 0,0 UV-I 0 W/m -5,6 C -15,7 C 33,8 km/h (5 Bft) 98,00 %
26.01.2017 05:16 -3,0 C 82 % 1028,8 hPa 0,0 l/m 24,5 km/h (4 Bft) NO 49 0 min 0,000 mm 0,0 UV-I 0 W/m -5,6 C -15,6 C 32,2 km/h (5 Bft) 97,56 %
26.01.2017 05:18 -3,0 C 82 % 1028,8 hPa 0,0 l/m 29,6 km/h (5 Bft) NO 53 0 min 0,000 mm 0,0 UV-I 0 W/m -5,6 C -17,5 C 35,4 km/h (5 Bft) 97,56 %
26.01.2017 05:20 -3,0 C 82 % 1028,8 hPa 0,0 l/m 26,0 km/h (4 Bft) O-NO 58 0 min 0,000 mm 0,0 UV-I 0 W/m -5,6 C -16,2 C 37,0 km/h (5 Bft) 96,43 %
26.01.2017 05:22 -3,0 C 82 % 1028,7 hPa 0,0 l/m 27,0 km/h (4 Bft) O-NO 62 0 min 0,000 mm 0,0 UV-I 0 W/m -5,6 C -16,6 C 38,6 km/h (5 Bft) 96,67 %
26.01.2017 05:24 -3,0 C 82 % 1028,7 hPa 0,0 l/m 28,9 km/h (5 Bft) O 90 0 min 0,000 mm 0,0 UV-I 0 W/m -5,6 C -17,3 C 37,0 km/h (5 Bft) 100,00 %
26.01.2017 05:26 -3,0 C 82 % 1028,8 hPa 0,0 l/m 27,1 km/h (4 Bft) O-NO 69 0 min 0,000 mm 0,0 UV-I 0 W/m -5,6 C -16,6 C 35,4 km/h (5 Bft) 95,92 %
26.01.2017 05:28 -3,0 C 82 % 1028,8 hPa 0,0 l/m 23,8 km/h (4 Bft) O-NO 63 0 min 0,000 mm 0,0 UV-I 0 W/m -5,6 C -15,3 C 32,2 km/h (5 Bft) 100,00 %
26.01.2017 05:30 -3,0 C 82 % 1028,8 hPa 0,0 l/m 25,2 km/h (4 Bft) O 80 0 min 0,000 mm 0,0 UV-I 0 W/m -5,6 C -15,9 C 33,8 km/h (5 Bft) 98,39 %
26.01.2017 05:32 -3,1 C 82 % 1028,8 hPa 0,0 l/m 24,1 km/h (4 Bft) O-NO 71 0 min 0,000 mm 0,0 UV-I 0 W/m -5,7 C -15,5 C 35,4 km/h (5 Bft) 100,00 %
26.01.2017 05:34 -3,1 C 82 % 1028,8 hPa 0,0 l/m 33,3 km/h (5 Bft) O-NO 64 0 min 0,000 mm 0,0 UV-I 0 W/m -5,7 C -18,8 C 45,1 km/h (6 Bft) 100,00 %
26.01.2017 05:36 -3,1 C 82 % 1028,8 hPa 0,0 l/m 26,7 km/h (4 Bft) O-NO 69 0 min 0,000 mm 0,0 UV-I 0 W/m -5,7 C -16,6 C 38,6 km/h (5 Bft) 97,73 %
26.01.2017 05:38 -3,1 C 82 % 1028,8 hPa 0,0 l/m 28,3 km/h (4 Bft) NO 56 0 min 0,000 mm 0,0 UV-I 0 W/m -5,7 C -17,2 C 40,2 km/h (6 Bft) 100,00 %
26.01.2017 05:40 -3,1 C 81 % 1028,8 hPa 0,0 l/m 31,0 km/h (5 Bft) O-NO 64 0 min 0,000 mm 0,0 UV-I 0 W/m -5,9 C -18,1 C 43,5 km/h (6 Bft) 97,87 %
26.01.2017 05:42 -3,1 C 81 % 1028,8 hPa 0,0 l/m 30,1 km/h (5 Bft) O-NO 69 0 min 0,000 mm 0,0 UV-I 0 W/m -5,9 C -17,8 C 45,1 km/h (6 Bft) 100,00 %
26.01.2017 05:44 -3,1 C 81 % 1028,8 hPa 0,0 l/m 29,1 km/h (5 Bft) O 94 0 min 0,000 mm 0,0 UV-I 0 W/m -5,9 C -17,5 C 38,6 km/h (5 Bft) 97,56 %
26.01.2017 05:46 -3,1 C 81 % 1028,8 hPa 0,0 l/m 24,3 km/h (4 Bft) O-NO 78 0 min 0,000 mm 0,0 UV-I 0 W/m -5,9 C -15,6 C 35,4 km/h (5 Bft) 100,00 %
26.01.2017 05:48 -3,1 C 81 % 1028,9 hPa 0,0 l/m 23,0 km/h (4 Bft) O-NO 63 0 min 0,000 mm 0,0 UV-I 0 W/m -5,9 C -15,1 C 32,2 km/h (5 Bft) 100,00 %
26.01.2017 05:50 -3,1 C 81 % 1028,8 hPa 0,0 l/m 26,6 km/h (4 Bft) O-NO 74 0 min 0,000 mm 0,0 UV-I 0 W/m -5,9 C -16,6 C 46,7 km/h (6 Bft) 100,00 %
26.01.2017 05:52 -3,2 C 81 % 1028,8 hPa 0,0 l/m 30,5 km/h (5 Bft) O 82 0 min 0,000 mm 0,0 UV-I 0 W/m -6,0 C -18,1 C 41,8 km/h (6 Bft) 100,00 %
26.01.2017 05:54 -3,2 C 81 % 1028,8 hPa 0,0 l/m 27,1 km/h (4 Bft) NO 39 0 min 0,000 mm 0,0 UV-I 0 W/m -6,0 C -16,9 C 40,2 km/h (6 Bft) 100,00 %
26.01.2017 05:56 -3,2 C 82 % 1028,8 hPa 0,0 l/m 25,9 km/h (4 Bft) O-NO 61 0 min 0,000 mm 0,0 UV-I 0 W/m -5,8 C -16,4 C 37,0 km/h (5 Bft) 100,00 %
26.01.2017 05:58 -3,2 C 82 % 1028,8 hPa 0,0 l/m 29,0 km/h (5 Bft) O-NO 67 0 min 0,000 mm 0,0 UV-I 0 W/m -5,8 C -17,6 C 38,6 km/h (5 Bft) 100,00 %
26.01.2017 06:00 -3,2 C 82 % 1028,8 hPa 0,0 l/m 26,6 km/h (4 Bft) O-NO 67 0 min 0,025 mm 0,0 UV-I 0 W/m -5,8 C -16,7 C 35,4 km/h (5 Bft) 100,00 %
26.01.2017 06:02 -3,2 C 81 % 1028,8 hPa 0,0 l/m 25,9 km/h (4 Bft) O-NO 71 0 min 0,000 mm 0,0 UV-I 0 W/m -6,0 C -16,4 C 37,0 km/h (5 Bft) 100,00 %
26.01.2017 06:04 -3,2 C 81 % 1028,8 hPa 0,0 l/m 22,9 km/h (4 Bft) NO 48 0 min 0,000 mm 0,0 UV-I 0 W/m -6,0 C -15,2 C 32,2 km/h (5 Bft) 100,00 %
26.01.2017 06:06 -3,1 C 82 % 1028,8 hPa 0,0 l/m 20,7 km/h (4 Bft) O 80 0 min 0,000 mm 0,0 UV-I 0 W/m -5,7 C -14,0 C 25,7 km/h (4 Bft) 92,86 %
26.01.2017 06:08 -3,2 C 82 % 1028,8 hPa 0,0 l/m 22,1 km/h (4 Bft) O-NO 60 0 min 0,000 mm 0,0 UV-I 0 W/m -5,8 C -14,8 C 32,2 km/h (5 Bft) 97,87 %
26.01.2017 06:10 -3,1 C 82 % 1028,8 hPa 0,0 l/m 23,0 km/h (4 Bft) O-NO 77 0 min 0,000 mm 0,0 UV-I 0 W/m -5,7 C -15,1 C 30,6 km/h (5 Bft) 96,00 %
26.01.2017 06:12 -3,2 C 82 % 1028,8 hPa 0,0 l/m 20,0 km/h (4 Bft) O 86 0 min 0,000 mm 0,0 UV-I 0 W/m -5,8 C -13,8 C 30,6 km/h (5 Bft) 98,00 %
26.01.2017 06:14 -3,2 C 82 % 1028,8 hPa 0,0 l/m 18,5 km/h (3 Bft) O 82 0 min 0,000 mm 0,0 UV-I 0 W/m -5,8 C -13,0 C 27,4 km/h (4 Bft) 95,12 %
26.01.2017 06:16 -3,2 C 82 % 1028,8 hPa 0,0 l/m 18,8 km/h (3 Bft) O-NO 67 0 min 0,000 mm 0,0 UV-I 0 W/m -5,8 C -13,1 C 29,0 km/h (5 Bft) 96,23 %
26.01.2017 06:18 -3,2 C 82 % 1028,8 hPa 0,0 l/m 26,4 km/h (4 Bft) O-SO 107 0 min 0,000 mm 0,0 UV-I 0 W/m -5,8 C -16,6 C 37,0 km/h (5 Bft) 97,56 %
26.01.2017 06:20 -3,1 C 82 % 1028,8 hPa 0,0 l/m 26,3 km/h (4 Bft) O-NO 65 0 min 0,000 mm 0,0 UV-I 0 W/m -5,7 C -16,4 C 37,0 km/h (5 Bft) 97,56 %
26.01.2017 06:22 -3,1 C 81 % 1028,8 hPa 0,0 l/m 24,0 km/h (4 Bft) O-NO 63 0 min 0,000 mm 0,0 UV-I 0 W/m -5,9 C -15,5 C 30,6 km/h (5 Bft) 96,23 %
26.01.2017 06:24 -3,1 C 81 % 1028,7 hPa 0,0 l/m 23,3 km/h (4 Bft) O-NO 58 0 min 0,000 mm 0,0 UV-I 0 W/m -5,9 C -15,2 C 30,6 km/h (5 Bft) 98,00 %
26.01.2017 06:26 -3,1 C 81 % 1028,8 hPa 0,0 l/m 21,6 km/h (4 Bft) O-NO 69 0 min 0,000 mm 0,0 UV-I 0 W/m -5,9 C -14,4 C 32,2 km/h (5 Bft) 94,74 %
26.01.2017 06:28 -3,1 C 81 % 1028,8 hPa 0,0 l/m 15,7 km/h (3 Bft) O-NO 68 0 min 0,000 mm 0,0 UV-I 0 W/m -5,9 C -11,2 C 20,9 km/h (4 Bft) 94,92 %
26.01.2017 06:30 -3,1 C 81 % 1028,8 hPa 0,0 l/m 19,3 km/h (3 Bft) O-NO 68 0 min 0,000 mm 0,0 UV-I 0 W/m -5,9 C -13,3 C 27,4 km/h (4 Bft) 97,73 %
26.01.2017 06:32 -3,1 C 81 % 1028,7 hPa 0,0 l/m 19,5 km/h (3 Bft) O 86 0 min 0,000 mm 0,0 UV-I 0 W/m -5,9 C -13,4 C 25,7 km/h (4 Bft) 97,56 %
26.01.2017 06:34 -3,2 C 81 % 1028,7 hPa 0,0 l/m 20,7 km/h (4 Bft) NO 53 0 min 0,000 mm 0,0 UV-I 0 W/m -6,0 C -14,1 C 29,0 km/h (5 Bft) 98,11 %
26.01.2017 06:36 -3,2 C 81 % 1028,6 hPa 0,0 l/m 16,7 km/h (3 Bft) O-NO 66 0 min 0,000 mm 0,0 UV-I 0 W/m -6,0 C -11,9 C 20,9 km/h (4 Bft) 97,56 %
26.01.2017 06:38 -3,2 C 81 % 1028,6 hPa 0,0 l/m 19,1 km/h (3 Bft) O-NO 65 0 min 0,000 mm 0,0 UV-I 0 W/m -6,0 C -13,3 C 27,4 km/h (4 Bft) 97,87 %
26.01.2017 06:40 -3,2 C 81 % 1028,6 hPa 0,0 l/m 17,7 km/h (3 Bft) O-NO 71 0 min 0,000 mm 0,0 UV-I 0 W/m -6,0 C -12,5 C 25,7 km/h (4 Bft) 98,00 %
26.01.2017 06:42 -3,3 C 81 % 1028,6 hPa 0,0 l/m 17,5 km/h (3 Bft) O-NO 74 0 min 0,000 mm 0,0 UV-I 0 W/m -6,1 C -12,5 C 22,5 km/h (4 Bft) 97,44 %
26.01.2017 06:44 -3,3 C 82 % 1028,6 hPa 0,0 l/m 16,3 km/h (3 Bft) O 80 0 min 0,000 mm 0,0 UV-I 0 W/m -5,9 C -11,8 C 24,1 km/h (4 Bft) 98,18 %
26.01.2017 06:46 -3,3 C 81 % 1028,7 hPa 0,0 l/m 18,1 km/h (3 Bft) NO 54 0 min 0,000 mm 0,0 UV-I 0 W/m -6,1 C -12,9 C 24,1 km/h (4 Bft) 95,74 %
26.01.2017 06:48 -3,4 C 81 % 1028,6 hPa 0,0 l/m 16,2 km/h (3 Bft) O 82 0 min 0,000 mm 0,0 UV-I 0 W/m -6,2 C -11,9 C 24,1 km/h (4 Bft) 97,44 %
26.01.2017 06:50 -3,4 C 82 % 1028,7 hPa 0,0 l/m 15,3 km/h (3 Bft) O-NO 74 0 min 0,000 mm 0,0 UV-I 0 W/m -6,0 C -11,3 C 20,9 km/h (4 Bft) 98,11 %
26.01.2017 06:52 -3,5 C 82 % 1028,6 hPa 0,0 l/m 17,2 km/h (3 Bft) O-NO 78 0 min 0,000 mm 0,0 UV-I 0 W/m -6,1 C -12,6 C 22,5 km/h (4 Bft) 97,87 %
26.01.2017 06:54 -3,6 C 82 % 1028,6 hPa 0,0 l/m 16,0 km/h (3 Bft) O-NO 78 0 min 0,000 mm 0,0 UV-I 0 W/m -6,2 C -12,0 C 22,5 km/h (4 Bft) 95,74 %
26.01.2017 06:56 -3,6 C 82 % 1028,6 hPa 0,0 l/m 15,3 km/h (3 Bft) O 82 0 min 0,000 mm 0,0 UV-I 0 W/m -6,2 C -11,5 C 20,9 km/h (4 Bft) 94,34 %
26.01.2017 06:58 -3,6 C 82 % 1028,6 hPa 0,0 l/m 14,5 km/h (3 Bft) NO 47 0 min 0,000 mm 0,0 UV-I 0 W/m -6,2 C -11,0 C 20,9 km/h (4 Bft) 92,31 %
26.01.2017 07:00 -3,7 C 82 % 1028,6 hPa 0,0 l/m 16,4 km/h (3 Bft) O-NO 69 0 min 0,026 mm 0,0 UV-I 0 W/m -6,3 C -12,4 C 24,1 km/h (4 Bft) 94,12 %
26.01.2017 07:02 -3,7 C 82 % 1028,6 hPa 0,0 l/m 15,8 km/h (3 Bft) O-NO 63 0 min 0,000 mm 0,0 UV-I 0 W/m -6,3 C -12,0 C 20,9 km/h (4 Bft) 94,74 %
26.01.2017 07:04 -3,8 C 82 % 1028,6 hPa 0,0 l/m 14,7 km/h (3 Bft) O-NO 59 0 min 0,000 mm 0,0 UV-I 0 W/m -6,4 C -11,4 C 22,5 km/h (4 Bft) 96,23 %
26.01.2017 07:06 -3,8 C 83 % 1028,6 hPa 0,0 l/m 13,4 km/h (3 Bft) O-NO 57 0 min 0,000 mm 0,0 UV-I 0 W/m -6,3 C -10,5 C 17,7 km/h (3 Bft) 92,11 %
26.01.2017 07:08 -3,8 C 83 % 1028,6 hPa 0,0 l/m 12,6 km/h (3 Bft) O-NO 77 0 min 0,000 mm 0,0 UV-I 0 W/m -6,3 C -9,9 C 16,1 km/h (3 Bft) 94,00 %
26.01.2017 07:10 -3,9 C 83 % 1028,6 hPa 0,0 l/m 10,7 km/h (2 Bft) O-NO 57 0 min 0,000 mm 0,0 UV-I 0 W/m -6,4 C -8,4 C 14,5 km/h (3 Bft) 90,00 %
26.01.2017 07:12 -4,0 C 83 % 1028,6 hPa 0,0 l/m 12,5 km/h (3 Bft) NO 51 0 min 0,000 mm 0,0 UV-I 0 W/m -6,4 C -10,0 C 20,9 km/h (4 Bft) 95,74 %
26.01.2017 07:14 -4,1 C 83 % 1028,6 hPa 0,0 l/m 13,4 km/h (3 Bft) O-NO 69 0 min 0,000 mm 0,0 UV-I 0 W/m -6,5 C -10,8 C 20,9 km/h (4 Bft) 96,00 %
26.01.2017 07:16 -4,1 C 84 % 1028,6 hPa 0,0 l/m 15,1 km/h (3 Bft) NO 50 0 min 0,000 mm 0,0 UV-I 0 W/m -6,4 C -12,0 C 19,3 km/h (3 Bft) 92,68 %
26.01.2017 07:18 -4,1 C 84 % 1028,6 hPa 0,0 l/m 14,0 km/h (3 Bft) O-NO 76 0 min 0,000 mm 0,0 UV-I 0 W/m -6,4 C -11,3 C 17,7 km/h (3 Bft) 94,00 %
26.01.2017 07:20 -4,1 C 84 % 1028,7 hPa 0,0 l/m 14,4 km/h (3 Bft) O-NO 61 0 min 0,000 mm 0,0 UV-I 0 W/m -6,4 C -11,5 C 22,5 km/h (4 Bft) 95,12 %
26.01.2017 07:22 -4,1 C 84 % 1028,7 hPa 0,0 l/m 14,1 km/h (3 Bft) NO 55 0 min 0,000 mm 0,0 UV-I 0 W/m -6,4 C -11,3 C 20,9 km/h (4 Bft) 96,00 %
26.01.2017 07:24 -4,1 C 84 % 1028,7 hPa 0,0 l/m 14,9 km/h (3 Bft) O-NO 63 0 min 0,000 mm 0,0 UV-I 3 W/m -6,4 C -11,9 C 20,9 km/h (4 Bft) 95,74 %
26.01.2017 07:26 -4,2 C 84 % 1028,7 hPa 0,0 l/m 14,0 km/h (3 Bft) NO 42 0 min 0,000 mm 0,0 UV-I 5 W/m -6,5 C -11,4 C 19,3 km/h (3 Bft) 74,47 %
26.01.2017 07:28 -4,2 C 85 % 1028,8 hPa 0,0 l/m 15,5 km/h (3 Bft) NO 49 0 min 0,000 mm 0,0 UV-I 5 W/m -6,3 C -12,4 C 20,9 km/h (4 Bft) 84,91 %
26.01.2017 07:30 -4,2 C 85 % 1028,8 hPa 0,0 l/m 12,9 km/h (3 Bft) NO 53 0 min 0,000 mm 0,0 UV-I 5 W/m -6,3 C -10,6 C 16,1 km/h (3 Bft) 76,92 %
26.01.2017 07:32 -4,3 C 85 % 1028,8 hPa 0,0 l/m 13,8 km/h (3 Bft) O 83 0 min 0,000 mm 0,0 UV-I 5 W/m -6,4 C -11,3 C 19,3 km/h (3 Bft) 71,70 %
26.01.2017 07:34 -4,3 C 85 % 1028,7 hPa 0,0 l/m 12,7 km/h (3 Bft) O-NO 74 0 min 0,000 mm 0,0 UV-I 7 W/m -6,4 C -10,5 C 17,7 km/h (3 Bft) 86,36 %
26.01.2017 07:36 -4,4 C 85 % 1028,8 hPa 0,0 l/m 13,9 km/h (3 Bft) O-NO 67 0 min 0,000 mm 0,0 UV-I 7 W/m -6,5 C -11,5 C 19,3 km/h (3 Bft) 97,56 %
26.01.2017 07:38 -4,4 C 86 % 1028,7 hPa 0,0 l/m 13,6 km/h (3 Bft) O-NO 78 0 min 0,000 mm 0,0 UV-I 7 W/m -6,4 C -11,3 C 22,5 km/h (4 Bft) 95,74 %
26.01.2017 07:40 -4,4 C 86 % 1028,8 hPa 0,0 l/m 14,8 km/h (3 Bft) O-NO 71 0 min 0,000 mm 0,0 UV-I 9 W/m -6,4 C -12,2 C 20,9 km/h (4 Bft) 95,74 %
26.01.2017 07:42 -4,4 C 86 % 1028,7 hPa 0,0 l/m 18,0 km/h (3 Bft) O 82 0 min 0,000 mm 0,0 UV-I 9 W/m -6,4 C -14,2 C 24,1 km/h (4 Bft) 96,43 %
26.01.2017 07:44 -4,5 C 87 % 1028,7 hPa 0,0 l/m 17,2 km/h (3 Bft) O-NO 73 0 min 0,000 mm 0,0 UV-I 11 W/m -6,3 C -13,9 C 20,9 km/h (4 Bft) 87,80 %
26.01.2017 07:46 -4,5 C 87 % 1028,7 hPa 0,0 l/m 18,5 km/h (3 Bft) O 84 0 min 0,000 mm 0,0 UV-I 11 W/m -6,3 C -14,6 C 25,7 km/h (4 Bft) 92,00 %
26.01.2017 07:48 -4,4 C 87 % 1028,7 hPa 0,0 l/m 16,2 km/h (3 Bft) O 96 0 min 0,000 mm 0,0 UV-I 12 W/m -6,2 C -13,1 C 22,5 km/h (4 Bft) 97,67 %
26.01.2017 07:50 -4,5 C 87 % 1028,6 hPa 0,0 l/m 16,1 km/h (3 Bft) O 88 0 min 0,000 mm 0,0 UV-I 14 W/m -6,3 C -13,2 C 22,5 km/h (4 Bft) 97,87 %
26.01.2017 07:52 -4,5 C 87 % 1028,6 hPa 0,0 l/m 16,5 km/h (3 Bft) O-NO 74 2 min 0,000 mm 0,0 UV-I 16 W/m -6,3 C -13,4 C 20,9 km/h (4 Bft) 97,87 %
26.01.2017 07:54 -4,6 C 87 % 1028,6 hPa 0,0 l/m 15,5 km/h (3 Bft) O 89 2 min 0,000 mm 0,0 UV-I 18 W/m -6,4 C -12,9 C 20,9 km/h (4 Bft) 96,00 %
26.01.2017 07:56 -4,6 C 87 % 1028,7 hPa 0,0 l/m 17,1 km/h (3 Bft) O 83 2 min 0,000 mm 0,0 UV-I 19 W/m -6,4 C -13,9 C 20,9 km/h (4 Bft) 95,12 %
26.01.2017 07:58 -4,7 C 87 % 1028,6 hPa 0,0 l/m 17,5 km/h (3 Bft) O-NO 66 2 min 0,000 mm 0,0 UV-I 21 W/m -6,5 C -14,3 C 25,7 km/h (4 Bft) 91,07 %
26.01.2017 08:00 -4,7 C 87 % 1028,7 hPa 0,0 l/m 17,2 km/h (3 Bft) O-NO 61 2 min 0,025 mm 0,0 UV-I 22 W/m -6,5 C -14,1 C 25,7 km/h (4 Bft) 95,12 %
26.01.2017 08:02 -4,7 C 87 % 1028,7 hPa 0,0 l/m 16,4 km/h (3 Bft) NO 52 2 min 0,000 mm 0,0 UV-I 25 W/m -6,5 C -13,6 C 24,1 km/h (4 Bft) 94,00 %
26.01.2017 08:04 -4,7 C 87 % 1028,6 hPa 0,0 l/m 18,8 km/h (3 Bft) O-NO 72 0 min 0,000 mm 0,0 UV-I 27 W/m -6,5 C -15,0 C 24,1 km/h (4 Bft) 93,62 %
26.01.2017 08:06 -4,6 C 87 % 1028,6 hPa 0,0 l/m 20,3 km/h (4 Bft) O-NO 69 2 min 0,000 mm 0,0 UV-I 31 W/m -6,4 C -15,7 C 27,4 km/h (4 Bft) 97,22 %
26.01.2017 08:08 -4,6 C 87 % 1028,6 hPa 0,0 l/m 16,6 km/h (3 Bft) O 81 2 min 0,000 mm 0,0 UV-I 40 W/m -6,4 C -13,6 C 22,5 km/h (4 Bft) 98,00 %
26.01.2017 08:10 -4,7 C 87 % 1028,6 hPa 0,0 l/m 17,6 km/h (3 Bft) O-NO 75 2 min 0,000 mm 0,0 UV-I 43 W/m -6,5 C -14,3 C 25,7 km/h (4 Bft) 96,23 %
26.01.2017 08:12 -4,6 C 87 % 1028,5 hPa 0,0 l/m 16,6 km/h (3 Bft) NO 54 2 min 0,000 mm 0,0 UV-I 47 W/m -6,4 C -13,6 C 22,5 km/h (4 Bft) 95,12 %
26.01.2017 08:14 -4,7 C 87 % 1028,6 hPa 0,0 l/m 16,5 km/h (3 Bft) O-NO 61 2 min 0,000 mm 0,0 UV-I 52 W/m -6,5 C -13,7 C 20,9 km/h (4 Bft) 98,21 %
26.01.2017 08:16 -4,7 C 87 % 1028,6 hPa 0,0 l/m 17,6 km/h (3 Bft) O-NO 64 2 min 0,000 mm 0,0 UV-I 54 W/m -6,5 C -14,3 C 27,4 km/h (4 Bft) 97,14 %
26.01.2017 08:18 -4,6 C 88 % 1028,6 hPa 0,0 l/m 17,0 km/h (3 Bft) NO 51 2 min 0,000 mm 0,0 UV-I 58 W/m -6,3 C -13,9 C 20,9 km/h (4 Bft) 100,00 %
26.01.2017 08:20 -4,6 C 87 % 1028,6 hPa 0,0 l/m 14,5 km/h (3 Bft) NO 53 2 min 0,000 mm 0,0 UV-I 62 W/m -6,4 C -12,2 C 19,3 km/h (3 Bft) 91,49 %
26.01.2017 08:22 -4,7 C 87 % 1028,6 hPa 0,0 l/m 13,3 km/h (3 Bft) O-NO 71 2 min 0,000 mm 0,0 UV-I 67 W/m -6,5 C -11,4 C 19,3 km/h (3 Bft) 94,00 %
26.01.2017 08:24 -4,7 C 87 % 1028,5 hPa 0,0 l/m 13,7 km/h (3 Bft) O-NO 60 2 min 0,000 mm 0,0 UV-I 69 W/m -6,5 C -11,7 C 19,3 km/h (3 Bft) 85,11 %
26.01.2017 08:26 -4,7 C 87 % 1028,5 hPa 0,0 l/m 17,6 km/h (3 Bft) NO 55 2 min 0,000 mm 0,0 UV-I 73 W/m -6,5 C -14,3 C 24,1 km/h (4 Bft) 74,29 %
26.01.2017 08:28 -4,7 C 88 % 1028,5 hPa 0,0 l/m 14,2 km/h (3 Bft) NO 48 2 min 0,000 mm 0,0 UV-I 79 W/m -6,4 C -12,1 C 20,9 km/h (4 Bft) 94,64 %
26.01.2017 08:30 -4,7 C 88 % 1028,5 hPa 0,0 l/m 15,0 km/h (3 Bft) NO 44 2 min 0,000 mm 0,0 UV-I 83 W/m -6,4 C -12,7 C 20,9 km/h (4 Bft) 100,00 %
26.01.2017 08:32 -4,7 C 88 % 1028,5 hPa 0,0 l/m 17,2 km/h (3 Bft) O 85 2 min 0,000 mm 0,0 UV-I 88 W/m -6,4 C -14,1 C 25,7 km/h (4 Bft) 96,00 %
26.01.2017 08:34 -4,6 C 88 % 1028,5 hPa 0,0 l/m 15,9 km/h (3 Bft) O-NO 74 2 min 0,000 mm 0,0 UV-I 91 W/m -6,3 C -13,2 C 24,1 km/h (4 Bft) 94,00 %
26.01.2017 08:36 -4,6 C 88 % 1028,5 hPa 0,0 l/m 15,4 km/h (3 Bft) O-NO 71 2 min 0,000 mm 0,0 UV-I 96 W/m -6,3 C -12,8 C 19,3 km/h (3 Bft) 100,00 %
26.01.2017 08:39 -4,6 C 87 % 1028,5 hPa 0,0 l/m 14,5 km/h (3 Bft) O-NO 69 3 min 0,000 mm 0,0 UV-I 101 W/m -6,4 C -12,2 C 22,5 km/h (4 Bft) 100,00 %
26.01.2017 08:40 -4,6 C 87 % 1028,5 hPa 0,0 l/m 17,7 km/h (3 Bft) O-NO 61 1 min 0,000 mm 0,0 UV-I 104 W/m -6,4 C -14,3 C 22,5 km/h (4 Bft) 100,00 %
26.01.2017 08:42 -4,6 C 88 % 1028,6 hPa 0,0 l/m 16,9 km/h (3 Bft) O-NO 67 2 min 0,000 mm 0,0 UV-I 108 W/m -6,3 C -13,8 C 22,5 km/h (4 Bft) 100,00 %
26.01.2017 08:44 -4,6 C 87 % 1028,6 hPa 0,0 l/m 13,0 km/h (3 Bft) O-NO 63 2 min 0,000 mm 0,0 UV-I 112 W/m -6,4 C -11,1 C 20,9 km/h (4 Bft) 100,00 %
26.01.2017 08:46 -4,6 C 87 % 1028,5 hPa 0,0 l/m 13,1 km/h (3 Bft) NO 49 2 min 0,000 mm 0,0 UV-I 115 W/m -6,4 C -11,2 C 19,3 km/h (3 Bft) 100,00 %
26.01.2017 08:48 -4,6 C 87 % 1028,5 hPa 0,0 l/m 16,9 km/h (3 Bft) NO 45 2 min 0,000 mm 0,0 UV-I 120 W/m -6,4 C -13,8 C 20,9 km/h (4 Bft) 100,00 %
26.01.2017 08:50 -4,6 C 87 % 1028,5 hPa 0,0 l/m 14,1 km/h (3 Bft) O-NO 75 2 min 0,000 mm 0,0 UV-I 124 W/m -6,4 C -11,9 C 19,3 km/h (3 Bft) 100,00 %
26.01.2017 08:52 -4,6 C 87 % 1028,5 hPa 0,0 l/m 12,4 km/h (3 Bft) O-NO 61 2 min 0,000 mm 0,0 UV-I 127 W/m -6,4 C -10,6 C 19,3 km/h (3 Bft) 100,00 %
26.01.2017 08:54 -4,6 C 87 % 1028,5 hPa 0,0 l/m 13,7 km/h (3 Bft) NO 51 2 min 0,000 mm 0,0 UV-I 132 W/m -6,4 C -11,6 C 19,3 km/h (3 Bft) 96,23 %
26.01.2017 08:56 -4,6 C 88 % 1028,4 hPa 0,0 l/m 16,0 km/h (3 Bft) NO 55 2 min 0,000 mm 0,0 UV-I 138 W/m -6,3 C -13,2 C 22,5 km/h (4 Bft) 100,00 %
26.01.2017 08:58 -4,6 C 87 % 1028,5 hPa 0,0 l/m 15,8 km/h (3 Bft) NO 48 2 min 0,000 mm 0,0 UV-I 143 W/m -6,4 C -13,1 C 20,9 km/h (4 Bft) 96,23 %
26.01.2017 09:00 -4,6 C 87 % 1028,5 hPa 0,0 l/m 17,3 km/h (3 Bft) O-NO 65 2 min 0,000 mm 0,0 UV-I 148 W/m -6,4 C -14,0 C 20,9 km/h (4 Bft) 98,21 %
26.01.2017 09:02 -4,6 C 87 % 1028,5 hPa 0,0 l/m 15,6 km/h (3 Bft) O-NO 58 2 min 0,026 mm 0,0 UV-I 150 W/m -6,4 C -13,0 C 22,5 km/h (4 Bft) 97,37 %
26.01.2017 09:04 -4,6 C 87 % 1028,5 hPa 0,0 l/m 17,7 km/h (3 Bft) O-NO 64 2 min 0,000 mm 0,0 UV-I 155 W/m -6,4 C -14,3 C 25,7 km/h (4 Bft) 98,11 %
26.01.2017 09:06 -4,5 C 87 % 1028,5 hPa 0,0 l/m 19,5 km/h (3 Bft) O-NO 69 2 min 0,000 mm 0,0 UV-I 160 W/m -6,3 C -15,2 C 29,0 km/h (5 Bft) 97,87 %
26.01.2017 09:08 -4,5 C 87 % 1028,5 hPa 0,0 l/m 16,4 km/h (3 Bft) NO 49 2 min 0,000 mm 0,0 UV-I 162 W/m -6,3 C -13,4 C 25,7 km/h (4 Bft) 97,56 %
26.01.2017 09:10 -4,4 C 87 % 1028,4 hPa 0,0 l/m 17,8 km/h (3 Bft) O-NO 61 2 min 0,000 mm 0,0 UV-I 166 W/m -6,2 C -14,1 C 22,5 km/h (4 Bft) 97,87 %
26.01.2017 09:12 -4,4 C 87 % 1028,5 hPa 0,0 l/m 19,0 km/h (3 Bft) NO 51 2 min 0,000 mm 0,0 UV-I 172 W/m -6,2 C -14,8 C 27,4 km/h (4 Bft) 96,43 %
26.01.2017 09:14 -4,4 C 87 % 1028,5 hPa 0,0 l/m 17,1 km/h (3 Bft) O-NO 57 2 min 0,000 mm 0,0 UV-I 175 W/m -6,2 C -13,7 C 22,5 km/h (4 Bft) 97,73 %
26.01.2017 09:16 -4,4 C 87 % 1028,5 hPa 0,0 l/m 18,3 km/h (3 Bft) NO 47 2 min 0,000 mm 0,0 UV-I 182 W/m -6,2 C -14,4 C 25,7 km/h (4 Bft) 97,73 %
26.01.2017 09:18 -4,4 C 87 % 1028,5 hPa 0,0 l/m 18,3 km/h (3 Bft) NO 52 2 min 0,000 mm 0,0 UV-I 184 W/m -6,2 C -14,4 C 27,4 km/h (4 Bft) 98,11 %
26.01.2017 09:20 -4,4 C 87 % 1028,5 hPa 0,0 l/m 21,4 km/h (4 Bft) O-NO 62 2 min 0,000 mm 0,0 UV-I 187 W/m -6,2 C -16,0 C 27,4 km/h (4 Bft) 95,74 %
26.01.2017 09:22 -4,3 C 87 % 1028,4 hPa 0,0 l/m 19,6 km/h (3 Bft) NO 46 2 min 0,000 mm 0,0 UV-I 191 W/m -6,1 C -15,0 C 27,4 km/h (4 Bft) 100,00 %
26.01.2017 09:24 -4,3 C 87 % 1028,4 hPa 0,0 l/m 17,7 km/h (3 Bft) O 81 2 min 0,000 mm 0,0 UV-I 194 W/m -6,1 C -13,9 C 22,5 km/h (4 Bft) 100,00 %
26.01.2017 09:26 -4,3 C 87 % 1028,5 hPa 0,0 l/m 16,9 km/h (3 Bft) O-NO 66 2 min 0,000 mm 0,0 UV-I 194 W/m -6,1 C -13,4 C 24,1 km/h (4 Bft) 100,00 %
26.01.2017 09:28 -4,3 C 87 % 1028,4 hPa 0,0 l/m 19,4 km/h (3 Bft) O-NO 68 2 min 0,000 mm 0,0 UV-I 200 W/m -6,1 C -14,9 C 25,7 km/h (4 Bft) 98,18 %
26.01.2017 09:30 -4,2 C 87 % 1028,4 hPa 0,0 l/m 20,9 km/h (4 Bft) NO 42 2 min 0,000 mm 0,0 UV-I 204 W/m -6,0 C -15,5 C 25,7 km/h (4 Bft) 100,00 %
26.01.2017 09:32 -4,2 C 87 % 1028,5 hPa 0,0 l/m 17,3 km/h (3 Bft) O-NO 65 2 min 0,000 mm 0,0 UV-I 212 W/m -6,0 C -13,5 C 25,7 km/h (4 Bft) 98,21 %
26.01.2017 09:34 -4,2 C 87 % 1028,4 hPa 0,0 l/m 17,1 km/h (3 Bft) O-NO 71 2 min 0,000 mm 0,0 UV-I 217 W/m -6,0 C -13,4 C 24,1 km/h (4 Bft) 100,00 %
26.01.2017 09:36 -4,2 C 86 % 1028,4 hPa 0,0 l/m 17,4 km/h (3 Bft) NO 53 2 min 0,000 mm 0,0 UV-I 223 W/m -6,2 C -13,6 C 22,5 km/h (4 Bft) 100,00 %
26.01.2017 09:38 -4,2 C 86 % 1028,5 hPa 0,0 l/m 19,3 km/h (3 Bft) NO 52 2 min 0,000 mm 0,0 UV-I 227 W/m -6,2 C -14,7 C 25,7 km/h (4 Bft) 100,00 %
26.01.2017 09:40 -4,1 C 86 % 1028,5 hPa 0,0 l/m 19,9 km/h (4 Bft) NO 44 2 min 0,000 mm 0,0 UV-I 230 W/m -6,1 C -14,9 C 25,7 km/h (4 Bft) 100,00 %
26.01.2017 09:42 -4,1 C 86 % 1028,5 hPa 0,0 l/m 19,6 km/h (3 Bft) O-NO 74 2 min 0,000 mm 0,0 UV-I 237 W/m -6,1 C -14,7 C 25,7 km/h (4 Bft) 100,00 %
26.01.2017 09:44 -4,0 C 86 % 1028,5 hPa 0,0 l/m 19,3 km/h (3 Bft) O-NO 59 2 min 0,000 mm 0,0 UV-I 240 W/m -6,0 C -14,4 C 24,1 km/h (4 Bft) 100,00 %
26.01.2017 09:46 -4,0 C 86 % 1028,5 hPa 0,0 l/m 19,8 km/h (3 Bft) O-NO 61 2 min 0,000 mm 0,0 UV-I 244 W/m -6,0 C -14,7 C 25,7 km/h (4 Bft) 97,56 %
26.01.2017 09:48 -3,9 C 86 % 1028,5 hPa 0,0 l/m 19,4 km/h (3 Bft) O-NO 60 2 min 0,000 mm 0,0 UV-I 249 W/m -5,9 C -14,4 C 24,1 km/h (4 Bft) 100,00 %
26.01.2017 09:50 -3,9 C 86 % 1028,5 hPa 0,0 l/m 18,5 km/h (3 Bft) NO 50 2 min 0,000 mm 0,0 UV-I 251 W/m -5,9 C -13,9 C 25,7 km/h (4 Bft) 97,87 %
26.01.2017 09:52 -3,9 C 86 % 1028,5 hPa 0,0 l/m 16,5 km/h (3 Bft) NO 46 2 min 0,000 mm 0,0 UV-I 256 W/m -5,9 C -12,7 C 20,9 km/h (4 Bft) 97,87 %
26.01.2017 09:54 -3,9 C 86 % 1028,5 hPa 0,0 l/m 14,4 km/h (3 Bft) NO 45 2 min 0,000 mm 0,0 UV-I 258 W/m -5,9 C -11,3 C 19,3 km/h (3 Bft) 100,00 %
26.01.2017 09:56 -3,9 C 86 % 1028,5 hPa 0,0 l/m 15,6 km/h (3 Bft) O-NO 63 2 min 0,000 mm 0,0 UV-I 262 W/m -5,9 C -12,1 C 20,9 km/h (4 Bft) 100,00 %
26.01.2017 09:58 -3,9 C 85 % 1028,6 hPa 0,0 l/m 16,3 km/h (3 Bft) O-NO 67 2 min 0,000 mm 0,0 UV-I 266 W/m -6,0 C -12,6 C 20,9 km/h (4 Bft) 98,11 %
26.01.2017 10:00 -3,9 C 85 % 1028,5 hPa 0,0 l/m 16,8 km/h (3 Bft) NO 55 2 min 0,076 mm 0,0 UV-I 270 W/m -6,0 C -12,9 C 22,5 km/h (4 Bft) 100,00 %
26.01.2017 10:02 -3,8 C 85 % 1028,5 hPa 0,0 l/m 18,7 km/h (3 Bft) O-NO 58 2 min 0,000 mm 0,0 UV-I 274 W/m -5,9 C -13,8 C 27,4 km/h (4 Bft) 100,00 %
26.01.2017 10:04 -3,8 C 85 % 1028,5 hPa 0,0 l/m 17,8 km/h (3 Bft) NO 50 2 min 0,000 mm 0,5 UV-I 277 W/m -5,9 C -13,3 C 27,4 km/h (4 Bft) 100,00 %
26.01.2017 10:06 -3,8 C 85 % 1028,5 hPa 0,0 l/m 16,1 km/h (3 Bft) NO 54 2 min 0,000 mm 0,5 UV-I 283 W/m -5,9 C -12,3 C 24,1 km/h (4 Bft) 100,00 %
26.01.2017 10:08 -3,7 C 85 % 1028,6 hPa 0,0 l/m 16,2 km/h (3 Bft) O-NO 60 2 min 0,000 mm 0,5 UV-I 286 W/m -5,8 C -12,2 C 22,5 km/h (4 Bft) 100,00 %
26.01.2017 10:10 -3,7 C 85 % 1028,6 hPa 0,0 l/m 16,1 km/h (3 Bft) NO 34 2 min 0,000 mm 0,5 UV-I 289 W/m -5,8 C -12,2 C 25,7 km/h (4 Bft) 100,00 %
26.01.2017 10:12 -3,7 C 85 % 1028,5 hPa 0,0 l/m 19,1 km/h (3 Bft) NO 40 2 min 0,000 mm 0,5 UV-I 293 W/m -5,8 C -13,9 C 27,4 km/h (4 Bft) 100,00 %
26.01.2017 10:14 -3,6 C 85 % 1028,5 hPa 0,0 l/m 20,5 km/h (4 Bft) NO 46 2 min 0,000 mm 0,5 UV-I 296 W/m -5,7 C -14,5 C 29,0 km/h (5 Bft) 100,00 %
26.01.2017 10:16 -3,5 C 85 % 1028,6 hPa 0,0 l/m 17,9 km/h (3 Bft) NO 39 2 min 0,000 mm 0,5 UV-I 299 W/m -5,6 C -13,0 C 24,1 km/h (4 Bft) 100,00 %
26.01.2017 10:18 -3,4 C 84 % 1028,6 hPa 0,0 l/m 22,2 km/h (4 Bft) O-NO 67 2 min 0,000 mm 0,5 UV-I 304 W/m -5,7 C -15,1 C 29,0 km/h (5 Bft) 100,00 %
26.01.2017 10:20 -3,4 C 84 % 1028,6 hPa 0,0 l/m 18,2 km/h (3 Bft) NO 46 2 min 0,000 mm 0,5 UV-I 309 W/m -5,7 C -13,1 C 25,7 km/h (4 Bft) 100,00 %
26.01.2017 10:22 -3,3 C 84 % 1028,6 hPa 0,0 l/m 22,3 km/h (4 Bft) O-NO 59 2 min 0,000 mm 0,5 UV-I 314 W/m -5,6 C -15,0 C 29,0 km/h (5 Bft) 98,00 %
26.01.2017 10:24 -3,3 C 84 % 1028,6 hPa 0,0 l/m 21,9 km/h (4 Bft) NO 38 2 min 0,000 mm 0,6 UV-I 318 W/m -5,6 C -14,8 C 29,0 km/h (5 Bft) 97,73 %
26.01.2017 10:26 -3,2 C 84 % 1028,6 hPa 0,0 l/m 21,1 km/h (4 Bft) NO 45 2 min 0,000 mm 0,6 UV-I 320 W/m -5,5 C -14,3 C 27,4 km/h (4 Bft) 97,56 %
26.01.2017 10:28 -3,2 C 84 % 1028,6 hPa 0,0 l/m 19,7 km/h (3 Bft) O-NO 60 2 min 0,000 mm 0,6 UV-I 322 W/m -5,5 C -13,6 C 27,4 km/h (4 Bft) 98,11 %
26.01.2017 10:30 -3,1 C 84 % 1028,6 hPa 0,0 l/m 21,3 km/h (4 Bft) O-NO 57 2 min 0,000 mm 0,6 UV-I 324 W/m -5,4 C -14,3 C 27,4 km/h (4 Bft) 97,87 %
26.01.2017 10:32 -3,1 C 83 % 1028,6 hPa 0,0 l/m 19,1 km/h (3 Bft) NO 42 2 min 0,000 mm 0,6 UV-I 326 W/m -5,6 C -13,2 C 25,7 km/h (4 Bft) 98,25 %
26.01.2017 10:34 -3,1 C 83 % 1028,6 hPa 0,0 l/m 21,3 km/h (4 Bft) O-NO 67 2 min 0,000 mm 0,6 UV-I 330 W/m -5,6 C -14,3 C 30,6 km/h (5 Bft) 93,62 %
26.01.2017 10:36 -3,1 C 83 % 1028,6 hPa 0,0 l/m 21,9 km/h (4 Bft) NO 56 2 min 0,000 mm 0,6 UV-I 333 W/m -5,6 C -14,6 C 30,6 km/h (5 Bft) 97,87 %
26.01.2017 10:38 -3,0 C 83 % 1028,6 hPa 0,0 l/m 20,2 km/h (4 Bft) NO 55 2 min 0,000 mm 0,6 UV-I 338 W/m -5,5 C -13,6 C 27,4 km/h (4 Bft) 97,73 %
26.01.2017 10:40 -2,9 C 83 % 1028,6 hPa 0,0 l/m 22,1 km/h (4 Bft) O-NO 67 2 min 0,000 mm 0,6 UV-I 345 W/m -5,4 C -14,4 C 27,4 km/h (4 Bft) 94,74 %
26.01.2017 10:42 -2,9 C 83 % 1028,5 hPa 0,0 l/m 18,3 km/h (3 Bft) O-NO 69 2 min 0,000 mm 0,6 UV-I 345 W/m -5,4 C -12,5 C 25,7 km/h (4 Bft) 98,25 %
26.01.2017 10:44 -2,9 C 83 % 1028,5 hPa 0,0 l/m 19,3 km/h (3 Bft) O-NO 67 2 min 0,000 mm 0,7 UV-I 348 W/m -5,4 C -13,0 C 29,0 km/h (5 Bft) 97,56 %
26.01.2017 10:46 -2,8 C 83 % 1028,5 hPa 0,0 l/m 16,6 km/h (3 Bft) O-NO 63 2 min 0,000 mm 0,7 UV-I 349 W/m -5,3 C -11,4 C 25,7 km/h (4 Bft) 95,24 %
26.01.2017 10:48 -2,8 C 83 % 1028,4 hPa 0,0 l/m 19,0 km/h (3 Bft) NO 51 2 min 0,000 mm 0,7 UV-I 355 W/m -5,3 C -12,7 C 24,1 km/h (4 Bft) 98,11 %
26.01.2017 10:50 -2,8 C 83 % 1028,4 hPa 0,0 l/m 17,2 km/h (3 Bft) O-NO 58 2 min 0,000 mm 0,7 UV-I 356 W/m -5,3 C -11,7 C 22,5 km/h (4 Bft) 98,00 %
26.01.2017 10:52 -2,7 C 82 % 1028,4 hPa 0,0 l/m 18,6 km/h (3 Bft) NO 40 2 min 0,000 mm 0,7 UV-I 362 W/m -5,3 C -12,4 C 24,1 km/h (4 Bft) 100,00 %
26.01.2017 10:54 -2,7 C 82 % 1028,4 hPa 0,0 l/m 18,5 km/h (3 Bft) O-NO 57 2 min 0,000 mm 0,7 UV-I 359 W/m -5,3 C -12,3 C 25,7 km/h (4 Bft) 100,00 %
26.01.2017 10:56 -2,6 C 82 % 1028,4 hPa 0,0 l/m 21,4 km/h (4 Bft) NO 34 2 min 0,000 mm 0,7 UV-I 360 W/m -5,2 C -13,7 C 29,0 km/h (5 Bft) 97,56 %
26.01.2017 10:58 -2,6 C 82 % 1028,4 hPa 0,0 l/m 20,8 km/h (4 Bft) O-NO 57 2 min 0,000 mm 0,7 UV-I 365 W/m -5,2 C -13,4 C 29,0 km/h (5 Bft) 100,00 %
26.01.2017 11:00 -2,6 C 82 % 1028,4 hPa 0,0 l/m 18,2 km/h (3 Bft) NO 51 2 min 0,101 mm 0,7 UV-I 366 W/m -5,2 C -12,0 C 24,1 km/h (4 Bft) 100,00 %
26.01.2017 11:02 -2,5 C 82 % 1028,3 hPa 0,0 l/m 19,2 km/h (3 Bft) O-NO 57 2 min 0,000 mm 0,7 UV-I 372 W/m -5,1 C -12,5 C 24,1 km/h (4 Bft) 100,00 %
26.01.2017 11:04 -2,4 C 82 % 1028,3 hPa 0,0 l/m 17,0 km/h (3 Bft) O-NO 57 2 min 0,000 mm 0,7 UV-I 376 W/m -5,0 C -11,1 C 20,9 km/h (4 Bft) 100,00 %
26.01.2017 11:06 -2,4 C 82 % 1028,3 hPa 0,0 l/m 19,3 km/h (3 Bft) O-NO 67 2 min 0,000 mm 0,8 UV-I 377 W/m -5,0 C -12,4 C 30,6 km/h (5 Bft) 100,00 %
26.01.2017 11:08 -2,3 C 81 % 1028,3 hPa 0,0 l/m 25,6 km/h (4 Bft) O-NO 57 2 min 0,000 mm 0,8 UV-I 377 W/m -5,1 C -15,1 C 33,8 km/h (5 Bft) 100,00 %
26.01.2017 11:10 -2,3 C 81 % 1028,2 hPa 0,0 l/m 23,4 km/h (4 Bft) O-NO 59 2 min 0,000 mm 0,8 UV-I 378 W/m -5,1 C -14,2 C 29,0 km/h (5 Bft) 100,00 %
26.01.2017 11:12 -2,2 C 81 % 1028,1 hPa 0,0 l/m 20,7 km/h (4 Bft) NO 36 2 min 0,000 mm 0,8 UV-I 382 W/m -5,0 C -12,8 C 25,7 km/h (4 Bft) 97,56 %
26.01.2017 11:14 -2,2 C 81 % 1028,1 hPa 0,0 l/m 17,8 km/h (3 Bft) O 92 2 min 0,000 mm 0,8 UV-I 387 W/m -5,0 C -11,3 C 22,5 km/h (4 Bft) 100,00 %
26.01.2017 11:16 -2,1 C 80 % 1028,1 hPa 0,0 l/m 20,8 km/h (4 Bft) NO 56 2 min 0,000 mm 0,8 UV-I 388 W/m -5,1 C -12,7 C 27,4 km/h (4 Bft) 100,00 %
26.01.2017 11:18 -2,1 C 80 % 1028,0 hPa 0,0 l/m 23,3 km/h (4 Bft) NO 49 2 min 0,000 mm 0,8 UV-I 392 W/m -5,1 C -13,9 C 32,2 km/h (5 Bft) 97,87 %
26.01.2017 11:20 -2,0 C 80 % 1028,0 hPa 0,0 l/m 24,8 km/h (4 Bft) O-NO 74 2 min 0,000 mm 0,8 UV-I 392 W/m -5,0 C -14,3 C 32,2 km/h (5 Bft) 97,87 %
26.01.2017 11:22 -1,9 C 80 % 1028,0 hPa 0,0 l/m 23,9 km/h (4 Bft) O-NO 59 2 min 0,000 mm 0,8 UV-I 391 W/m -4,9 C -13,8 C 30,6 km/h (5 Bft) 100,00 %
26.01.2017 11:24 -1,9 C 80 % 1028,0 hPa 0,0 l/m 23,8 km/h (4 Bft) NO 46 2 min 0,000 mm 0,8 UV-I 392 W/m -4,9 C -13,8 C 33,8 km/h (5 Bft) 100,00 %
26.01.2017 11:26 -1,8 C 79 % 1027,9 hPa 0,0 l/m 22,9 km/h (4 Bft) O-NO 67 2 min 0,000 mm 0,8 UV-I 399 W/m -4,9 C -13,3 C 32,2 km/h (5 Bft) 98,08 %
26.01.2017 11:28 -1,8 C 79 % 1027,8 hPa 0,0 l/m 21,5 km/h (4 Bft) O-NO 61 2 min 0,000 mm 0,8 UV-I 398 W/m -4,9 C -12,7 C 30,6 km/h (5 Bft) 100,00 %
26.01.2017 11:30 -1,8 C 79 % 1027,8 hPa 0,0 l/m 23,5 km/h (4 Bft) O-NO 58 2 min 0,000 mm 0,8 UV-I 399 W/m -4,9 C -13,5 C 30,6 km/h (5 Bft) 100,00 %
26.01.2017 11:32 -1,7 C 79 % 1027,7 hPa 0,0 l/m 20,0 km/h (4 Bft) O-NO 62 2 min 0,000 mm 0,8 UV-I 400 W/m -4,8 C -11,8 C 25,7 km/h (4 Bft) 100,00 %
26.01.2017 11:34 -1,7 C 78 % 1027,7 hPa 0,0 l/m 26,6 km/h (4 Bft) O-NO 67 2 min 0,000 mm 0,8 UV-I 396 W/m -5,0 C -14,6 C 38,6 km/h (5 Bft) 100,00 %
26.01.2017 11:36 -1,7 C 78 % 1027,6 hPa 0,0 l/m 23,9 km/h (4 Bft) O 90 2 min 0,000 mm 0,9 UV-I 401 W/m -5,0 C -13,6 C 29,0 km/h (5 Bft) 98,21 %
26.01.2017 11:38 -1,7 C 78 % 1027,6 hPa 0,0 l/m 27,4 km/h (4 Bft) O 96 2 min 0,000 mm 0,9 UV-I 402 W/m -5,0 C -14,9 C 35,4 km/h (5 Bft) 97,56 %
26.01.2017 11:40 -1,7 C 78 % 1027,6 hPa 0,0 l/m 26,6 km/h (4 Bft) NO 46 2 min 0,000 mm 0,9 UV-I 407 W/m -5,0 C -14,6 C 32,2 km/h (5 Bft) 100,00 %
26.01.2017 11:42 -1,6 C 78 % 1027,6 hPa 0,0 l/m 27,5 km/h (4 Bft) O-NO 61 2 min 0,000 mm 0,9 UV-I 406 W/m -4,9 C -14,8 C 43,5 km/h (6 Bft) 100,00 %
26.01.2017 11:44 -1,6 C 78 % 1027,5 hPa 0,0 l/m 23,7 km/h (4 Bft) O-NO 73 2 min 0,000 mm 0,9 UV-I 407 W/m -4,9 C -13,4 C 33,8 km/h (5 Bft) 97,62 %
26.01.2017 11:46 -1,6 C 79 % 1027,5 hPa 0,0 l/m 22,9 km/h (4 Bft) O-NO 72 2 min 0,000 mm 0,9 UV-I 407 W/m -4,8 C -13,0 C 33,8 km/h (5 Bft) 96,23 %
26.01.2017 11:48 -1,6 C 78 % 1027,5 hPa 0,0 l/m 29,5 km/h (5 Bft) NO 40 2 min 0,000 mm 0,9 UV-I 408 W/m -4,9 C -15,5 C 38,6 km/h (5 Bft) 98,00 %
26.01.2017 11:50 -1,6 C 78 % 1027,5 hPa 0,0 l/m 26,6 km/h (4 Bft) O-NO 65 2 min 0,000 mm 0,9 UV-I 410 W/m -4,9 C -14,5 C 40,2 km/h (6 Bft) 97,37 %
26.01.2017 11:52 -1,5 C 78 % 1027,4 hPa 0,0 l/m 24,0 km/h (4 Bft) NO 42 2 min 0,000 mm 0,9 UV-I 409 W/m -4,8 C -13,4 C 32,2 km/h (5 Bft) 98,00 %
26.01.2017 11:54 -1,4 C 78 % 1027,4 hPa 0,0 l/m 21,3 km/h (4 Bft) O 94 2 min 0,000 mm 0,9 UV-I 406 W/m -4,7 C -12,1 C 32,2 km/h (5 Bft) 97,56 %
26.01.2017 11:56 -1,4 C 78 % 1027,4 hPa 0,0 l/m 20,0 km/h (4 Bft) O-NO 65 2 min 0,000 mm 0,9 UV-I 409 W/m -4,7 C -11,4 C 29,0 km/h (5 Bft) 98,11 %
26.01.2017 11:58 -1,4 C 78 % 1027,4 hPa 0,0 l/m 20,3 km/h (4 Bft) O-NO 67 2 min 0,000 mm 0,9 UV-I 410 W/m -4,7 C -11,6 C 29,0 km/h (5 Bft) 97,56 %
26.01.2017 12:00 -1,4 C 78 % 1027,3 hPa 0,0 l/m 24,7 km/h (4 Bft) O-NO 59 2 min 0,153 mm 0,9 UV-I 409 W/m -4,7 C -13,5 C 35,4 km/h (5 Bft) 98,25 %
26.01.2017 12:02 -1,4 C 78 % 1027,4 hPa 0,0 l/m 22,3 km/h (4 Bft) O-NO 59 2 min 0,000 mm 0,9 UV-I 410 W/m -4,7 C -12,5 C 32,2 km/h (5 Bft) 95,74 %
26.01.2017 12:04 -1,3 C 78 % 1027,3 hPa 0,0 l/m 19,9 km/h (4 Bft) O-NO 61 2 min 0,000 mm 0,9 UV-I 411 W/m -4,6 C -11,3 C 27,4 km/h (4 Bft) 97,87 %
26.01.2017 12:06 -1,3 C 78 % 1027,3 hPa 0,0 l/m 22,7 km/h (4 Bft) O-NO 71 2 min 0,000 mm 0,9 UV-I 411 W/m -4,6 C -12,5 C 33,8 km/h (5 Bft) 100,00 %
26.01.2017 12:08 -1,3 C 78 % 1027,2 hPa 0,0 l/m 20,5 km/h (4 Bft) O-NO 71 2 min 0,000 mm 0,9 UV-I 412 W/m -4,6 C -11,6 C 27,4 km/h (4 Bft) 98,21 %
26.01.2017 12:10 -1,3 C 77 % 1027,2 hPa 0,0 l/m 21,4 km/h (4 Bft) O-NO 67 2 min 0,000 mm 0,9 UV-I 410 W/m -4,8 C -12,0 C 30,6 km/h (5 Bft) 96,43 %
26.01.2017 12:12 -1,2 C 77 % 1027,2 hPa 0,0 l/m 23,5 km/h (4 Bft) NO 50 2 min 0,000 mm 0,9 UV-I 413 W/m -4,7 C -12,7 C 33,8 km/h (5 Bft) 100,00 %
26.01.2017 12:14 -1,2 C 77 % 1027,2 hPa 0,0 l/m 25,3 km/h (4 Bft) O-NO 69 2 min 0,000 mm 0,9 UV-I 414 W/m -4,7 C -13,5 C 32,2 km/h (5 Bft) 98,11 %
26.01.2017 12:16 -1,2 C 77 % 1027,2 hPa 0,0 l/m 21,8 km/h (4 Bft) O-NO 65 2 min 0,000 mm 0,9 UV-I 414 W/m -4,7 C -12,0 C 33,8 km/h (5 Bft) 97,87 %
26.01.2017 12:18 -1,2 C 77 % 1027,2 hPa 0,0 l/m 20,7 km/h (4 Bft) O-NO 70 2 min 0,000 mm 0,9 UV-I 410 W/m -4,7 C -11,5 C 25,7 km/h (4 Bft) 100,00 %
26.01.2017 12:20 -1,1 C 77 % 1027,1 hPa 0,0 l/m 21,7 km/h (4 Bft) O-SO 123 2 min 0,000 mm 0,9 UV-I 408 W/m -4,6 C -11,8 C 33,8 km/h (5 Bft) 100,00 %
26.01.2017 12:22 -1,1 C 77 % 1027,1 hPa 0,0 l/m 20,4 km/h (4 Bft) O 82 2 min 0,000 mm 0,9 UV-I 412 W/m -4,6 C -11,2 C 29,0 km/h (5 Bft) 100,00 %
26.01.2017 12:24 -1,0 C 77 % 1027,1 hPa 0,0 l/m 22,3 km/h (4 Bft) O-NO 63 2 min 0,000 mm 0,9 UV-I 411 W/m -4,5 C -12,0 C 29,0 km/h (5 Bft) 97,37 %
26.01.2017 12:26 -0,9 C 77 % 1027,1 hPa 0,0 l/m 21,2 km/h (4 Bft) O-NO 61 2 min 0,000 mm 0,9 UV-I 410 W/m -4,4 C -11,4 C 27,4 km/h (4 Bft) 100,00 %
26.01.2017 12:28 -0,9 C 76 % 1027,1 hPa 0,0 l/m 19,2 km/h (3 Bft) NO 48 2 min 0,000 mm 0,9 UV-I 407 W/m -4,6 C -10,4 C 24,1 km/h (4 Bft) 100,00 %
26.01.2017 12:30 -0,9 C 76 % 1027,0 hPa 0,0 l/m 20,2 km/h (4 Bft) NO 53 2 min 0,000 mm 0,9 UV-I 406 W/m -4,6 C -10,9 C 25,7 km/h (4 Bft) 100,00 %
26.01.2017 12:32 -0,8 C 76 % 1027,0 hPa 0,0 l/m 21,8 km/h (4 Bft) NO 55 2 min 0,000 mm 0,9 UV-I 409 W/m -4,5 C -11,5 C 29,0 km/h (5 Bft) 100,00 %
26.01.2017 12:34 -0,8 C 76 % 1026,9 hPa 0,0 l/m 23,3 km/h (4 Bft) O-NO 73 2 min 0,000 mm 0,9 UV-I 410 W/m -4,5 C -12,1 C 33,8 km/h (5 Bft) 100,00 %
26.01.2017 12:36 -0,8 C 76 % 1026,9 hPa 0,0 l/m 28,0 km/h (4 Bft) NO 53 2 min 0,000 mm 0,9 UV-I 406 W/m -4,5 C -13,9 C 41,8 km/h (6 Bft) 100,00 %
26.01.2017 12:38 -0,8 C 75 % 1026,9 hPa 0,0 l/m 29,5 km/h (5 Bft) O-NO 68 2 min 0,000 mm 0,9 UV-I 409 W/m -4,7 C -14,4 C 41,8 km/h (6 Bft) 98,21 %
26.01.2017 12:40 -0,7 C 75 % 1026,9 hPa 0,0 l/m 28,1 km/h (4 Bft) O-NO 63 2 min 0,000 mm 0,9 UV-I 406 W/m -4,6 C -13,8 C 37,0 km/h (5 Bft) 100,00 %
26.01.2017 12:42 -0,7 C 75 % 1026,9 hPa 0,0 l/m 29,3 km/h (5 Bft) O-NO 64 2 min 0,000 mm 0,9 UV-I 405 W/m -4,6 C -14,2 C 40,2 km/h (6 Bft) 100,00 %
26.01.2017 12:44 -0,7 C 75 % 1026,8 hPa 0,0 l/m 26,6 km/h (4 Bft) NO 55 2 min 0,000 mm 0,9 UV-I 407 W/m -4,6 C -13,3 C 40,2 km/h (6 Bft) 100,00 %
26.01.2017 12:46 -0,7 C 75 % 1026,9 hPa 0,0 l/m 24,2 km/h (4 Bft) O-NO 72 2 min 0,000 mm 0,9 UV-I 404 W/m -4,6 C -12,4 C 33,8 km/h (5 Bft) 97,62 %
26.01.2017 12:48 -0,6 C 75 % 1026,8 hPa 0,0 l/m 26,3 km/h (4 Bft) O-NO 74 2 min 0,000 mm 0,9 UV-I 402 W/m -4,5 C -13,0 C 35,4 km/h (5 Bft) 100,00 %
26.01.2017 12:50 -0,6 C 75 % 1026,8 hPa 0,0 l/m 28,2 km/h (4 Bft) NO 45 2 min 0,000 mm 0,9 UV-I 400 W/m -4,5 C -13,7 C 40,2 km/h (6 Bft) 100,00 %
26.01.2017 12:52 -0,6 C 74 % 1026,8 hPa 0,0 l/m 28,3 km/h (4 Bft) NO 56 2 min 0,000 mm 0,9 UV-I 402 W/m -4,6 C -13,7 C 38,6 km/h (5 Bft) 98,00 %
26.01.2017 12:54 -0,6 C 74 % 1026,8 hPa 0,0 l/m 27,4 km/h (4 Bft) O-NO 60 2 min 0,000 mm 0,9 UV-I 399 W/m -4,6 C -13,4 C 37,0 km/h (5 Bft) 100,00 %
26.01.2017 12:56 -0,6 C 75 % 1026,8 hPa 0,0 l/m 21,5 km/h (4 Bft) O-NO 58 2 min 0,000 mm 0,9 UV-I 398 W/m -4,5 C -11,1 C 30,6 km/h (5 Bft) 100,00 %
26.01.2017 12:58 -0,5 C 74 % 1026,8 hPa 0,0 l/m 28,2 km/h (4 Bft) NO 38 2 min 0,000 mm 0,9 UV-I 397 W/m -4,5 C -13,5 C 37,0 km/h (5 Bft) 100,00 %
26.01.2017 13:00 -0,5 C 74 % 1026,8 hPa 0,0 l/m 26,3 km/h (4 Bft) NO 49 2 min 0,178 mm 0,9 UV-I 397 W/m -4,5 C -12,9 C 35,4 km/h (5 Bft) 100,00 %
26.01.2017 13:02 -0,4 C 74 % 1026,8 hPa 0,0 l/m 26,6 km/h (4 Bft) O-NO 61 2 min 0,000 mm 0,9 UV-I 396 W/m -4,5 C -12,8 C 35,4 km/h (5 Bft) 98,11 %
26.01.2017 13:04 -0,4 C 74 % 1026,7 hPa 0,0 l/m 26,3 km/h (4 Bft) O-NO 57 2 min 0,000 mm 0,9 UV-I 395 W/m -4,5 C -12,7 C 35,4 km/h (5 Bft) 100,00 %
26.01.2017 13:06 -0,4 C 74 % 1026,7 hPa 0,0 l/m 22,1 km/h (4 Bft) NO 45 2 min 0,000 mm 0,9 UV-I 394 W/m -4,5 C -11,1 C 29,0 km/h (5 Bft) 100,00 %
26.01.2017 13:08 -0,3 C 74 % 1026,7 hPa 0,0 l/m 21,8 km/h (4 Bft) NO 48 2 min 0,000 mm 0,9 UV-I 393 W/m -4,4 C -10,8 C 29,0 km/h (5 Bft) 97,37 %
26.01.2017 13:10 -0,3 C 74 % 1026,7 hPa 0,0 l/m 19,6 km/h (3 Bft) O-NO 70 2 min 0,000 mm 0,8 UV-I 391 W/m -4,4 C -9,8 C 25,7 km/h (4 Bft) 96,43 %
26.01.2017 13:12 -0,3 C 74 % 1026,7 hPa 0,0 l/m 19,9 km/h (4 Bft) O-NO 74 2 min 0,000 mm 0,8 UV-I 389 W/m -4,4 C -10,0 C 25,7 km/h (4 Bft) 97,73 %
26.01.2017 13:14 -0,3 C 74 % 1026,7 hPa 0,0 l/m 19,1 km/h (3 Bft) NO 38 2 min 0,000 mm 0,8 UV-I 385 W/m -4,4 C -9,6 C 25,7 km/h (4 Bft) 94,00 %
26.01.2017 13:16 -0,3 C 73 % 1026,6 hPa 0,0 l/m 24,2 km/h (4 Bft) O-NO 74 2 min 0,000 mm 0,8 UV-I 386 W/m -4,5 C -11,8 C 35,4 km/h (5 Bft) 97,87 %
26.01.2017 13:18 -0,2 C 73 % 1026,6 hPa 0,0 l/m 26,1 km/h (4 Bft) NO 46 2 min 0,000 mm 0,8 UV-I 383 W/m -4,4 C -12,4 C 37,0 km/h (5 Bft) 95,74 %
26.01.2017 13:20 -0,2 C 73 % 1026,6 hPa 0,0 l/m 23,5 km/h (4 Bft) O-NO 66 2 min 0,000 mm 0,8 UV-I 382 W/m -4,4 C -11,4 C 30,6 km/h (5 Bft) 97,87 %
26.01.2017 13:22 -0,2 C 74 % 1026,6 hPa 0,0 l/m 22,1 km/h (4 Bft) NO 54 2 min 0,000 mm 0,8 UV-I 381 W/m -4,3 C -10,8 C 33,8 km/h (5 Bft) 96,00 %
26.01.2017 13:24 -0,2 C 73 % 1026,5 hPa 0,0 l/m 26,8 km/h (4 Bft) NO 42 2 min 0,000 mm 0,8 UV-I 381 W/m -4,4 C -12,6 C 35,4 km/h (5 Bft) 94,87 %
26.01.2017 13:26 -0,1 C 73 % 1026,5 hPa 0,0 l/m 26,2 km/h (4 Bft) O-NO 65 2 min 0,000 mm 0,8 UV-I 378 W/m -4,3 C -12,3 C 32,2 km/h (5 Bft) 98,08 %
26.01.2017 13:28 -0,1 C 72 % 1026,5 hPa 0,0 l/m 22,2 km/h (4 Bft) O-NO 57 2 min 0,000 mm 0,8 UV-I 378 W/m -4,5 C -10,7 C 30,6 km/h (5 Bft) 95,24 %
26.01.2017 13:30 -0,1 C 72 % 1026,5 hPa 0,0 l/m 26,1 km/h (4 Bft) NO 38 2 min 0,000 mm 0,8 UV-I 375 W/m -4,5 C -12,3 C 35,4 km/h (5 Bft) 97,87 %
26.01.2017 13:32 0,0 C 72 % 1026,5 hPa 0,0 l/m 20,4 km/h (4 Bft) NO 55 2 min 0,000 mm 0,8 UV-I 373 W/m -4,4 C -9,8 C 29,0 km/h (5 Bft) 95,74 %
26.01.2017 13:34 0,0 C 72 % 1026,5 hPa 0,0 l/m 24,9 km/h (4 Bft) O-NO 72 2 min 0,000 mm 0,8 UV-I 369 W/m -4,4 C -11,7 C 35,4 km/h (5 Bft) 100,00 %
26.01.2017 13:36 0,0 C 72 % 1026,4 hPa 0,0 l/m 23,0 km/h (4 Bft) NO 51 2 min 0,000 mm 0,8 UV-I 367 W/m -4,4 C -10,9 C 33,8 km/h (5 Bft) 100,00 %
26.01.2017 13:38 0,1 C 72 % 1026,4 hPa 0,0 l/m 26,4 km/h (4 Bft) O-NO 71 2 min 0,000 mm 0,7 UV-I 365 W/m -4,3 C -12,1 C 40,2 km/h (6 Bft) 100,00 %
26.01.2017 13:40 0,1 C 72 % 1026,4 hPa 0,0 l/m 26,5 km/h (4 Bft) NO 53 2 min 0,000 mm 0,7 UV-I 364 W/m -4,3 C -12,1 C 40,2 km/h (6 Bft) 100,00 %
26.01.2017 13:42 0,1 C 72 % 1026,3 hPa 0,0 l/m 26,4 km/h (4 Bft) O-NO 67 2 min 0,000 mm 0,7 UV-I 363 W/m -4,3 C -12,1 C 33,8 km/h (5 Bft) 100,00 %
26.01.2017 13:44 0,1 C 72 % 1026,3 hPa 0,0 l/m 27,3 km/h (4 Bft) O-NO 60 2 min 0,000 mm 0,7 UV-I 360 W/m -4,3 C -12,4 C 33,8 km/h (5 Bft) 98,00 %
26.01.2017 13:46 0,2 C 71 % 1026,3 hPa 0,0 l/m 28,5 km/h (4 Bft) O-NO 71 2 min 0,000 mm 0,7 UV-I 358 W/m -4,4 C -12,7 C 40,2 km/h (6 Bft) 100,00 %
26.01.2017 13:48 0,2 C 71 % 1026,3 hPa 0,0 l/m 26,5 km/h (4 Bft) NO 54 2 min 0,000 mm 0,7 UV-I 354 W/m -4,4 C -12,0 C 35,4 km/h (5 Bft) 100,00 %
26.01.2017 13:50 0,2 C 71 % 1026,3 hPa 0,0 l/m 26,6 km/h (4 Bft) O 80 2 min 0,000 mm 0,7 UV-I 351 W/m -4,4 C -12,0 C 35,4 km/h (5 Bft) 100,00 %
26.01.2017 13:52 0,3 C 70 % 1026,3 hPa 0,0 l/m 26,3 km/h (4 Bft) NO 40 2 min 0,000 mm 0,7 UV-I 346 W/m -4,5 C -11,8 C 37,0 km/h (5 Bft) 100,00 %
26.01.2017 13:54 0,3 C 70 % 1026,3 hPa 0,0 l/m 27,3 km/h (4 Bft) NO 55 2 min 0,000 mm 0,7 UV-I 339 W/m -4,5 C -12,1 C 33,8 km/h (5 Bft) 100,00 %
26.01.2017 13:56 0,3 C 70 % 1026,3 hPa 0,0 l/m 26,4 km/h (4 Bft) NO 47 2 min 0,000 mm 0,7 UV-I 333 W/m -4,5 C -11,8 C 33,8 km/h (5 Bft) 100,00 %
26.01.2017 13:58 0,3 C 70 % 1026,2 hPa 0,0 l/m 28,7 km/h (4 Bft) NO 54 2 min 0,000 mm 0,7 UV-I 330 W/m -4,5 C -12,6 C 41,8 km/h (6 Bft) 100,00 %
26.01.2017 14:00 0,4 C 70 % 1026,2 hPa 0,0 l/m 25,9 km/h (4 Bft) O-NO 59 2 min 0,000 mm 0,6 UV-I 326 W/m -4,4 C -11,5 C 33,8 km/h (5 Bft) 100,00 %
26.01.2017 14:02 0,4 C 70 % 1026,2 hPa 0,0 l/m 30,7 km/h (5 Bft) NO 49 2 min 0,177 mm 0,6 UV-I 318 W/m -4,4 C -13,1 C 37,0 km/h (5 Bft) 95,74 %
26.01.2017 14:04 0,4 C 70 % 1026,2 hPa 0,0 l/m 26,7 km/h (4 Bft) NO 45 2 min 0,000 mm 0,6 UV-I 318 W/m -4,4 C -11,8 C 35,4 km/h (5 Bft) 100,00 %
26.01.2017 14:06 0,4 C 70 % 1026,2 hPa 0,0 l/m 26,8 km/h (4 Bft) O-NO 62 2 min 0,000 mm 0,6 UV-I 322 W/m -4,4 C -11,8 C 37,0 km/h (5 Bft) 100,00 %
26.01.2017 14:08 0,4 C 70 % 1026,1 hPa 0,0 l/m 25,6 km/h (4 Bft) O-NO 60 2 min 0,000 mm 0,6 UV-I 322 W/m -4,4 C -11,4 C 33,8 km/h (5 Bft) 100,00 %
26.01.2017 14:10 0,4 C 69 % 1026,1 hPa 0,0 l/m 26,7 km/h (4 Bft) O-NO 67 2 min 0,000 mm 0,6 UV-I 316 W/m -4,6 C -11,8 C 38,6 km/h (5 Bft) 98,31 %
26.01.2017 14:12 0,4 C 69 % 1026,1 hPa 0,0 l/m 27,7 km/h (4 Bft) O-NO 59 2 min 0,000 mm 0,6 UV-I 314 W/m -4,6 C -12,1 C 37,0 km/h (5 Bft) 96,15 %
26.01.2017 14:14 0,5 C 69 % 1026,1 hPa 0,0 l/m 24,4 km/h (4 Bft) NO 53 2 min 0,000 mm 0,6 UV-I 311 W/m -4,5 C -10,8 C 33,8 km/h (5 Bft) 100,00 %
26.01.2017 14:16 0,5 C 69 % 1026,1 hPa 0,0 l/m 29,0 km/h (5 Bft) NO 49 2 min 0,000 mm 0,6 UV-I 310 W/m -4,5 C -12,4 C 38,6 km/h (5 Bft) 98,00 %
26.01.2017 14:18 0,6 C 69 % 1026,1 hPa 0,0 l/m 27,4 km/h (4 Bft) NO 55 2 min 0,000 mm 0,6 UV-I 309 W/m -4,4 C -11,7 C 35,4 km/h (5 Bft) 100,00 %
26.01.2017 14:20 0,6 C 69 % 1026,0 hPa 0,0 l/m 28,6 km/h (4 Bft) NO 39 2 min 0,000 mm 0,6 UV-I 308 W/m -4,4 C -12,1 C 38,6 km/h (5 Bft) 100,00 %
26.01.2017 14:22 0,6 C 69 % 1026,0 hPa 0,0 l/m 22,9 km/h (4 Bft) NO 52 2 min 0,000 mm 0,5 UV-I 305 W/m -4,4 C -10,1 C 33,8 km/h (5 Bft) 98,11 %
26.01.2017 14:24 0,6 C 68 % 1026,0 hPa 0,0 l/m 27,4 km/h (4 Bft) O-NO 59 2 min 0,000 mm 0,5 UV-I 303 W/m -4,6 C -11,7 C 37,0 km/h (5 Bft) 100,00 %
26.01.2017 14:26 0,6 C 68 % 1026,0 hPa 0,0 l/m 27,1 km/h (4 Bft) O-NO 62 2 min 0,000 mm 0,5 UV-I 294 W/m -4,6 C -11,6 C 38,6 km/h (5 Bft) 100,00 %
26.01.2017 14:28 0,6 C 69 % 1025,9 hPa 0,0 l/m 27,8 km/h (4 Bft) NO 55 2 min 0,000 mm 0,5 UV-I 283 W/m -4,4 C -11,9 C 40,2 km/h (6 Bft) 98,00 %
26.01.2017 14:30 0,7 C 68 % 1026,0 hPa 0,0 l/m 29,9 km/h (5 Bft) NO 51 2 min 0,000 mm 0,5 UV-I 281 W/m -4,5 C -12,4 C 43,5 km/h (6 Bft) 97,37 %
26.01.2017 14:32 0,7 C 68 % 1026,0 hPa 0,0 l/m 33,6 km/h (5 Bft) O-NO 65 2 min 0,000 mm 0,5 UV-I 282 W/m -4,5 C -13,4 C 46,7 km/h (6 Bft) 100,00 %
26.01.2017 14:34 0,7 C 68 % 1025,9 hPa 0,0 l/m 29,9 km/h (5 Bft) NO 36 2 min 0,000 mm 0,5 UV-I 267 W/m -4,5 C -12,4 C 41,8 km/h (6 Bft) 98,11 %
26.01.2017 14:36 0,7 C 68 % 1025,9 hPa 0,0 l/m 28,4 km/h (4 Bft) NO 55 2 min 0,000 mm 0,5 UV-I 263 W/m -4,5 C -11,9 C 37,0 km/h (5 Bft) 94,74 %
26.01.2017 14:38 0,7 C 68 % 1025,8 hPa 0,0 l/m 27,3 km/h (4 Bft) O-NO 70 2 min 0,000 mm 0,2 UV-I 269 W/m -4,5 C -11,6 C 33,8 km/h (5 Bft) 96,43 %
26.01.2017 14:40 0,7 C 68 % 1025,8 hPa 0,0 l/m 28,9 km/h (5 Bft) O 92 2 min 0,000 mm 0,0 UV-I 256 W/m -4,5 C -12,1 C 41,8 km/h (6 Bft) 97,56 %
26.01.2017 14:42 0,7 C 68 % 1025,8 hPa 0,0 l/m 29,3 km/h (5 Bft) O-NO 76 2 min 0,000 mm 0,0 UV-I 244 W/m -4,5 C -12,2 C 43,5 km/h (6 Bft) 97,87 %
26.01.2017 14:44 0,7 C 67 % 1025,8 hPa 0,0 l/m 30,1 km/h (5 Bft) NO 53 2 min 0,000 mm 0,0 UV-I 241 W/m -4,7 C -12,5 C 46,7 km/h (6 Bft) 97,22 %
26.01.2017 14:46 0,7 C 67 % 1025,7 hPa 0,0 l/m 29,0 km/h (5 Bft) O-NO 67 2 min 0,000 mm 0,0 UV-I 246 W/m -4,7 C -12,1 C 45,1 km/h (6 Bft) 98,44 %
26.01.2017 14:48 0,7 C 67 % 1025,8 hPa 0,0 l/m 29,7 km/h (5 Bft) NO 56 2 min 0,000 mm 0,0 UV-I 237 W/m -4,7 C -12,3 C 41,8 km/h (6 Bft) 97,62 %
26.01.2017 14:50 0,7 C 67 % 1025,8 hPa 0,0 l/m 33,6 km/h (5 Bft) O-NO 73 2 min 0,000 mm 0,0 UV-I 232 W/m -4,7 C -13,4 C 45,1 km/h (6 Bft) 96,23 %
26.01.2017 14:52 0,7 C 67 % 1025,8 hPa 0,0 l/m 28,2 km/h (4 Bft) O-NO 62 2 min 0,000 mm 0,0 UV-I 202 W/m -4,7 C -11,9 C 37,0 km/h (5 Bft) 97,56 %
26.01.2017 14:54 0,7 C 67 % 1025,8 hPa 0,0 l/m 27,8 km/h (4 Bft) O-NO 63 2 min 0,000 mm 0,0 UV-I 230 W/m -4,7 C -11,7 C 38,6 km/h (5 Bft) 98,00 %
26.01.2017 14:56 0,7 C 67 % 1025,8 hPa 0,0 l/m 27,2 km/h (4 Bft) N-NO 28 2 min 0,000 mm 0,0 UV-I 235 W/m -4,7 C -11,5 C 37,0 km/h (5 Bft) 96,00 %
26.01.2017 14:58 0,7 C 67 % 1025,8 hPa 0,0 l/m 29,2 km/h (5 Bft) O-NO 67 2 min 0,000 mm 0,0 UV-I 230 W/m -4,7 C -12,2 C 38,6 km/h (5 Bft) 97,37 %
26.01.2017 15:00 0,7 C 67 % 1025,8 hPa 0,0 l/m 28,6 km/h (4 Bft) O-NO 67 2 min 0,000 mm 0,0 UV-I 213 W/m -4,7 C -12,0 C 38,6 km/h (5 Bft) 96,00 %
26.01.2017 15:02 0,7 C 67 % 1025,8 hPa 0,0 l/m 28,0 km/h (4 Bft) O-NO 65 2 min 0,153 mm 0,0 UV-I 216 W/m -4,7 C -11,8 C 40,2 km/h (6 Bft) 97,37 %
26.01.2017 15:04 0,8 C 67 % 1025,8 hPa 0,0 l/m 26,9 km/h (4 Bft) O-NO 65 2 min 0,000 mm 0,0 UV-I 207 W/m -4,6 C -11,3 C 40,2 km/h (6 Bft) 98,11 %
26.01.2017 15:06 0,8 C 67 % 1025,8 hPa 0,0 l/m 29,8 km/h (5 Bft) O-NO 59 2 min 0,000 mm 0,0 UV-I 210 W/m -4,6 C -12,2 C 38,6 km/h (5 Bft) 100,00 %
26.01.2017 15:08 0,7 C 67 % 1025,8 hPa 0,0 l/m 30,1 km/h (5 Bft) O-NO 69 2 min 0,000 mm 0,0 UV-I 194 W/m -4,7 C -12,5 C 41,8 km/h (6 Bft) 100,00 %
26.01.2017 15:10 0,7 C 67 % 1025,8 hPa 0,0 l/m 26,6 km/h (4 Bft) O-NO 69 2 min 0,000 mm 0,0 UV-I 198 W/m -4,7 C -11,3 C 37,0 km/h (5 Bft) 97,37 %
26.01.2017 15:12 0,7 C 67 % 1025,8 hPa 0,0 l/m 28,0 km/h (4 Bft) O-NO 62 2 min 0,000 mm 0,0 UV-I 205 W/m -4,7 C -11,8 C 40,2 km/h (6 Bft) 100,00 %
26.01.2017 15:14 0,7 C 67 % 1025,8 hPa 0,0 l/m 27,2 km/h (4 Bft) O-NO 58 2 min 0,000 mm 0,0 UV-I 200 W/m -4,7 C -11,5 C 40,2 km/h (6 Bft) 100,00 %
26.01.2017 15:16 0,7 C 67 % 1025,8 hPa 0,0 l/m 30,5 km/h (5 Bft) O-NO 66 2 min 0,000 mm 0,0 UV-I 197 W/m -4,7 C -12,6 C 38,6 km/h (5 Bft) 97,87 %
26.01.2017 15:18 0,7 C 68 % 1025,8 hPa 0,0 l/m 28,0 km/h (4 Bft) NO 49 2 min 0,000 mm 0,0 UV-I 195 W/m -4,5 C -11,8 C 33,8 km/h (5 Bft) 100,00 %
26.01.2017 15:20 0,7 C 67 % 1025,8 hPa 0,0 l/m 25,4 km/h (4 Bft) O-NO 59 2 min 0,000 mm 0,0 UV-I 192 W/m -4,7 C -10,9 C 33,8 km/h (5 Bft) 100,00 %
26.01.2017 15:22 0,7 C 67 % 1025,8 hPa 0,0 l/m 29,8 km/h (5 Bft) O-NO 68 2 min 0,000 mm 0,0 UV-I 187 W/m -4,7 C -12,4 C 40,2 km/h (6 Bft) 100,00 %
26.01.2017 15:24 0,7 C 67 % 1025,8 hPa 0,0 l/m 29,7 km/h (5 Bft) O-NO 57 2 min 0,000 mm 0,0 UV-I 185 W/m -4,7 C -12,3 C 41,8 km/h (6 Bft) 100,00 %
26.01.2017 15:26 0,8 C 67 % 1025,8 hPa 0,0 l/m 28,4 km/h (4 Bft) NO 44 2 min 0,000 mm 0,0 UV-I 182 W/m -4,6 C -11,8 C 35,4 km/h (5 Bft) 100,00 %
26.01.2017 15:28 0,8 C 67 % 1025,8 hPa 0,0 l/m 26,5 km/h (4 Bft) NO 47 2 min 0,000 mm 0,0 UV-I 175 W/m -4,6 C -11,2 C 33,8 km/h (5 Bft) 100,00 %
26.01.2017 15:30 0,8 C 67 % 1025,8 hPa 0,0 l/m 26,3 km/h (4 Bft) NO 51 2 min 0,000 mm 0,0 UV-I 177 W/m -4,6 C -11,1 C 33,8 km/h (5 Bft) 100,00 %
26.01.2017 15:32 0,8 C 67 % 1025,8 hPa 0,0 l/m 25,3 km/h (4 Bft) O 80 2 min 0,000 mm 0,0 UV-I 173 W/m -4,6 C -10,7 C 33,8 km/h (5 Bft) 100,00 %
26.01.2017 15:34 0,8 C 67 % 1025,8 hPa 0,0 l/m 26,5 km/h (4 Bft) O-NO 57 2 min 0,000 mm 0,0 UV-I 166 W/m -4,6 C -11,2 C 38,6 km/h (5 Bft) 100,00 %
26.01.2017 15:36 0,8 C 67 % 1025,8 hPa 0,0 l/m 27,7 km/h (4 Bft) NO 53 2 min 0,000 mm 0,0 UV-I 161 W/m -4,6 C -11,6 C 38,6 km/h (5 Bft) 100,00 %
26.01.2017 15:38 0,8 C 67 % 1025,8 hPa 0,0 l/m 28,7 km/h (4 Bft) NO 44 2 min 0,000 mm 0,0 UV-I 156 W/m -4,6 C -11,9 C 41,8 km/h (6 Bft) 100,00 %
26.01.2017 15:40 0,8 C 67 % 1025,8 hPa 0,0 l/m 28,7 km/h (4 Bft) NO 44 2 min 0,000 mm 0,0 UV-I 149 W/m -4,6 C -11,9 C 38,6 km/h (5 Bft) 100,00 %
26.01.2017 15:42 0,8 C 67 % 1025,7 hPa 0,0 l/m 27,2 km/h (4 Bft) O-NO 75 2 min 0,000 mm 0,0 UV-I 145 W/m -4,6 C -11,4 C 33,8 km/h (5 Bft) 100,00 %
26.01.2017 15:44 0,8 C 67 % 1025,7 hPa 0,0 l/m 27,5 km/h (4 Bft) O-NO 60 2 min 0,000 mm 0,0 UV-I 131 W/m -4,6 C -11,5 C 35,4 km/h (5 Bft) 100,00 %
26.01.2017 15:46 0,8 C 67 % 1025,6 hPa 0,0 l/m 27,3 km/h (4 Bft) NO 53 2 min 0,000 mm 0,0 UV-I 126 W/m -4,6 C -11,4 C 35,4 km/h (5 Bft) 100,00 %
26.01.2017 15:48 0,8 C 67 % 1025,7 hPa 0,0 l/m 25,9 km/h (4 Bft) O-NO 67 2 min 0,000 mm 0,0 UV-I 126 W/m -4,6 C -11,0 C 33,8 km/h (5 Bft) 100,00 %
26.01.2017 15:50 0,8 C 67 % 1025,7 hPa 0,0 l/m 26,3 km/h (4 Bft) NO 46 2 min 0,000 mm 0,0 UV-I 120 W/m -4,6 C -11,1 C 40,2 km/h (6 Bft) 100,00 %
26.01.2017 15:52 0,7 C 67 % 1025,6 hPa 0,0 l/m 29,9 km/h (5 Bft) O-NO 59 2 min 0,000 mm 0,0 UV-I 113 W/m -4,7 C -12,4 C 38,6 km/h (5 Bft) 100,00 %
26.01.2017 15:54 0,7 C 67 % 1025,6 hPa 0,0 l/m 30,0 km/h (5 Bft) NO 43 2 min 0,000 mm 0,0 UV-I 114 W/m -4,7 C -12,4 C 41,8 km/h (6 Bft) 100,00 %
26.01.2017 15:56 0,7 C 67 % 1025,6 hPa 0,0 l/m 30,0 km/h (5 Bft) O-NO 59 2 min 0,000 mm 0,0 UV-I 113 W/m -4,7 C -12,4 C 38,6 km/h (5 Bft) 100,00 %
26.01.2017 15:58 0,7 C 67 % 1025,6 hPa 0,0 l/m 28,8 km/h (4 Bft) O-NO 74 2 min 0,000 mm 0,0 UV-I 112 W/m -4,7 C -12,1 C 37,0 km/h (5 Bft) 100,00 %
26.01.2017 16:00 0,7 C 67 % 1025,6 hPa 0,0 l/m 28,6 km/h (4 Bft) NO 51 2 min 0,000 mm 0,0 UV-I 106 W/m -4,7 C -12,0 C 38,6 km/h (5 Bft) 100,00 %
26.01.2017 16:02 0,7 C 67 % 1025,6 hPa 0,0 l/m 26,1 km/h (4 Bft) O-NO 73 2 min 0,127 mm 0,0 UV-I 102 W/m -4,7 C -11,2 C 35,4 km/h (5 Bft) 100,00 %
26.01.2017 16:04 0,7 C 67 % 1025,6 hPa 0,0 l/m 30,3 km/h (5 Bft) O-NO 61 2 min 0,000 mm 0,0 UV-I 90 W/m -4,7 C -12,5 C 38,6 km/h (5 Bft) 98,11 %
26.01.2017 16:06 0,7 C 67 % 1025,6 hPa 0,0 l/m 27,9 km/h (4 Bft) NO 50 2 min 0,000 mm 0,0 UV-I 89 W/m -4,7 C -11,8 C 35,4 km/h (5 Bft) 100,00 %
26.01.2017 16:08 0,7 C 67 % 1025,6 hPa 0,0 l/m 27,0 km/h (4 Bft) NO 44 2 min 0,000 mm 0,0 UV-I 87 W/m -4,7 C -11,5 C 37,0 km/h (5 Bft) 100,00 %
26.01.2017 16:10 0,7 C 67 % 1025,6 hPa 0,0 l/m 25,2 km/h (4 Bft) O-NO 77 2 min 0,000 mm 0,0 UV-I 84 W/m -4,7 C -10,8 C 33,8 km/h (5 Bft) 100,00 %
26.01.2017 16:12 0,7 C 67 % 1025,6 hPa 0,0 l/m 25,3 km/h (4 Bft) NO 53 2 min 0,000 mm 0,0 UV-I 80 W/m -4,7 C -10,9 C 33,8 km/h (5 Bft) 97,14 %
26.01.2017 16:14 0,7 C 67 % 1025,6 hPa 0,0 l/m 27,2 km/h (4 Bft) O-NO 60 2 min 0,000 mm 0,0 UV-I 76 W/m -4,7 C -11,5 C 38,6 km/h (5 Bft) 98,21 %
26.01.2017 16:16 0,7 C 67 % 1025,6 hPa 0,0 l/m 26,1 km/h (4 Bft) NO 44 2 min 0,000 mm 0,0 UV-I 71 W/m -4,7 C -11,2 C 35,4 km/h (5 Bft) 100,00 %
26.01.2017 16:18 0,6 C 67 % 1025,6 hPa 0,0 l/m 30,3 km/h (5 Bft) O-NO 63 2 min 0,000 mm 0,0 UV-I 69 W/m -4,8 C -12,7 C 37,0 km/h (5 Bft) 100,00 %
26.01.2017 16:20 0,6 C 67 % 1025,6 hPa 0,0 l/m 24,1 km/h (4 Bft) O-NO 65 2 min 0,000 mm 0,0 UV-I 66 W/m -4,8 C -10,6 C 33,8 km/h (5 Bft) 97,56 %
26.01.2017 16:22 0,6 C 67 % 1025,5 hPa 0,0 l/m 26,4 km/h (4 Bft) O-NO 67 2 min 0,000 mm 0,0 UV-I 61 W/m -4,8 C -11,4 C 35,4 km/h (5 Bft) 100,00 %
26.01.2017 16:24 0,5 C 68 % 1025,5 hPa 0,0 l/m 26,2 km/h (4 Bft) O-NO 59 2 min 0,000 mm 0,0 UV-I 55 W/m -4,7 C -11,5 C 35,4 km/h (5 Bft) 100,00 %
26.01.2017 16:26 0,5 C 67 % 1025,5 hPa 0,0 l/m 27,4 km/h (4 Bft) O-NO 63 2 min 0,000 mm 0,0 UV-I 52 W/m -4,9 C -11,9 C 35,4 km/h (5 Bft) 100,00 %
26.01.2017 16:28 0,5 C 67 % 1025,5 hPa 0,0 l/m 24,6 km/h (4 Bft) NO 55 2 min 0,000 mm 0,0 UV-I 46 W/m -4,9 C -10,9 C 38,6 km/h (5 Bft) 98,00 %
26.01.2017 16:30 0,5 C 67 % 1025,6 hPa 0,0 l/m 26,0 km/h (4 Bft) NO 47 2 min 0,000 mm 0,0 UV-I 40 W/m -4,9 C -11,4 C 35,4 km/h (5 Bft) 97,87 %
26.01.2017 16:32 0,5 C 67 % 1025,5 hPa 0,0 l/m 26,3 km/h (4 Bft) NO 55 2 min 0,000 mm 0,0 UV-I 39 W/m -4,9 C -11,5 C 35,4 km/h (5 Bft) 97,87 %
26.01.2017 16:34 0,4 C 68 % 1025,6 hPa 0,0 l/m 22,5 km/h (4 Bft) NO 37 2 min 0,000 mm 0,0 UV-I 36 W/m -4,8 C -10,2 C 29,0 km/h (5 Bft) 97,56 %
26.01.2017 16:36 0,4 C 68 % 1025,6 hPa 0,0 l/m 22,9 km/h (4 Bft) O-NO 69 2 min 0,000 mm 0,0 UV-I 29 W/m -4,8 C -10,4 C 30,6 km/h (5 Bft) 100,00 %
26.01.2017 16:38 0,3 C 68 % 1025,6 hPa 0,0 l/m 22,3 km/h (4 Bft) O-NO 58 2 min 0,000 mm 0,0 UV-I 26 W/m -4,9 C -10,3 C 29,0 km/h (5 Bft) 100,00 %
26.01.2017 16:40 0,3 C 68 % 1025,6 hPa 0,0 l/m 25,5 km/h (4 Bft) NO 55 2 min 0,000 mm 0,0 UV-I 25 W/m -4,9 C -11,5 C 35,4 km/h (5 Bft) 100,00 %
26.01.2017 16:42 0,3 C 68 % 1025,5 hPa 0,0 l/m 23,0 km/h (4 Bft) NO 45 2 min 0,000 mm 0,0 UV-I 24 W/m -4,9 C -10,5 C 32,2 km/h (5 Bft) 98,36 %
26.01.2017 16:44 0,2 C 68 % 1025,6 hPa 0,0 l/m 26,1 km/h (4 Bft) NO 44 0 min 0,000 mm 0,0 UV-I 20 W/m -5,0 C -11,8 C 33,8 km/h (5 Bft) 100,00 %
26.01.2017 16:46 0,3 C 68 % 1025,5 hPa 0,0 l/m 27,7 km/h (4 Bft) O-NO 74 0 min 0,000 mm 0,0 UV-I 18 W/m -4,9 C -12,3 C 35,4 km/h (5 Bft) 97,22 %
26.01.2017 16:48 0,3 C 68 % 1025,6 hPa 0,0 l/m 28,1 km/h (4 Bft) O-NO 74 0 min 0,000 mm 0,0 UV-I 15 W/m -4,9 C -12,4 C 32,2 km/h (5 Bft) 100,00 %
26.01.2017 16:50 0,2 C 68 % 1025,6 hPa 0,0 l/m 22,7 km/h (4 Bft) NO 49 0 min 0,000 mm 0,0 UV-I 12 W/m -5,0 C -10,6 C 32,2 km/h (5 Bft) 98,00 %
26.01.2017 16:52 0,2 C 69 % 1025,7 hPa 0,0 l/m 25,6 km/h (4 Bft) O-NO 61 0 min 0,000 mm 0,0 UV-I 11 W/m -4,8 C -11,7 C 33,8 km/h (5 Bft) 93,18 %
26.01.2017 16:54 0,1 C 69 % 1025,7 hPa 0,0 l/m 25,0 km/h (4 Bft) O-NO 63 0 min 0,000 mm 0,0 UV-I 11 W/m -4,9 C -11,6 C 30,6 km/h (5 Bft) 97,56 %
26.01.2017 16:56 0,1 C 69 % 1025,7 hPa 0,0 l/m 24,9 km/h (4 Bft) NO 47 0 min 0,000 mm 0,0 UV-I 10 W/m -4,9 C -11,5 C 32,2 km/h (5 Bft) 98,00 %
26.01.2017 16:58 0,1 C 69 % 1025,6 hPa 0,0 l/m 22,0 km/h (4 Bft) NO 44 0 min 0,000 mm 0,0 UV-I 9 W/m -4,9 C -10,4 C 29,0 km/h (5 Bft) 95,74 %
26.01.2017 17:00 0,0 C 69 % 1025,6 hPa 0,0 l/m 26,2 km/h (4 Bft) O-NO 73 0 min 0,000 mm 0,0 UV-I 8 W/m -5,0 C -12,2 C 37,0 km/h (5 Bft) 96,23 %
26.01.2017 17:02 0,0 C 69 % 1025,7 hPa 0,0 l/m 24,7 km/h (4 Bft) O-NO 65 0 min 0,076 mm 0,0 UV-I 7 W/m -5,0 C -11,6 C 32,2 km/h (5 Bft) 97,37 %
26.01.2017 17:04 -0,1 C 69 % 1025,6 hPa 0,0 l/m 26,3 km/h (4 Bft) O-NO 58 0 min 0,000 mm 0,0 UV-I 7 W/m -5,1 C -12,3 C 33,8 km/h (5 Bft) 98,21 %
26.01.2017 17:06 -0,1 C 69 % 1025,6 hPa 0,0 l/m 30,4 km/h (5 Bft) O-NO 57 0 min 0,000 mm 0,0 UV-I 7 W/m -5,1 C -13,7 C 38,6 km/h (5 Bft) 94,29 %
26.01.2017 17:08 -0,1 C 70 % 1025,6 hPa 0,0 l/m 26,9 km/h (4 Bft) O-NO 63 0 min 0,000 mm 0,0 UV-I 6 W/m -4,9 C -12,5 C 33,8 km/h (5 Bft) 98,21 %
26.01.2017 17:10 -0,2 C 70 % 1025,6 hPa 0,0 l/m 27,9 km/h (4 Bft) O-NO 62 0 min 0,000 mm 0,0 UV-I 5 W/m -5,0 C -13,0 C 38,6 km/h (5 Bft) 97,37 %
26.01.2017 17:12 -0,2 C 70 % 1025,5 hPa 0,0 l/m 31,6 km/h (5 Bft) NO 51 0 min 0,000 mm 0,0 UV-I 5 W/m -5,0 C -14,2 C 40,2 km/h (6 Bft) 97,87 %
26.01.2017 17:14 -0,2 C 70 % 1025,5 hPa 0,0 l/m 26,5 km/h (4 Bft) O-NO 65 0 min 0,000 mm 0,0 UV-I 3 W/m -5,0 C -12,5 C 35,4 km/h (5 Bft) 98,00 %
26.01.2017 17:16 -0,2 C 70 % 1025,6 hPa 0,0 l/m 27,5 km/h (4 Bft) O-NO 59 0 min 0,000 mm 0,0 UV-I 0 W/m -5,0 C -12,9 C 40,2 km/h (6 Bft) 96,00 %
26.01.2017 17:18 -0,3 C 70 % 1025,5 hPa 0,0 l/m 28,4 km/h (4 Bft) NO 42 0 min 0,000 mm 0,0 UV-I 0 W/m -5,1 C -13,3 C 38,6 km/h (5 Bft) 98,00 %
26.01.2017 17:20 -0,3 C 71 % 1025,5 hPa 0,0 l/m 26,7 km/h (4 Bft) O-NO 61 0 min 0,000 mm 0,0 UV-I 0 W/m -4,9 C -12,7 C 33,8 km/h (5 Bft) 97,73 %
26.01.2017 17:22 -0,3 C 71 % 1025,6 hPa 0,0 l/m 25,6 km/h (4 Bft) O-NO 67 0 min 0,000 mm 0,0 UV-I 0 W/m -4,9 C -12,3 C 33,8 km/h (5 Bft) 97,62 %
26.01.2017 17:24 -0,4 C 71 % 1025,6 hPa 0,0 l/m 26,4 km/h (4 Bft) O-NO 76 0 min 0,000 mm 0,0 UV-I 0 W/m -5,0 C -12,8 C 37,0 km/h (5 Bft) 94,55 %
26.01.2017 17:26 -0,4 C 71 % 1025,6 hPa 0,0 l/m 29,3 km/h (5 Bft) O-NO 65 0 min 0,000 mm 0,0 UV-I 0 W/m -5,0 C -13,7 C 40,2 km/h (6 Bft) 97,44 %
26.01.2017 17:28 -0,4 C 71 % 1025,6 hPa 0,0 l/m 32,6 km/h (5 Bft) O-NO 59 0 min 0,000 mm 0,0 UV-I 0 W/m -5,0 C -14,7 C 45,1 km/h (6 Bft) 98,00 %
26.01.2017 17:30 -0,4 C 71 % 1025,5 hPa 0,0 l/m 31,4 km/h (5 Bft) O-NO 60 0 min 0,000 mm 0,0 UV-I 0 W/m -5,0 C -14,4 C 45,1 km/h (6 Bft) 97,87 %
26.01.2017 17:32 -0,4 C 71 % 1025,5 hPa 0,0 l/m 32,1 km/h (5 Bft) O-NO 61 0 min 0,000 mm 0,0 UV-I 0 W/m -5,0 C -14,6 C 40,2 km/h (6 Bft) 98,00 %
26.01.2017 17:34 -0,4 C 71 % 1025,5 hPa 0,0 l/m 30,4 km/h (5 Bft) O-NO 71 0 min 0,000 mm 0,0 UV-I 0 W/m -5,0 C -14,1 C 40,2 km/h (6 Bft) 100,00 %
26.01.2017 17:36 -0,4 C 71 % 1025,5 hPa 0,0 l/m 29,2 km/h (5 Bft) NO 53 0 min 0,000 mm 0,0 UV-I 0 W/m -5,0 C -13,7 C 37,0 km/h (5 Bft) 100,00 %
26.01.2017 17:38 -0,5 C 71 % 1025,5 hPa 0,0 l/m 28,5 km/h (4 Bft) O-NO 58 0 min 0,000 mm 0,0 UV-I 0 W/m -5,1 C -13,6 C 38,6 km/h (5 Bft) 100,00 %
26.01.2017 17:40 -0,5 C 71 % 1025,4 hPa 0,0 l/m 33,6 km/h (5 Bft) O 81 0 min 0,000 mm 0,0 UV-I 0 W/m -5,1 C -15,1 C 43,5 km/h (6 Bft) 95,74 %
26.01.2017 17:42 -0,5 C 71 % 1025,3 hPa 0,0 l/m 30,9 km/h (5 Bft) NO 55 0 min 0,000 mm 0,0 UV-I 0 W/m -5,1 C -14,4 C 41,8 km/h (6 Bft) 100,00 %
26.01.2017 17:44 -0,5 C 71 % 1025,3 hPa 0,0 l/m 32,2 km/h (5 Bft) NO 56 0 min 0,000 mm 0,0 UV-I 0 W/m -5,1 C -14,8 C 41,8 km/h (6 Bft) 100,00 %
26.01.2017 17:46 -0,6 C 71 % 1025,3 hPa 0,0 l/m 33,5 km/h (5 Bft) NO 45 0 min 0,000 mm 0,0 UV-I 0 W/m -5,2 C -15,3 C 45,1 km/h (6 Bft) 100,00 %
26.01.2017 17:48 -0,6 C 71 % 1025,3 hPa 0,0 l/m 32,3 km/h (5 Bft) O-NO 71 0 min 0,000 mm 0,0 UV-I 0 W/m -5,2 C -14,9 C 43,5 km/h (6 Bft) 100,00 %
26.01.2017 17:50 -0,6 C 71 % 1025,3 hPa 0,0 l/m 30,4 km/h (5 Bft) O 96 0 min 0,000 mm 0,0 UV-I 0 W/m -5,2 C -14,4 C 43,5 km/h (6 Bft) 100,00 %
26.01.2017 17:52 -0,6 C 71 % 1025,3 hPa 0,0 l/m 31,6 km/h (5 Bft) O-NO 65 0 min 0,000 mm 0,0 UV-I 0 W/m -5,2 C -14,7 C 40,2 km/h (6 Bft) 100,00 %
26.01.2017 17:54 -0,6 C 71 % 1025,4 hPa 0,0 l/m 35,0 km/h (5 Bft) O-NO 61 0 min 0,000 mm 0,0 UV-I 0 W/m -5,2 C -15,7 C 53,1 km/h (7 Bft) 100,00 %
26.01.2017 17:56 -0,6 C 72 % 1025,3 hPa 0,0 l/m 31,2 km/h (5 Bft) O-NO 76 0 min 0,000 mm 0,0 UV-I 0 W/m -5,0 C -14,6 C 38,6 km/h (5 Bft) 100,00 %
26.01.2017 17:58 -0,6 C 72 % 1025,4 hPa 0,0 l/m 30,9 km/h (5 Bft) NO 42 0 min 0,000 mm 0,0 UV-I 0 W/m -5,0 C -14,5 C 43,5 km/h (6 Bft) 100,00 %
26.01.2017 18:00 -0,6 C 71 % 1025,4 hPa 0,0 l/m 30,0 km/h (5 Bft) NO 53 0 min 0,000 mm 0,0 UV-I 0 W/m -5,2 C -14,3 C 40,2 km/h (6 Bft) 98,00 %
26.01.2017 18:02 -0,6 C 71 % 1025,4 hPa 0,0 l/m 28,4 km/h (4 Bft) O-NO 74 0 min 0,051 mm 0,0 UV-I 0 W/m -5,2 C -13,7 C 37,0 km/h (5 Bft) 100,00 %
26.01.2017 18:04 -0,7 C 72 % 1025,4 hPa 0,0 l/m 28,8 km/h (4 Bft) NO 35 0 min 0,000 mm 0,0 UV-I 0 W/m -5,1 C -14,0 C 38,6 km/h (5 Bft) 100,00 %
26.01.2017 18:06 -0,7 C 72 % 1025,3 hPa 0,0 l/m 30,8 km/h (5 Bft) NO 53 0 min 0,000 mm 0,0 UV-I 0 W/m -5,1 C -14,6 C 40,2 km/h (6 Bft) 100,00 %
26.01.2017 18:08 -0,7 C 72 % 1025,4 hPa 0,0 l/m 31,1 km/h (5 Bft) O-NO 63 0 min 0,000 mm 0,0 UV-I 0 W/m -5,1 C -14,7 C 38,6 km/h (5 Bft) 100,00 %
26.01.2017 18:10 -0,7 C 72 % 1025,4 hPa 0,0 l/m 33,4 km/h (5 Bft) NO 42 0 min 0,000 mm 0,0 UV-I 0 W/m -5,1 C -15,4 C 45,1 km/h (6 Bft) 98,00 %
26.01.2017 18:12 -0,7 C 72 % 1025,4 hPa 0,0 l/m 34,1 km/h (5 Bft) O-NO 69 0 min 0,000 mm 0,0 UV-I 0 W/m -5,1 C -15,6 C 49,9 km/h (6 Bft) 98,11 %
26.01.2017 18:14 -0,7 C 72 % 1025,3 hPa 0,0 l/m 31,7 km/h (5 Bft) O-NO 63 0 min 0,000 mm 0,0 UV-I 0 W/m -5,1 C -14,9 C 43,5 km/h (6 Bft) 100,00 %
26.01.2017 18:16 -0,7 C 72 % 1025,4 hPa 0,0 l/m 36,5 km/h (5 Bft) O-NO 78 0 min 0,000 mm 0,0 UV-I 0 W/m -5,1 C -16,2 C 45,1 km/h (6 Bft) 100,00 %
26.01.2017 18:18 -0,7 C 72 % 1025,3 hPa 0,0 l/m 30,1 km/h (5 Bft) NO 51 0 min 0,000 mm 0,0 UV-I 0 W/m -5,1 C -14,4 C 38,6 km/h (5 Bft) 100,00 %
26.01.2017 18:20 -0,8 C 72 % 1025,4 hPa 0,0 l/m 32,1 km/h (5 Bft) O-NO 67 0 min 0,000 mm 0,0 UV-I 0 W/m -5,2 C -15,2 C 45,1 km/h (6 Bft) 98,11 %
26.01.2017 18:22 -0,8 C 72 % 1025,3 hPa 0,0 l/m 27,9 km/h (4 Bft) NO 56 0 min 0,000 mm 0,0 UV-I 0 W/m -5,2 C -13,8 C 37,0 km/h (5 Bft) 100,00 %
26.01.2017 18:24 -0,8 C 72 % 1025,4 hPa 0,0 l/m 35,1 km/h (5 Bft) O-NO 72 0 min 0,000 mm 0,0 UV-I 0 W/m -5,2 C -16,0 C 46,7 km/h (6 Bft) 98,00 %
26.01.2017 18:26 -0,8 C 72 % 1025,4 hPa 0,0 l/m 32,1 km/h (5 Bft) NO 49 0 min 0,000 mm 0,0 UV-I 0 W/m -5,2 C -15,2 C 45,1 km/h (6 Bft) 100,00 %
26.01.2017 18:28 -0,8 C 72 % 1025,4 hPa 0,0 l/m 27,6 km/h (4 Bft) O 83 0 min 0,000 mm 0,0 UV-I 0 W/m -5,2 C -13,7 C 37,0 km/h (5 Bft) 100,00 %
26.01.2017 18:30 -0,9 C 72 % 1025,4 hPa 0,0 l/m 31,1 km/h (5 Bft) NO 56 0 min 0,000 mm 0,0 UV-I 0 W/m -5,3 C -15,0 C 41,8 km/h (6 Bft) 100,00 %
26.01.2017 18:32 -0,9 C 72 % 1025,4 hPa 0,0 l/m 29,1 km/h (5 Bft) O-NO 61 0 min 0,000 mm 0,0 UV-I 0 W/m -5,3 C -14,4 C 43,5 km/h (6 Bft) 97,56 %
26.01.2017 18:34 -0,9 C 72 % 1025,4 hPa 0,0 l/m 33,1 km/h (5 Bft) O-NO 78 0 min 0,000 mm 0,0 UV-I 0 W/m -5,3 C -15,6 C 41,8 km/h (6 Bft) 100,00 %
26.01.2017 18:36 -0,9 C 73 % 1025,3 hPa 0,0 l/m 31,9 km/h (5 Bft) O-NO 61 0 min 0,000 mm 0,0 UV-I 0 W/m -5,1 C -15,2 C 43,5 km/h (6 Bft) 100,00 %
26.01.2017 18:38 -1,0 C 73 % 1025,2 hPa 0,0 l/m 29,4 km/h (5 Bft) O-NO 65 0 min 0,000 mm 0,0 UV-I 0 W/m -5,2 C -14,6 C 41,8 km/h (6 Bft) 97,73 %
26.01.2017 18:40 -1,1 C 73 % 1025,2 hPa 0,0 l/m 30,2 km/h (5 Bft) NO 46 0 min 0,000 mm 0,0 UV-I 0 W/m -5,3 C -15,0 C 40,2 km/h (6 Bft) 100,00 %
26.01.2017 18:42 -1,1 C 73 % 1025,3 hPa 0,0 l/m 24,9 km/h (4 Bft) NO 54 0 min 0,000 mm 0,0 UV-I 0 W/m -5,3 C -13,2 C 33,8 km/h (5 Bft) 100,00 %
26.01.2017 18:44 -1,1 C 73 % 1025,2 hPa 0,0 l/m 27,2 km/h (4 Bft) NO 48 0 min 0,000 mm 0,0 UV-I 0 W/m -5,3 C -14,0 C 40,2 km/h (6 Bft) 98,08 %
26.01.2017 18:46 -1,2 C 73 % 1025,2 hPa 0,0 l/m 24,5 km/h (4 Bft) NO 54 0 min 0,000 mm 0,0 UV-I 0 W/m -5,4 C -13,1 C 33,8 km/h (5 Bft) 100,00 %
26.01.2017 18:48 -1,2 C 73 % 1025,2 hPa 0,0 l/m 26,0 km/h (4 Bft) O-NO 65 0 min 0,000 mm 0,0 UV-I 0 W/m -5,4 C -13,7 C 32,2 km/h (5 Bft) 98,11 %
26.01.2017 18:50 -1,2 C 74 % 1025,2 hPa 0,0 l/m 23,0 km/h (4 Bft) O-NO 59 0 min 0,000 mm 0,0 UV-I 0 W/m -5,2 C -12,5 C 37,0 km/h (5 Bft) 100,00 %
26.01.2017 18:52 -1,3 C 74 % 1025,2 hPa 0,0 l/m 27,0 km/h (4 Bft) O-NO 60 0 min 0,000 mm 0,0 UV-I 0 W/m -5,3 C -14,2 C 37,0 km/h (5 Bft) 100,00 %
26.01.2017 18:54 -1,3 C 74 % 1025,2 hPa 0,0 l/m 25,3 km/h (4 Bft) O-NO 66 0 min 0,000 mm 0,0 UV-I 0 W/m -5,3 C -13,6 C 32,2 km/h (5 Bft) 100,00 %
26.01.2017 18:56 -1,3 C 74 % 1025,2 hPa 0,0 l/m 26,9 km/h (4 Bft) O-NO 57 0 min 0,000 mm 0,0 UV-I 0 W/m -5,3 C -14,2 C 38,6 km/h (5 Bft) 98,00 %
26.01.2017 18:58 -1,3 C 74 % 1025,1 hPa 0,0 l/m 24,1 km/h (4 Bft) NO 53 0 min 0,000 mm 0,0 UV-I 0 W/m -5,3 C -13,1 C 33,8 km/h (5 Bft) 92,68 %
26.01.2017 19:00 -1,3 C 74 % 1025,1 hPa 0,0 l/m 27,0 km/h (4 Bft) O-NO 67 0 min 0,000 mm 0,0 UV-I 0 W/m -5,3 C -14,2 C 33,8 km/h (5 Bft) 95,45 %
26.01.2017 19:02 -1,3 C 74 % 1025,1 hPa 0,0 l/m 27,5 km/h (4 Bft) O-NO 63 0 min 0,051 mm 0,0 UV-I 0 W/m -5,3 C -14,4 C 35,4 km/h (5 Bft) 98,00 %
26.01.2017 19:04 -1,3 C 74 % 1025,2 hPa 0,0 l/m 25,6 km/h (4 Bft) NO 55 0 min 0,000 mm 0,0 UV-I 0 W/m -5,3 C -13,7 C 35,4 km/h (5 Bft) 95,12 %
26.01.2017 19:06 -1,3 C 74 % 1025,1 hPa 0,0 l/m 25,5 km/h (4 Bft) O-NO 63 0 min 0,000 mm 0,0 UV-I 0 W/m -5,3 C -13,7 C 32,2 km/h (5 Bft) 97,73 %
26.01.2017 19:08 -1,3 C 74 % 1025,1 hPa 0,0 l/m 25,9 km/h (4 Bft) NO 51 0 min 0,000 mm 0,0 UV-I 0 W/m -5,3 C -13,8 C 37,0 km/h (5 Bft) 98,11 %
26.01.2017 19:10 -1,3 C 74 % 1025,1 hPa 0,0 l/m 23,2 km/h (4 Bft) O 88 0 min 0,000 mm 0,0 UV-I 0 W/m -5,3 C -12,8 C 32,2 km/h (5 Bft) 95,74 %
26.01.2017 19:12 -1,4 C 74 % 1025,0 hPa 0,0 l/m 21,0 km/h (4 Bft) O-NO 59 0 min 0,000 mm 0,0 UV-I 0 W/m -5,4 C -11,9 C 29,0 km/h (5 Bft) 97,56 %
26.01.2017 19:14 -1,4 C 74 % 1025,0 hPa 0,0 l/m 22,8 km/h (4 Bft) O-NO 73 0 min 0,000 mm 0,0 UV-I 0 W/m -5,4 C -12,7 C 30,6 km/h (5 Bft) 98,31 %
26.01.2017 19:16 -1,4 C 75 % 1025,1 hPa 0,0 l/m 22,7 km/h (4 Bft) O-NO 61 0 min 0,000 mm 0,0 UV-I 0 W/m -5,2 C -12,7 C 29,0 km/h (5 Bft) 95,74 %
26.01.2017 19:18 -1,5 C 75 % 1025,0 hPa 0,0 l/m 22,4 km/h (4 Bft) NO 52 0 min 0,000 mm 0,0 UV-I 0 W/m -5,3 C -12,7 C 30,6 km/h (5 Bft) 97,56 %
26.01.2017 19:20 -1,5 C 75 % 1025,0 hPa 0,0 l/m 21,5 km/h (4 Bft) NO 42 0 min 0,000 mm 0,0 UV-I 0 W/m -5,3 C -12,3 C 27,4 km/h (4 Bft) 96,23 %
26.01.2017 19:22 -1,6 C 75 % 1025,1 hPa 0,0 l/m 23,5 km/h (4 Bft) NO 53 0 min 0,000 mm 0,0 UV-I 0 W/m -5,4 C -13,3 C 30,6 km/h (5 Bft) 95,12 %
26.01.2017 19:24 -1,6 C 75 % 1025,1 hPa 0,0 l/m 20,4 km/h (4 Bft) NO 55 0 min 0,000 mm 0,0 UV-I 0 W/m -5,4 C -11,9 C 30,6 km/h (5 Bft) 97,92 %
26.01.2017 19:26 -1,6 C 75 % 1025,0 hPa 0,0 l/m 23,7 km/h (4 Bft) NO 56 0 min 0,000 mm 0,0 UV-I 0 W/m -5,4 C -13,4 C 29,0 km/h (5 Bft) 97,56 %
26.01.2017 19:28 -1,7 C 75 % 1025,1 hPa 0,0 l/m 23,2 km/h (4 Bft) O-NO 57 0 min 0,000 mm 0,0 UV-I 0 W/m -5,5 C -13,3 C 35,4 km/h (5 Bft) 98,21 %
26.01.2017 19:30 -1,7 C 75 % 1025,0 hPa 0,0 l/m 21,4 km/h (4 Bft) NO 56 0 min 0,000 mm 0,0 UV-I 0 W/m -5,5 C -12,5 C 27,4 km/h (4 Bft) 97,56 %
26.01.2017 19:32 -1,7 C 75 % 1025,1 hPa 0,0 l/m 18,1 km/h (3 Bft) O 88 0 min 0,000 mm 0,0 UV-I 0 W/m -5,5 C -10,9 C 32,2 km/h (5 Bft) 100,00 %
26.01.2017 19:34 -1,7 C 76 % 1025,0 hPa 0,0 l/m 24,1 km/h (4 Bft) O-NO 73 0 min 0,000 mm 0,0 UV-I 0 W/m -5,4 C -13,7 C 30,6 km/h (5 Bft) 100,00 %
26.01.2017 19:36 -1,7 C 76 % 1025,0 hPa 0,0 l/m 24,9 km/h (4 Bft) O-NO 71 0 min 0,000 mm 0,0 UV-I 0 W/m -5,4 C -14,0 C 35,4 km/h (5 Bft) 100,00 %
26.01.2017 19:39 -1,8 C 76 % 1025,1 hPa 0,0 l/m 25,4 km/h (4 Bft) O-NO 76 0 min 0,000 mm 0,0 UV-I 0 W/m -5,5 C -14,3 C 40,2 km/h (6 Bft) 98,39 %
26.01.2017 19:40 -1,8 C 76 % 1025,1 hPa 0,0 l/m 23,5 km/h (4 Bft) O-NO 61 0 min 0,000 mm 0,0 UV-I 0 W/m -5,5 C -13,5 C 29,0 km/h (5 Bft) 100,00 %
26.01.2017 19:42 -1,8 C 76 % 1025,1 hPa 0,0 l/m 19,1 km/h (3 Bft) O-NO 68 0 min 0,000 mm 0,0 UV-I 0 W/m -5,5 C -11,5 C 29,0 km/h (5 Bft) 100,00 %
26.01.2017 19:44 -1,8 C 76 % 1025,0 hPa 0,0 l/m 20,0 km/h (4 Bft) O-NO 57 0 min 0,000 mm 0,0 UV-I 0 W/m -5,5 C -12,0 C 32,2 km/h (5 Bft) 98,46 %
26.01.2017 19:46 -1,9 C 76 % 1025,0 hPa 0,0 l/m 21,3 km/h (4 Bft) O-NO 59 0 min 0,000 mm 0,0 UV-I 0 W/m -5,6 C -12,7 C 30,6 km/h (5 Bft) 100,00 %
26.01.2017 19:48 -1,9 C 76 % 1025,0 hPa 0,0 l/m 24,2 km/h (4 Bft) O-NO 78 0 min 0,000 mm 0,0 UV-I 0 W/m -5,6 C -14,0 C 32,2 km/h (5 Bft) 100,00 %
26.01.2017 19:50 -1,9 C 76 % 1025,0 hPa 0,0 l/m 25,7 km/h (4 Bft) O-NO 69 0 min 0,000 mm 0,0 UV-I 0 W/m -5,6 C -14,6 C 35,4 km/h (5 Bft) 98,21 %
26.01.2017 19:52 -1,9 C 76 % 1025,0 hPa 0,0 l/m 26,0 km/h (4 Bft) O-NO 60 0 min 0,000 mm 0,0 UV-I 0 W/m -5,6 C -14,7 C 33,8 km/h (5 Bft) 100,00 %
26.01.2017 19:54 -1,9 C 76 % 1025,0 hPa 0,0 l/m 26,8 km/h (4 Bft) O-NO 76 0 min 0,000 mm 0,0 UV-I 0 W/m -5,6 C -15,0 C 38,6 km/h (5 Bft) 98,00 %
26.01.2017 19:56 -1,8 C 76 % 1024,9 hPa 0,0 l/m 23,9 km/h (4 Bft) O-NO 65 0 min 0,000 mm 0,0 UV-I 0 W/m -5,5 C -13,7 C 33,8 km/h (5 Bft) 100,00 %
26.01.2017 19:58 -1,9 C 76 % 1025,0 hPa 0,0 l/m 23,1 km/h (4 Bft) O-NO 73 0 min 0,000 mm 0,0 UV-I 0 W/m -5,6 C -13,5 C 29,0 km/h (5 Bft) 100,00 %
26.01.2017 20:00 -1,9 C 76 % 1024,9 hPa 0,0 l/m 24,3 km/h (4 Bft) O 93 0 min 0,000 mm 0,0 UV-I 0 W/m -5,6 C -14,0 C 35,4 km/h (5 Bft) 100,00 %
26.01.2017 20:02 -1,9 C 76 % 1024,9 hPa 0,0 l/m 26,6 km/h (4 Bft) O-NO 62 0 min 0,050 mm 0,0 UV-I 0 W/m -5,6 C -14,9 C 37,0 km/h (5 Bft) 100,00 %
26.01.2017 20:04 -1,9 C 76 % 1024,9 hPa 0,0 l/m 26,4 km/h (4 Bft) O-NO 74 0 min 0,000 mm 0,0 UV-I 0 W/m -5,6 C -14,8 C 37,0 km/h (5 Bft) 100,00 %
26.01.2017 20:06 -1,9 C 76 % 1024,9 hPa 0,0 l/m 25,8 km/h (4 Bft) O-NO 69 0 min 0,000 mm 0,0 UV-I 0 W/m -5,6 C -14,6 C 40,2 km/h (6 Bft) 97,62 %
26.01.2017 20:08 -1,9 C 76 % 1024,8 hPa 0,0 l/m 26,9 km/h (4 Bft) O-NO 65 0 min 0,000 mm 0,0 UV-I 0 W/m -5,6 C -15,0 C 37,0 km/h (5 Bft) 100,00 %
26.01.2017 20:10 -1,9 C 76 % 1024,9 hPa 0,0 l/m 20,9 km/h (4 Bft) O-NO 73 0 min 0,000 mm 0,0 UV-I 0 W/m -5,6 C -12,5 C 27,4 km/h (4 Bft) 100,00 %
26.01.2017 20:12 -1,9 C 76 % 1024,8 hPa 0,0 l/m 28,7 km/h (4 Bft) O-NO 63 0 min 0,000 mm 0,0 UV-I 0 W/m -5,6 C -15,6 C 38,6 km/h (5 Bft) 98,31 %
26.01.2017 20:14 -2,0 C 76 % 1024,9 hPa 0,0 l/m 27,3 km/h (4 Bft) O-NO 63 0 min 0,000 mm 0,0 UV-I 0 W/m -5,6 C -15,3 C 38,6 km/h (5 Bft) 94,74 %
26.01.2017 20:16 -2,0 C 76 % 1024,8 hPa 0,0 l/m 26,4 km/h (4 Bft) O-NO 67 0 min 0,000 mm 0,0 UV-I 0 W/m -5,6 C -15,0 C 35,4 km/h (5 Bft) 96,43 %
26.01.2017 20:18 -1,9 C 76 % 1024,8 hPa 0,0 l/m 30,0 km/h (5 Bft) NO 49 0 min 0,000 mm 0,0 UV-I 0 W/m -5,6 C -16,1 C 41,8 km/h (6 Bft) 97,73 %
26.01.2017 20:20 -2,0 C 76 % 1024,9 hPa 0,0 l/m 23,0 km/h (4 Bft) O 83 0 min 0,000 mm 0,0 UV-I 0 W/m -5,6 C -13,6 C 35,4 km/h (5 Bft) 100,00 %
26.01.2017 20:22 -2,0 C 76 % 1024,8 hPa 0,0 l/m 24,2 km/h (4 Bft) O-NO 63 0 min 0,000 mm 0,0 UV-I 0 W/m -5,6 C -14,1 C 33,8 km/h (5 Bft) 100,00 %
26.01.2017 20:24 -2,1 C 76 % 1024,9 hPa 0,0 l/m 23,3 km/h (4 Bft) O-NO 63 0 min 0,000 mm 0,0 UV-I 0 W/m -5,7 C -13,9 C 30,6 km/h (5 Bft) 97,50 %
26.01.2017 20:26 -2,1 C 76 % 1024,9 hPa 0,0 l/m 24,4 km/h (4 Bft) O-NO 69 0 min 0,000 mm 0,0 UV-I 0 W/m -5,7 C -14,3 C 33,8 km/h (5 Bft) 100,00 %
26.01.2017 20:28 -2,1 C 76 % 1024,9 hPa 0,0 l/m 27,6 km/h (4 Bft) O-NO 59 0 min 0,000 mm 0,0 UV-I 0 W/m -5,7 C -15,5 C 38,6 km/h (5 Bft) 100,00 %
26.01.2017 20:30 -2,1 C 76 % 1024,9 hPa 0,0 l/m 26,2 km/h (4 Bft) NO 42 0 min 0,000 mm 0,0 UV-I 0 W/m -5,7 C -15,0 C 35,4 km/h (5 Bft) 100,00 %
26.01.2017 20:32 -2,1 C 76 % 1024,8 hPa 0,0 l/m 22,8 km/h (4 Bft) O-NO 73 0 min 0,000 mm 0,0 UV-I 0 W/m -5,7 C -13,6 C 33,8 km/h (5 Bft) 97,56 %
26.01.2017 20:34 -2,1 C 76 % 1024,8 hPa 0,0 l/m 24,4 km/h (4 Bft) O-NO 67 0 min 0,000 mm 0,0 UV-I 0 W/m -5,7 C -14,3 C 35,4 km/h (5 Bft) 100,00 %
26.01.2017 20:36 -2,2 C 76 % 1024,8 hPa 0,0 l/m 23,1 km/h (4 Bft) O-NO 69 0 min 0,000 mm 0,0 UV-I 0 W/m -5,8 C -13,9 C 30,6 km/h (5 Bft) 97,56 %
26.01.2017 20:38 -2,2 C 76 % 1024,8 hPa 0,0 l/m 23,4 km/h (4 Bft) O-NO 59 0 min 0,000 mm 0,0 UV-I 0 W/m -5,8 C -14,0 C 32,2 km/h (5 Bft) 98,11 %
26.01.2017 20:40 -2,2 C 76 % 1024,8 hPa 0,0 l/m 23,3 km/h (4 Bft) O-NO 72 0 min 0,000 mm 0,0 UV-I 0 W/m -5,8 C -14,0 C 33,8 km/h (5 Bft) 100,00 %
26.01.2017 20:42 -2,2 C 76 % 1024,8 hPa 0,0 l/m 24,9 km/h (4 Bft) O-NO 65 0 min 0,000 mm 0,0 UV-I 0 W/m -5,8 C -14,7 C 35,4 km/h (5 Bft) 100,00 %
26.01.2017 20:44 -2,3 C 76 % 1024,8 hPa 0,0 l/m 22,8 km/h (4 Bft) O 87 0 min 0,000 mm 0,0 UV-I 0 W/m -5,9 C -13,9 C 33,8 km/h (5 Bft) 100,00 %
26.01.2017 20:46 -2,3 C 77 % 1024,8 hPa 0,0 l/m 19,4 km/h (3 Bft) O-NO 77 0 min 0,000 mm 0,0 UV-I 0 W/m -5,8 C -12,3 C 25,7 km/h (4 Bft) 100,00 %
26.01.2017 20:48 -2,3 C 77 % 1024,7 hPa 0,0 l/m 23,4 km/h (4 Bft) NO 55 0 min 0,000 mm 0,0 UV-I 0 W/m -5,8 C -14,2 C 32,2 km/h (5 Bft) 100,00 %
26.01.2017 20:50 -2,3 C 77 % 1024,8 hPa 0,0 l/m 23,0 km/h (4 Bft) O-NO 58 0 min 0,000 mm 0,0 UV-I 0 W/m -5,8 C -14,0 C 30,6 km/h (5 Bft) 100,00 %
26.01.2017 20:52 -2,4 C 77 % 1024,8 hPa 0,0 l/m 23,4 km/h (4 Bft) O-NO 58 0 min 0,000 mm 0,0 UV-I 0 W/m -5,9 C -14,3 C 30,6 km/h (5 Bft) 97,56 %
26.01.2017 20:54 -2,4 C 77 % 1024,9 hPa 0,0 l/m 22,8 km/h (4 Bft) O-NO 76 0 min 0,000 mm 0,0 UV-I 0 W/m -5,9 C -14,0 C 32,2 km/h (5 Bft) 100,00 %
26.01.2017 20:56 -2,4 C 77 % 1024,9 hPa 0,0 l/m 19,0 km/h (3 Bft) O-NO 66 0 min 0,000 mm 0,0 UV-I 0 W/m -5,9 C -12,2 C 29,0 km/h (5 Bft) 100,00 %
26.01.2017 20:58 -2,5 C 77 % 1024,9 hPa 0,0 l/m 23,8 km/h (4 Bft) N-NO 30 0 min 0,000 mm 0,0 UV-I 0 W/m -6,0 C -14,6 C 35,4 km/h (5 Bft) 100,00 %
26.01.2017 21:00 -2,5 C 77 % 1024,9 hPa 0,0 l/m 21,8 km/h (4 Bft) O 81 0 min 0,000 mm 0,0 UV-I 0 W/m -6,0 C -13,7 C 29,0 km/h (5 Bft) 100,00 %
26.01.2017 21:02 -2,5 C 77 % 1024,9 hPa 0,0 l/m 17,1 km/h (3 Bft) O 81 0 min 0,026 mm 0,0 UV-I 0 W/m -6,0 C -11,3 C 24,1 km/h (4 Bft) 97,56 %
26.01.2017 21:04 -2,6 C 77 % 1025,0 hPa 0,0 l/m 18,3 km/h (3 Bft) NO 42 0 min 0,000 mm 0,0 UV-I 0 W/m -6,1 C -12,1 C 24,1 km/h (4 Bft) 98,00 %
26.01.2017 21:06 -2,6 C 77 % 1025,0 hPa 0,0 l/m 18,1 km/h (3 Bft) N-NO 31 0 min 0,000 mm 0,0 UV-I 0 W/m -6,1 C -12,0 C 27,4 km/h (4 Bft) 94,74 %
26.01.2017 21:08 -2,6 C 77 % 1024,9 hPa 0,0 l/m 17,0 km/h (3 Bft) NO 44 0 min 0,000 mm 0,0 UV-I 0 W/m -6,1 C -11,4 C 25,7 km/h (4 Bft) 98,00 %
26.01.2017 21:10 -2,6 C 77 % 1024,9 hPa 0,0 l/m 21,4 km/h (4 Bft) NO 46 0 min 0,000 mm 0,0 UV-I 0 W/m -6,1 C -13,7 C 29,0 km/h (5 Bft) 97,87 %
26.01.2017 21:12 -2,6 C 77 % 1024,9 hPa 0,0 l/m 15,1 km/h (3 Bft) O-NO 71 0 min 0,000 mm 0,0 UV-I 0 W/m -6,1 C -10,2 C 24,1 km/h (4 Bft) 97,87 %
26.01.2017 21:14 -2,6 C 77 % 1024,9 hPa 0,0 l/m 18,5 km/h (3 Bft) O-NO 69 0 min 0,000 mm 0,0 UV-I 0 W/m -6,1 C -12,2 C 25,7 km/h (4 Bft) 93,62 %
26.01.2017 21:16 -2,7 C 77 % 1025,0 hPa 0,0 l/m 17,1 km/h (3 Bft) O-NO 59 0 min 0,000 mm 0,0 UV-I 0 W/m -6,2 C -11,5 C 25,7 km/h (4 Bft) 97,56 %
26.01.2017 21:18 -2,7 C 78 % 1024,9 hPa 0,0 l/m 17,7 km/h (3 Bft) O-NO 65 0 min 0,000 mm 0,0 UV-I 0 W/m -6,0 C -11,9 C 29,0 km/h (5 Bft) 96,43 %
26.01.2017 21:20 -2,7 C 78 % 1025,0 hPa 0,0 l/m 14,8 km/h (3 Bft) O-NO 66 0 min 0,000 mm 0,0 UV-I 0 W/m -6,0 C -10,1 C 20,9 km/h (4 Bft) 96,00 %
26.01.2017 21:22 -2,7 C 78 % 1025,0 hPa 0,0 l/m 14,5 km/h (3 Bft) O-NO 57 0 min 0,000 mm 0,0 UV-I 0 W/m -6,0 C -9,9 C 20,9 km/h (4 Bft) 97,44 %
26.01.2017 21:24 -2,8 C 78 % 1025,0 hPa 0,0 l/m 12,1 km/h (2 Bft) O-NO 69 0 min 0,000 mm 0,0 UV-I 0 W/m -6,1 C -8,3 C 16,1 km/h (3 Bft) 97,87 %
26.01.2017 21:26 -2,8 C 78 % 1025,0 hPa 0,0 l/m 14,4 km/h (3 Bft) NO 56 0 min 0,000 mm 0,0 UV-I 0 W/m -6,1 C -10,0 C 20,9 km/h (4 Bft) 98,00 %
26.01.2017 21:28 -2,8 C 78 % 1025,0 hPa 0,0 l/m 16,6 km/h (3 Bft) O-NO 63 0 min 0,000 mm 0,0 UV-I 0 W/m -6,1 C -11,4 C 24,1 km/h (4 Bft) 98,00 %
26.01.2017 21:30 -2,8 C 78 % 1025,0 hPa 0,0 l/m 15,4 km/h (3 Bft) O-NO 59 0 min 0,000 mm 0,0 UV-I 0 W/m -6,1 C -10,6 C 22,5 km/h (4 Bft) 95,35 %
26.01.2017 21:33 -2,8 C 78 % 1025,0 hPa 0,0 l/m 17,0 km/h (3 Bft) O-NO 77 0 min 0,000 mm 0,0 UV-I 0 W/m -6,1 C -11,6 C 24,1 km/h (4 Bft) 97,01 %
26.01.2017 21:34 -2,8 C 78 % 1025,0 hPa 0,0 l/m 16,6 km/h (3 Bft) NO 53 0 min 0,000 mm 0,0 UV-I 0 W/m -6,1 C -11,4 C 20,9 km/h (4 Bft) 96,67 %
26.01.2017 21:36 -2,8 C 78 % 1025,0 hPa 0,0 l/m 15,8 km/h (3 Bft) O-NO 57 0 min 0,000 mm 0,0 UV-I 0 W/m -6,1 C -10,9 C 24,1 km/h (4 Bft) 96,00 %
26.01.2017 21:38 -2,8 C 78 % 1025,0 hPa 0,0 l/m 15,5 km/h (3 Bft) O-NO 62 0 min 0,000 mm 0,0 UV-I 0 W/m -6,1 C -10,7 C 20,9 km/h (4 Bft) 100,00 %
26.01.2017 21:40 -2,9 C 78 % 1025,0 hPa 0,0 l/m 18,9 km/h (3 Bft) NO 54 0 min 0,000 mm 0,0 UV-I 0 W/m -6,2 C -12,8 C 24,1 km/h (4 Bft) 100,00 %
26.01.2017 21:42 -2,8 C 78 % 1025,0 hPa 0,0 l/m 18,5 km/h (3 Bft) O-NO 71 0 min 0,000 mm 0,0 UV-I 0 W/m -6,1 C -12,5 C 27,4 km/h (4 Bft) 100,00 %
26.01.2017 21:44 -2,9 C 78 % 1025,0 hPa 0,0 l/m 15,5 km/h (3 Bft) O-NO 62 0 min 0,000 mm 0,0 UV-I 0 W/m -6,2 C -10,8 C 20,9 km/h (4 Bft) 94,74 %
26.01.2017 21:46 -2,9 C 78 % 1025,0 hPa 0,0 l/m 16,9 km/h (3 Bft) NO 50 0 min 0,000 mm 0,0 UV-I 0 W/m -6,2 C -11,7 C 22,5 km/h (4 Bft) 100,00 %
26.01.2017 21:48 -2,9 C 78 % 1025,0 hPa 0,0 l/m 19,2 km/h (3 Bft) O-NO 66 0 min 0,000 mm 0,0 UV-I 0 W/m -6,2 C -13,0 C 25,7 km/h (4 Bft) 100,00 %
26.01.2017 21:50 -2,9 C 78 % 1025,0 hPa 0,0 l/m 17,4 km/h (3 Bft) O-NO 71 0 min 0,000 mm 0,0 UV-I 0 W/m -6,2 C -12,0 C 25,7 km/h (4 Bft) 96,43 %
26.01.2017 21:52 -3,0 C 78 % 1025,1 hPa 0,0 l/m 15,2 km/h (3 Bft) NO 51 0 min 0,000 mm 0,0 UV-I 0 W/m -6,3 C -10,7 C 20,9 km/h (4 Bft) 100,00 %
26.01.2017 21:54 -3,0 C 78 % 1025,0 hPa 0,0 l/m 18,1 km/h (3 Bft) O-NO 76 0 min 0,000 mm 0,0 UV-I 0 W/m -6,3 C -12,5 C 27,4 km/h (4 Bft) 100,00 %
26.01.2017 21:56 -3,0 C 78 % 1025,1 hPa 0,0 l/m 16,9 km/h (3 Bft) O-NO 59 0 min 0,000 mm 0,0 UV-I 0 W/m -6,3 C -11,8 C 22,5 km/h (4 Bft) 97,87 %
26.01.2017 21:58 -3,0 C 78 % 1025,1 hPa 0,0 l/m 12,4 km/h (3 Bft) O-NO 65 0 min 0,000 mm 0,0 UV-I 0 W/m -6,3 C -8,8 C 17,7 km/h (3 Bft) 100,00 %
26.01.2017 22:00 -3,1 C 78 % 1025,1 hPa 0,0 l/m 16,3 km/h (3 Bft) O-NO 77 0 min 0,000 mm 0,0 UV-I 0 W/m -6,4 C -11,6 C 22,5 km/h (4 Bft) 100,00 %
26.01.2017 22:02 -3,1 C 78 % 1025,1 hPa 0,0 l/m 16,2 km/h (3 Bft) O 88 0 min 0,025 mm 0,0 UV-I 0 W/m -6,4 C -11,5 C 19,3 km/h (3 Bft) 100,00 %
26.01.2017 22:04 -3,1 C 78 % 1025,1 hPa 0,0 l/m 14,5 km/h (3 Bft) NO 49 0 min 0,000 mm 0,0 UV-I 0 W/m -6,4 C -10,4 C 20,9 km/h (4 Bft) 98,08 %
26.01.2017 22:06 -3,1 C 79 % 1025,1 hPa 0,0 l/m 16,7 km/h (3 Bft) NO 49 0 min 0,000 mm 0,0 UV-I 0 W/m -6,2 C -11,8 C 24,1 km/h (4 Bft) 100,00 %
26.01.2017 22:08 -3,1 C 78 % 1025,1 hPa 0,0 l/m 17,8 km/h (3 Bft) NO 54 0 min 0,000 mm 0,0 UV-I 0 W/m -6,4 C -12,5 C 27,4 km/h (4 Bft) 94,00 %
26.01.2017 22:10 -3,1 C 78 % 1025,1 hPa 0,0 l/m 15,5 km/h (3 Bft) O-NO 75 0 min 0,000 mm 0,0 UV-I 0 W/m -6,4 C -11,1 C 22,5 km/h (4 Bft) 98,00 %
26.01.2017 22:12 -3,1 C 78 % 1025,2 hPa 0,0 l/m 14,0 km/h (3 Bft) NO 44 0 min 0,000 mm 0,0 UV-I 0 W/m -6,4 C -10,1 C 17,7 km/h (3 Bft) 100,00 %
26.01.2017 22:14 -3,1 C 78 % 1025,2 hPa 0,0 l/m 17,1 km/h (3 Bft) O 79 0 min 0,000 mm 0,0 UV-I 0 W/m -6,4 C -12,0 C 27,4 km/h (4 Bft) 100,00 %
26.01.2017 22:16 -3,1 C 78 % 1025,2 hPa 0,0 l/m 15,1 km/h (3 Bft) O-NO 65 0 min 0,000 mm 0,0 UV-I 0 W/m -6,4 C -10,8 C 25,7 km/h (4 Bft) 100,00 %
26.01.2017 22:18 -3,1 C 78 % 1025,2 hPa 0,0 l/m 14,9 km/h (3 Bft) O 83 0 min 0,000 mm 0,0 UV-I 0 W/m -6,4 C -10,7 C 20,9 km/h (4 Bft) 98,21 %
26.01.2017 22:20 -3,1 C 78 % 1025,2 hPa 0,0 l/m 13,5 km/h (3 Bft) O 82 0 min 0,000 mm 0,0 UV-I 0 W/m -6,4 C -9,7 C 19,3 km/h (3 Bft) 98,21 %
26.01.2017 22:22 -3,2 C 78 % 1025,1 hPa 0,0 l/m 18,0 km/h (3 Bft) NO 52 0 min 0,000 mm 0,0 UV-I 0 W/m -6,5 C -12,7 C 24,1 km/h (4 Bft) 100,00 %
26.01.2017 22:24 -3,2 C 78 % 1025,2 hPa 0,0 l/m 19,8 km/h (3 Bft) NO 56 0 min 0,000 mm 0,0 UV-I 0 W/m -6,5 C -13,7 C 25,7 km/h (4 Bft) 95,74 %
26.01.2017 22:26 -3,2 C 78 % 1025,1 hPa 0,0 l/m 16,9 km/h (3 Bft) NO 54 0 min 0,000 mm 0,0 UV-I 0 W/m -6,5 C -12,1 C 22,5 km/h (4 Bft) 100,00 %
26.01.2017 22:28 -3,2 C 78 % 1025,1 hPa 0,0 l/m 20,2 km/h (4 Bft) NO 46 0 min 0,000 mm 0,0 UV-I 0 W/m -6,5 C -13,9 C 25,7 km/h (4 Bft) 100,00 %
26.01.2017 22:30 -3,2 C 79 % 1025,0 hPa 0,0 l/m 18,8 km/h (3 Bft) NO 49 0 min 0,000 mm 0,0 UV-I 0 W/m -6,3 C -13,1 C 24,1 km/h (4 Bft) 96,23 %
26.01.2017 22:32 -3,2 C 78 % 1025,1 hPa 0,0 l/m 20,3 km/h (4 Bft) NO 55 0 min 0,000 mm 0,0 UV-I 0 W/m -6,5 C -13,9 C 29,0 km/h (5 Bft) 100,00 %
26.01.2017 22:34 -3,3 C 78 % 1025,1 hPa 0,0 l/m 19,6 km/h (3 Bft) O-NO 61 0 min 0,000 mm 0,0 UV-I 0 W/m -6,6 C -13,7 C 27,4 km/h (4 Bft) 100,00 %
26.01.2017 22:36 -3,3 C 79 % 1025,1 hPa 0,0 l/m 19,3 km/h (3 Bft) O-NO 69 0 min 0,000 mm 0,0 UV-I 0 W/m -6,4 C -13,5 C 27,4 km/h (4 Bft) 100,00 %
26.01.2017 22:38 -3,3 C 79 % 1025,1 hPa 0,0 l/m 19,3 km/h (3 Bft) O-NO 65 0 min 0,000 mm 0,0 UV-I 0 W/m -6,4 C -13,5 C 24,1 km/h (4 Bft) 100,00 %
26.01.2017 22:40 -3,3 C 79 % 1025,1 hPa 0,0 l/m 20,6 km/h (4 Bft) NO 48 0 min 0,000 mm 0,0 UV-I 0 W/m -6,4 C -14,2 C 27,4 km/h (4 Bft) 98,11 %
26.01.2017 22:42 -3,3 C 79 % 1025,1 hPa 0,0 l/m 23,0 km/h (4 Bft) NO 51 0 min 0,000 mm 0,0 UV-I 0 W/m -6,4 C -15,3 C 29,0 km/h (5 Bft) 100,00 %
26.01.2017 22:44 -3,3 C 79 % 1025,0 hPa 0,0 l/m 21,3 km/h (4 Bft) NO 49 0 min 0,000 mm 0,0 UV-I 0 W/m -6,4 C -14,5 C 27,4 km/h (4 Bft) 100,00 %
26.01.2017 22:46 -3,3 C 79 % 1025,1 hPa 0,0 l/m 20,8 km/h (4 Bft) O-NO 65 0 min 0,000 mm 0,0 UV-I 0 W/m -6,4 C -14,3 C 27,4 km/h (4 Bft) 100,00 %
26.01.2017 22:48 -3,3 C 79 % 1025,1 hPa 0,0 l/m 21,4 km/h (4 Bft) O-NO 64 0 min 0,000 mm 0,0 UV-I 0 W/m -6,4 C -14,6 C 30,6 km/h (5 Bft) 100,00 %
26.01.2017 22:50 -3,3 C 79 % 1025,2 hPa 0,0 l/m 21,1 km/h (4 Bft) O-NO 63 0 min 0,000 mm 0,0 UV-I 0 W/m -6,4 C -14,4 C 25,7 km/h (4 Bft) 100,00 %
26.01.2017 22:52 -3,3 C 79 % 1025,2 hPa 0,0 l/m 21,4 km/h (4 Bft) O-NO 72 0 min 0,000 mm 0,0 UV-I 0 W/m -6,4 C -14,6 C 27,4 km/h (4 Bft) 100,00 %
26.01.2017 22:54 -3,4 C 79 % 1025,2 hPa 0,0 l/m 18,4 km/h (3 Bft) NO 49 0 min 0,000 mm 0,0 UV-I 0 W/m -6,5 C -13,2 C 25,7 km/h (4 Bft) 100,00 %
26.01.2017 22:56 -3,4 C 79 % 1025,2 hPa 0,0 l/m 20,7 km/h (4 Bft) O-NO 75 0 min 0,000 mm 0,0 UV-I 0 W/m -6,5 C -14,4 C 29,0 km/h (5 Bft) 100,00 %
26.01.2017 22:58 -3,4 C 79 % 1025,2 hPa 0,0 l/m 19,4 km/h (3 Bft) NO 55 0 min 0,000 mm 0,0 UV-I 0 W/m -6,5 C -13,7 C 29,0 km/h (5 Bft) 98,53 %
26.01.2017 23:00 -3,3 C 79 % 1025,2 hPa 0,0 l/m 21,3 km/h (4 Bft) O-NO 69 0 min 0,000 mm 0,0 UV-I 0 W/m -6,4 C -14,5 C 27,4 km/h (4 Bft) 100,00 %
26.01.2017 23:02 -3,3 C 79 % 1025,2 hPa 0,0 l/m 19,4 km/h (3 Bft) O-NO 57 0 min 0,026 mm 0,0 UV-I 0 W/m -6,4 C -13,6 C 24,1 km/h (4 Bft) 100,00 %
26.01.2017 23:04 -3,3 C 79 % 1025,2 hPa 0,0 l/m 18,7 km/h (3 Bft) NO 35 0 min 0,000 mm 0,0 UV-I 0 W/m -6,4 C -13,2 C 25,7 km/h (4 Bft) 95,12 %
26.01.2017 23:06 -3,3 C 79 % 1025,2 hPa 0,0 l/m 19,2 km/h (3 Bft) O-NO 63 0 min 0,000 mm 0,0 UV-I 0 W/m -6,4 C -13,5 C 27,4 km/h (4 Bft) 98,00 %
26.01.2017 23:08 -3,3 C 79 % 1025,2 hPa 0,0 l/m 17,5 km/h (3 Bft) NO 50 0 min 0,000 mm 0,0 UV-I 0 W/m -6,4 C -12,5 C 27,4 km/h (4 Bft) 100,00 %
26.01.2017 23:10 -3,3 C 79 % 1025,3 hPa 0,0 l/m 13,8 km/h (3 Bft) O-NO 59 0 min 0,000 mm 0,0 UV-I 0 W/m -6,4 C -10,2 C 19,3 km/h (3 Bft) 93,62 %
26.01.2017 23:12 -3,4 C 79 % 1025,3 hPa 0,0 l/m 16,0 km/h (3 Bft) O-NO 67 0 min 0,000 mm 0,0 UV-I 0 W/m -6,5 C -11,7 C 20,9 km/h (4 Bft) 97,73 %
26.01.2017 23:14 -3,4 C 79 % 1025,3 hPa 0,0 l/m 16,5 km/h (3 Bft) O 80 0 min 0,000 mm 0,0 UV-I 0 W/m -6,5 C -12,1 C 25,7 km/h (4 Bft) 98,21 %
26.01.2017 23:16 -3,4 C 79 % 1025,4 hPa 0,0 l/m 16,6 km/h (3 Bft) O 94 0 min 0,000 mm 0,0 UV-I 0 W/m -6,5 C -12,1 C 22,5 km/h (4 Bft) 94,74 %
26.01.2017 23:18 -3,5 C 79 % 1025,4 hPa 0,0 l/m 14,2 km/h (3 Bft) O-NO 78 0 min 0,000 mm 0,0 UV-I 0 W/m -6,6 C -10,7 C 19,3 km/h (3 Bft) 97,62 %
26.01.2017 23:20 -3,5 C 79 % 1025,4 hPa 0,0 l/m 11,9 km/h (2 Bft) NO 37 0 min 0,000 mm 0,0 UV-I 0 W/m -6,6 C -9,0 C 17,7 km/h (3 Bft) 96,36 %
26.01.2017 23:22 -3,6 C 79 % 1025,4 hPa 0,0 l/m 17,1 km/h (3 Bft) O-NO 71 0 min 0,000 mm 0,0 UV-I 0 W/m -6,7 C -12,7 C 22,5 km/h (4 Bft) 95,74 %
26.01.2017 23:24 -3,5 C 80 % 1025,4 hPa 0,0 l/m 17,5 km/h (3 Bft) O-NO 61 0 min 0,000 mm 0,0 UV-I 0 W/m -6,4 C -12,8 C 24,1 km/h (4 Bft) 98,00 %
26.01.2017 23:26 -3,6 C 79 % 1025,3 hPa 0,0 l/m 15,9 km/h (3 Bft) NO 49 0 min 0,000 mm 0,0 UV-I 0 W/m -6,7 C -11,9 C 20,9 km/h (4 Bft) 100,00 %
26.01.2017 23:28 -3,6 C 79 % 1025,5 hPa 0,0 l/m 14,9 km/h (3 Bft) O-NO 70 0 min 0,000 mm 0,0 UV-I 0 W/m -6,7 C -11,3 C 19,3 km/h (3 Bft) 97,18 %
26.01.2017 23:30 -3,6 C 79 % 1025,5 hPa 0,0 l/m 13,1 km/h (3 Bft) O-NO 68 0 min 0,000 mm 0,0 UV-I 0 W/m -6,7 C -10,0 C 19,3 km/h (3 Bft) 97,56 %
26.01.2017 23:32 -3,6 C 79 % 1025,5 hPa 0,0 l/m 15,7 km/h (3 Bft) O-NO 67 0 min 0,000 mm 0,0 UV-I 0 W/m -6,7 C -11,8 C 20,9 km/h (4 Bft) 98,11 %
26.01.2017 23:34 -3,6 C 80 % 1025,4 hPa 0,0 l/m 16,4 km/h (3 Bft) O-NO 67 0 min 0,000 mm 0,0 UV-I 0 W/m -6,5 C -12,2 C 24,1 km/h (4 Bft) 97,37 %
26.01.2017 23:36 -3,6 C 80 % 1025,4 hPa 0,0 l/m 16,4 km/h (3 Bft) O-NO 67 0 min 0,000 mm 0,0 UV-I 0 W/m -6,5 C -12,2 C 22,5 km/h (4 Bft) 97,87 %
26.01.2017 23:38 -3,6 C 79 % 1025,3 hPa 0,0 l/m 14,1 km/h (3 Bft) NO 44 0 min 0,000 mm 0,0 UV-I 0 W/m -6,7 C -10,7 C 22,5 km/h (4 Bft) 95,74 %
26.01.2017 23:40 -3,6 C 79 % 1025,3 hPa 0,0 l/m 16,3 km/h (3 Bft) NO 38 0 min 0,000 mm 0,0 UV-I 0 W/m -6,7 C -12,2 C 19,3 km/h (3 Bft) 98,11 %
26.01.2017 23:42 -3,6 C 79 % 1025,3 hPa 0,0 l/m 17,0 km/h (3 Bft) O 81 0 min 0,000 mm 0,0 UV-I 0 W/m -6,7 C -12,6 C 22,5 km/h (4 Bft) 97,56 %
26.01.2017 23:44 -3,6 C 79 % 1025,3 hPa 0,0 l/m 13,9 km/h (3 Bft) O-NO 57 0 min 0,000 mm 0,0 UV-I 0 W/m -6,7 C -10,6 C 17,7 km/h (3 Bft) 96,43 %
26.01.2017 23:46 -3,7 C 79 % 1025,3 hPa 0,0 l/m 13,3 km/h (3 Bft) O-NO 62 0 min 0,000 mm 0,0 UV-I 0 W/m -6,8 C -10,3 C 19,3 km/h (3 Bft) 100,00 %
26.01.2017 23:48 -3,7 C 79 % 1025,2 hPa 0,0 l/m 16,0 km/h (3 Bft) O 82 0 min 0,000 mm 0,0 UV-I 0 W/m -6,8 C -12,1 C 25,7 km/h (4 Bft) 96,43 %
26.01.2017 23:50 -3,7 C 80 % 1025,2 hPa 0,0 l/m 17,0 km/h (3 Bft) NO 41 0 min 0,000 mm 0,0 UV-I 0 W/m -6,6 C -12,7 C 22,5 km/h (4 Bft) 97,87 %
26.01.2017 23:52 -3,7 C 79 % 1025,2 hPa 0,0 l/m 16,7 km/h (3 Bft) O 82 0 min 0,000 mm 0,0 UV-I 0 W/m -6,8 C -12,6 C 20,9 km/h (4 Bft) 98,00 %
26.01.2017 23:54 -3,7 C 79 % 1025,2 hPa 0,0 l/m 16,5 km/h (3 Bft) NO 42 0 min 0,000 mm 0,0 UV-I 0 W/m -6,8 C -12,4 C 22,5 km/h (4 Bft) 97,37 %
26.01.2017 23:56 -3,7 C 80 % 1025,2 hPa 0,0 l/m 18,1 km/h (3 Bft) O-NO 64 0 min 0,000 mm 0,0 UV-I 0 W/m -6,6 C -13,4 C 25,7 km/h (4 Bft) 98,11 %
26.01.2017 23:58 -3,8 C 80 % 1025,2 hPa 0,0 l/m 17,9 km/h (3 Bft) NO 53 0 min 0,000 mm 0,0 UV-I 0 W/m -6,7 C -13,4 C 22,5 km/h (4 Bft) 100,00 %
_ Min-Zeit 08:26 14:44 20:48 - 07:10 - - - - - - 23:46 05:34 07:10 07:32
Minimum _ -4,8 C 67 % 1024,7 hPa - 10,7 km/h (2 Bft) - - - - - - -6,8 C -18,8 C 14,5 km/h (3 Bft) 71,70 %
_ Max-Zeit 14:50 08:18 00:02 00:00 18:16 - - 08:39 13:00 11:36 12:14 13:22 21:24 17:54 00:00
Maximum _ 0,8 C 88 % 1030,0 hPa 0,0 l/m 36,5 km/h
O-NO (5 Bft)
- - 3 min 0,178 mm 0,9 UV-I 414 W/m -4,3 C -8,3 C 53,1 km/h
O-NO (7 Bft)
100,00 %
Durchschnitt _ -2,1 C 79 % 1027,3 hPa #0,0 l/m 22,2 km/h (4 Bft) O-NO - #8:50 h #1,499 mm 0,7 UV-I 232 W/m -5,4 C -13,1 C 30,4 km/h (5 Bft) 98,19 %